[[{"header":{"parameterUnit":"m.s-1","parameterCategory":1,"la1":30.6,"la2":29.2853,"lo1":-89.7004,"lo2":-87.6739,"dy":0.0162,"dx":0.0183,"nx":112,"ny":82,"refTime":"2026-05-12T00:00:00:Z","depth":0,"parameterNumber":2,"parameterNumberName":"U-component_of_WINDS"},"data":[0.0,0.0,0.0,0.0,0.0,0.0,0.0,0.0,0.0,0.0,0.0,0.0,0.0,0.0,0.0,0.0,0.0,0.0,0.0,0.0,0.0,0.0,0.0,0.0,0.0,0.0,0.0,0.0,0.0,0.0,0.0,0.0,0.0,0.0,0.0,0.0,0.0,0.0,0.0,0.0,0.0,0.0,0.0,0.0,0.0,0.0,0.0,0.0,0.0,0.0,0.0,0.0,0.0,0.0,0.0,0.0,0.0,0.0,0.0,0.0,0.0,0.0,0.0,0.0,0.0,0.0,0.0,0.0,0.0,0.0,0.0,0.0,0.0,0.0,0.0,0.0,0.0,0.0,0.0,0.0,0.0,0.0,0.0,0.0,0.0,0.0,0.0,0.0,0.0,0.0,0.1991,0.2254,0.2661,0.3013,0.3329,0.3515,0.351,0.3272,0.0,0.0,0.0,0.0,0.0,0.0,0.0,0.0,0.0,0.0,0.0,0.0,0.0,0.0,0.0,0.0,0.0,0.0,0.0,0.0,0.0,0.0,0.0,0.0,0.0,0.0,0.0,0.0,0.0,0.0,0.0,0.0,0.0,0.0,0.0,0.0,0.0,0.0,0.0,0.0,0.0,0.0,0.0,0.0,0.0,0.0,0.0,0.0,0.0,0.0,0.0,0.0,0.0,0.0,0.0,0.0,0.0,0.0,0.0,0.0,0.0,0.0,0.0,0.0,0.0,0.0,0.0,0.0,0.0,0.0,0.0,0.0,0.0,0.0,0.0,0.0,0.0,0.0,0.0,0.0,0.0,0.0,0.0,0.0,0.0,0.0,0.0,0.0,0.0,0.0,0.0,0.0,0.0,0.0,0.0,0.0,0.0,0.0,0.0,0.0,0.0,0.0,0.0,0.0,0.2051,0.2654,0.2823,0.3067,0.3509,0.3639,0.3641,0.3548,0.0,0.0,0.0,0.0,0.0,0.0,0.0,0.0,0.0,0.0,0.0,0.0,0.0,0.0,0.0,0.0,0.0,0.0,0.0,0.0,0.0,0.0,0.0,0.0,0.0,0.0,0.0,0.0,0.0,0.0,0.0,0.0,0.0,0.0,0.0,0.0,0.0,0.0,0.0,0.0,0.0,0.0,0.0,0.0,0.0,0.0,0.0,0.0,0.0,0.0,0.0,0.0,0.0,0.0,0.0,0.0,0.0,0.0,0.0,0.0,0.0,0.0,0.0,0.0,0.0,0.0,0.0,0.0,0.0,0.0,0.0,0.0,0.0,0.0,0.0,0.0,0.0,0.0,0.0,0.0,0.0,0.0,0.0,0.0,0.0,0.0,0.0,0.0,0.0,0.0,0.0,0.0,0.0,0.0,0.0,0.0,0.0,0.0,0.0,0.0,0.0,0.0,0.0,0.2145,0.2338,0.3351,0.3347,0.3473,0.3939,0.4008,0.3952,0.3764,0.3224,0.0,0.0,0.0,0.0,0.0,0.0,0.0,0.0,0.0,0.0,0.0,0.0,0.0,0.0,0.0,0.0,0.0,0.0,0.0,0.0,0.0,0.0,0.0,0.0,0.0,0.0,0.0,0.0,0.0,0.0,0.0,0.0,0.0,0.0,0.0,0.0,0.0,0.0,0.0,0.0,0.0,0.0,0.0,0.0,0.0,0.0,0.0,0.0,0.0,0.0,0.0,0.0,0.0,0.0,0.0,0.0,0.0,0.0,0.0,0.0,0.0,0.0,0.0,0.0,0.0,0.0,0.0,0.0,0.0,0.0,0.0,0.0,0.0,0.0,0.0,0.0,0.0,0.0,0.0,0.0,0.0,0.0,0.0,0.0,0.0,0.0,0.0,0.0,0.0,0.0,0.0,0.0,0.0,0.0,0.0,0.0,0.0,0.0,0.0,0.0,0.0,0.0,0.2645,0.2879,0.3954,0.3889,0.3917,0.4272,0.4279,0.4161,0.3923,0.3311,0.0,0.0,0.0,0.0,0.0,0.0,0.0,0.0,0.0,0.0,0.0,0.0,0.0,0.0,0.0,0.0,0.0,0.0,0.0,0.0,0.0,0.0,0.0,0.0,0.0,0.0,0.0,0.0,0.0,0.0,0.0,0.0,0.0,0.0,0.0,0.0,0.0,0.0,0.0,0.0,0.0,0.0,0.0,0.0,0.0,0.0,0.0,0.0,0.0,0.0,0.0,0.0,0.0,0.0,0.0,0.0,0.0,0.0,0.0,0.0,0.0,0.0,0.0,0.0,0.0,0.0,0.0,0.0,0.0,0.0,0.0,0.0,0.0,0.0,0.0,0.0,0.0,0.0,0.0,0.0,0.0,0.0,0.0,0.0,0.0,0.0,0.0,0.0,0.0,0.0,0.0,0.0,0.0,0.0,0.0,0.0,0.0,0.0,0.0,0.0,0.0,0.0,0.3144,0.3759,0.4241,0.4264,0.4276,0.4294,0.4249,0.4125,0.3915,0.3436,0.0,0.0,0.0,0.0,0.0,0.0,0.0,0.0,0.0,0.0,0.0,0.0,0.0,0.0,0.0,0.0,0.0,0.0,0.0,0.0,0.0,0.0,0.0,0.0,0.0,0.0,0.0,0.0,0.0,0.0,0.0,0.0,0.0,0.0,0.0,0.0,0.0,0.0,0.0,0.0,0.0,0.0,0.0,0.0,0.0,0.0,0.0,0.0,0.0,0.0,0.0,0.0,0.0,0.0,0.0,0.0,0.0,0.0,0.0,0.0,0.0,0.0,0.0,0.0,0.0,0.0,0.0,0.0,0.0,0.0,0.0,0.0,0.0,0.0,0.0,0.0,0.0,0.0,0.0,0.0,0.0,0.0,0.0,0.0,0.0,0.0,0.0,0.0,0.0,0.0,0.0,0.0,0.0,0.0,0.0,0.0,0.0,0.0,0.0,0.0,0.0,0.0,0.2803,0.3347,0.0,0.403,0.3987,0.4272,0.4156,0.404,0.3972,0.0,0.0,0.0,0.0,0.0,0.0,0.0,0.0,0.0,0.0,0.0,0.0,0.0,0.0,0.0,0.0,0.0,0.0,0.0,0.0,0.0,0.0,0.0,0.0,0.0,0.0,0.0,0.0,0.0,0.0,0.0,0.0,0.0,0.0,0.0,0.0,0.0,0.0,0.0,0.0,0.0,0.0,0.0,0.0,0.0,0.0,0.0,0.0,0.0,0.0,0.0,0.0,0.0,0.0,0.0,0.0,0.0,0.0,0.0,0.0,0.0,0.0,0.0,0.0,0.0,0.0,0.0,0.0,0.0,0.0,0.0,0.0,0.0,0.0,0.0,0.0,0.0,0.0,0.0,0.0,0.0,0.0,0.0,0.0,0.0,0.0,0.0,0.0,0.0,0.0,0.0,0.0,0.0,0.0,0.0,0.0,0.0,0.0,0.0,0.0,0.0,0.0,0.2456,0.2761,0.3297,0.0,0.4005,0.3961,0.4272,0.4061,0.3918,0.3972,0.0,0.0,0.0,0.0,0.0,0.0,0.0,0.0,0.0,0.0,0.0,0.0,0.0,0.0,0.0,0.0,0.0,0.0,0.0,0.0,0.0,0.0,0.0,0.0,0.0,0.0,0.0,0.0,0.0,0.0,0.0,0.0,0.0,0.0,0.0,0.0,0.0,0.0,0.0,0.0,0.0,0.0,0.0,0.0,0.0,0.0,0.0,0.0,0.0,0.0,0.0,0.0,0.0,0.0,0.0,0.0,0.0,0.0,0.0,0.0,0.0,0.0,0.0,0.0,0.0,0.0,0.0,0.0,0.0,0.0,0.0,0.0,0.0,0.0,0.0,0.0,0.0,0.0,0.0,0.0,0.0,0.0,0.0,0.0,0.0,0.0,0.0,0.0,0.0,0.0,0.0,0.0,0.0,0.0,0.0,0.0,0.0,0.0,0.0,0.0,0.0,0.0,0.2456,0.3209,0.3858,0.4257,0.4294,0.4294,0.4294,0.3923,0.3759,0.0,0.0,0.0,0.0,0.0,0.0,0.0,0.0,0.0,0.0,0.0,0.0,0.0,0.0,0.0,0.0,0.0,0.0,0.0,0.0,0.0,0.0,0.0,0.0,0.0,0.0,0.0,0.0,0.0,0.0,0.0,0.0,0.0,0.0,0.0,0.0,0.0,0.0,0.0,0.0,0.0,0.0,0.0,0.0,0.0,0.0,0.0,0.0,0.0,0.0,0.0,0.0,0.0,0.0,0.0,0.0,0.0,0.0,0.0,0.0,0.0,0.0,0.0,0.0,0.0,0.0,0.0,0.0,0.0,0.0,0.0,0.0,0.0,0.0,0.0,0.0,0.0,0.0,0.0,0.0,0.0,0.0,0.0,0.0,0.0,0.0,0.0,0.0,0.0,0.0,0.0,0.0,0.0,0.0,0.0,0.0,0.0,0.0,0.0,0.0,0.0,0.0,0.0,0.2456,0.3209,0.3858,0.4257,0.4294,0.4294,0.4294,0.3923,0.3782,0.3964,0.0,0.0,0.0,0.0,0.0,0.0,0.0,0.0,0.0,0.0,0.0,0.0,0.0,0.0,0.0,0.0,0.0,0.0,0.0,0.0,0.0,0.0,0.0,0.0,0.0,0.0,0.0,0.0,0.0,0.0,0.0,0.0,0.0,0.0,0.0,0.0,0.0,0.0,0.0,0.0,0.0,0.0,0.0,0.0,0.0,0.0,0.0,0.0,0.0,0.0,0.0,0.0,0.0,0.0,0.0,0.0,0.0,0.0,0.0,0.0,0.0,0.0,0.0,0.0,0.0,0.0,0.0,0.0,0.0,0.0,0.0,0.0,0.0,0.0,0.0,0.0,0.0,0.0,0.0,0.0,0.0,0.0,0.0,0.0,0.0,0.0,0.0,0.0,0.0,0.0,0.0,0.0,0.0,0.0,0.0,0.0,0.0,0.0,0.0,0.0,0.0,0.0,0.2456,0.3209,0.3858,0.4257,0.4294,0.4294,0.4294,0.3923,0.3782,0.3944,0.0,0.0,0.0,0.0,0.0,0.0,0.0,0.0,0.0,0.0,0.0,0.0,0.0,0.0,0.0,0.0,0.0,0.0,0.0,0.0,0.0,0.0,0.0,0.0,0.0,0.0,0.0,0.0,0.0,0.0,0.0,0.0,0.0,0.0,0.0,0.0,0.0,0.0,0.0,0.0,0.0,0.0,0.0,0.0,0.0,0.0,0.0,0.0,0.0,0.0,0.0,0.0,0.0,0.0,0.0,0.0,0.0,0.0,0.0,0.0,0.0,0.0,0.0,0.0,0.0,0.0,0.0,0.0,0.0,0.0,0.0,0.0,0.0,0.0,0.0,0.0,0.0,0.0,0.0,0.0,0.0,0.0,0.0,0.0,0.0,0.0,0.0,0.0,0.0,0.0,0.0,0.0,0.0,0.0,0.0,0.0,0.0,0.0,0.0,0.0,0.0,0.0,0.2459,0.3213,0.3854,0.4192,0.4272,0.4272,0.4228,0.3919,0.378,0.3883,0.0,0.0,0.0,0.0,0.0,0.0,0.0,0.0,0.0,0.0,0.0,0.0,0.0,0.0,0.0,0.0,0.0,0.0,0.0,0.0,0.0,0.0,0.0,0.0,0.0,0.0,0.0,0.0,0.0,0.0,0.0,0.0,0.0,0.0,0.0,0.0,0.0,0.0,0.0,0.0,0.0,0.0,0.0,0.0,0.0,0.0,0.0,0.0,0.0,0.0,0.0,0.0,0.0,0.0,0.0,0.0,0.0,0.0,0.0,0.0,0.0043,0.0041,0.0,0.0,0.0,0.0,0.0,0.0,0.0,0.0,0.0,0.0,0.0,0.0,0.0,0.0,0.0,0.0,0.0,0.0,0.0,0.0,0.0,0.0,0.0,0.0,0.0,0.0,0.0,0.0,0.0,0.0,0.0,0.0,0.0,0.0,0.0,0.0,0.0,0.0,0.0,0.0,0.2535,0.3367,0.3891,0.3763,0.4074,0.4162,0.3785,0.3868,0.3918,0.391,0.3501,0.0,0.0,0.0,0.0,0.0,0.0,0.0,0.0,0.0,0.0,0.0,0.0,0.0,0.0,0.0,0.0,0.0,0.0,0.0,0.0,0.0,0.0,0.0,0.0,0.0,0.0,0.0,0.0,0.0,0.0,0.0,0.0,0.0,0.0,0.0,0.0,0.0,0.0,0.0,0.0,0.0,0.0,0.0,0.0,0.0,0.0,0.0,0.0,0.0,0.0,0.0,0.0,0.0,0.0,0.0,0.0,0.0,0.0,0.0,-0.0295,0.0,0.0,0.0,0.0,0.0,0.0,0.0,0.0,0.0,0.0,0.0,0.0,0.0,0.0,0.0,0.0,0.0,0.0,0.0,0.0,0.0,0.0,0.0,0.0,0.0,0.0,0.0,0.0,0.0,0.0,0.0,0.0,0.0,0.0,0.0,0.0,0.0,0.0,0.0,0.0,0.0,0.222,0.2887,0.3321,0.3262,0.3675,0.3873,0.3631,0.3839,0.4016,0.4037,0.3642,0.0,0.0,0.0,0.0,0.0,0.0,0.0,0.0,0.0,0.0,0.0,0.0,0.0,0.0,0.0,0.0,0.0,0.0,0.0,0.0,0.0,0.0,0.0,0.0,0.0,0.0,0.0,0.0,0.0,0.0,0.0,0.0,0.0,0.0,0.0,0.0,0.0,0.0,0.0,0.0,0.0,0.0,0.0,0.0,0.0,0.0,0.0,0.0,0.0,0.0,0.0,0.0,0.0,-0.2347,-0.2432,-0.2647,-0.2192,-0.2039,-0.2062,-0.0888,-0.0275,-0.011,-0.0034,0.0,0.0,0.0,0.0,0.0,0.0,0.0,0.0,0.0,0.0,0.0,0.0,0.0,0.0,0.0,0.0,0.0,0.0,0.0,0.0,0.0,0.0,0.1258,0.1135,0.1229,0.13,0.1246,0.0,0.0,0.0,0.0,0.0,0.0,0.0,0.0,0.0,0.0,0.0,0.1907,0.2357,0.2684,0.2755,0.3186,0.3473,0.3473,0.3755,0.4003,0.4152,0.3788,0.3516,0.0,0.0,0.0,0.0,0.0,0.0,0.0,0.0,0.0,0.0,0.0,0.0,0.0,0.0,0.0,0.0,0.0,0.0,0.0,0.0,0.0,0.0,0.0,0.0,0.0,0.0,0.0,0.0,0.0,0.0,0.0,0.0,-0.0896,-0.1179,0.0,0.0,0.0,0.0,0.0,0.0,0.0,0.0,0.0,0.0,0.0,0.0,0.0,-0.2408,-0.2377,-0.2606,-0.2705,-0.2672,-0.2994,-0.2926,-0.2536,-0.2674,-0.2549,-0.2171,-0.1982,0.0,-0.0585,-0.0161,0.0,0.0,0.0,0.0,0.0,0.0,0.0,0.0,0.0,0.0,0.0,0.0,0.0,0.0,0.0,0.0,0.0,0.0,0.0,0.0,0.0,0.0,0.12,0.12,0.1278,0.1378,0.1364,0.1288,0.12,0.1237,0.1152,0.1073,0.0,0.0,0.0,0.0,0.0,0.0,0.2055,0.2532,0.2681,0.2253,0.2677,0.2987,0.2987,0.3391,0.3763,0.4004,0.4125,0.4095,0.3918,0.3721,0.0,0.0,0.0,0.0,0.0,0.0,0.0,0.0,0.0,0.0,0.0,0.0,0.0,0.0,0.0,0.0,0.0,0.0,0.0,0.0,0.0,0.0,0.0,0.0,0.0,0.0,0.0,0.0,0.0,-0.1596,-0.1608,-0.1495,-0.1502,-0.1435,0.0,0.0,0.0,0.0,0.0,0.0,0.0,0.0,0.0,-0.2791,-0.2854,-0.2856,-0.279,-0.2989,-0.3119,-0.3205,-0.3454,-0.3509,-0.3351,-0.3464,-0.3365,-0.3093,-0.2827,-0.2422,-0.1884,-0.1355,-0.1081,-0.0997,0.0,0.0,0.0,0.0,-0.006,0.036,0.038,0.0537,0.0706,0.0706,0.0,0.0,0.0,0.0,0.0,0.0,0.0,0.089,0.0828,0.1007,0.1185,0.1109,0.1185,0.1287,0.1287,0.1299,0.1356,0.1456,0.1328,0.1241,0.1321,0.1246,0.0,0.0,0.0,0.1584,0.1646,0.1893,0.1966,0.1722,0.2144,0.2566,0.2876,0.3319,0.3818,0.4312,0.4315,0.4317,0.4388,0.4211,0.3936,0.0,0.0,0.0,0.0,0.0,0.0,0.0,0.0,0.0,0.0,0.0,0.0,0.0,0.0,0.0,0.0,0.0,0.0,0.0,0.0,0.0,0.0,0.0,0.0,0.0,0.0,0.0,0.0,-0.212,-0.2259,-0.1897,-0.1664,-0.1628,0.0,0.0,0.0,0.0,0.0,0.0,-0.3484,-0.3594,-0.3625,-0.3556,-0.3522,-0.3478,-0.3426,-0.3472,-0.3546,-0.3707,-0.3846,-0.3968,-0.4055,-0.4092,-0.408,-0.3955,-0.3614,-0.3363,-0.3169,-0.2383,-0.1968,-0.1845,-0.174,-0.1476,-0.1127,-0.1026,-0.0611,-0.0112,-0.0122,0.0049,0.0267,0.0416,0.0586,0.0749,0.0758,0.0,0.0,0.0,0.0,0.0886,0.0871,0.0988,0.1105,0.1052,0.1124,0.1168,0.1168,0.1288,0.1431,0.1595,0.1489,0.1429,0.1555,0.1443,0.0,0.1223,0.1284,0.1352,0.1366,0.1416,0.1434,0.1434,0.1734,0.2188,0.2854,0.323,0.3759,0.453,0.4448,0.449,0.4723,0.457,0.429,0.389,0.0,0.0,0.0,0.0,0.0,0.0,0.0,0.0,0.0,0.0,0.0,0.0,0.0,0.0,0.0,0.0,0.0,0.0,0.0,0.0,0.0,0.0,0.0,0.0,0.0,0.0,0.0,0.0,0.0,-0.2276,-0.2201,0.0,0.0,0.0,0.0,-0.2711,-0.3089,-0.3509,-0.3941,-0.4209,-0.4497,-0.48,-0.4498,-0.4329,-0.4326,-0.4092,-0.3965,-0.3976,-0.4109,-0.4177,-0.4187,-0.4379,-0.4467,-0.4467,-0.4446,-0.4312,-0.4021,-0.2728,-0.2118,-0.198,-0.1974,-0.1896,-0.1745,-0.1749,-0.1648,-0.1496,-0.1505,-0.1406,-0.1185,-0.0628,0.0052,0.0633,0.0837,0.0851,0.0,0.0,0.0882,0.0911,0.0969,0.0956,0.0965,0.114,0.1142,0.1116,0.1116,0.1197,0.134,0.139,0.1504,0.158,0.1514,0.0,0.1486,0.1479,0.1486,0.1513,0.1569,0.1529,0.1495,0.1495,0.1467,0.1834,0.281,0.2921,0.3388,0.4434,0.4548,0.4648,0.4783,0.4716,0.459,0.4376,0.3914,0.0,0.0,0.0,0.0,0.0,0.0,0.0,0.0,0.0,0.0,0.0,0.0,0.0,0.0,0.0,0.0,0.0,0.0,0.0,0.0,0.0,0.0,0.0,0.0,0.0,0.0,0.0,0.0,-0.2464,-0.2714,0.0,-0.3026,-0.339,-0.3835,-0.4341,-0.4781,-0.5152,-0.5399,-0.5424,-0.5429,-0.5409,-0.5254,-0.5032,-0.4723,-0.4617,-0.4542,-0.444,-0.4506,-0.4559,-0.4656,-0.4632,-0.4632,-0.4632,-0.4546,-0.4518,-0.4492,-0.401,-0.3655,-0.342,-0.3369,-0.3113,-0.276,-0.2674,-0.2284,-0.1789,-0.1796,-0.1388,-0.0784,-0.0145,0.0384,0.0746,0.0754,0.0841,0.0924,0.0956,0.0964,0.0975,0.0986,0.098,0.0972,0.1063,0.1054,0.101,0.0989,0.1119,0.124,0.1198,0.1355,0.1446,0.139,0.1484,0.1545,0.1506,0.1533,0.1566,0.1588,0.1572,0.1558,0.1558,0.1505,0.1862,0.2807,0.2943,0.3429,0.4491,0.4666,0.4779,0.4919,0.4909,0.4731,0.4409,0.4238,0.3766,0.0,0.0,0.0,0.0,0.0,0.0,0.0,0.0,0.0,0.0,0.0,0.0,0.0,0.0,0.0,0.0,0.0,0.0,0.0,0.0,0.0,0.0,0.0,0.0,0.0,0.0,-0.3245,-0.3001,-0.3349,-0.3659,-0.3787,-0.4191,-0.4632,-0.5097,-0.5541,-0.5916,-0.6182,-0.624,-0.6253,-0.6206,-0.6106,-0.5934,-0.5623,-0.5519,-0.5435,-0.5336,-0.5348,-0.5387,-0.5473,-0.5203,-0.5069,-0.5042,-0.4712,-0.4636,-0.4752,-0.472,-0.4631,-0.4497,-0.4358,-0.401,-0.3582,-0.349,-0.3102,-0.2574,-0.2563,-0.2061,-0.1317,-0.0826,-0.025,0.0254,0.0318,0.0608,0.0933,0.0978,0.101,0.1049,0.1049,0.1011,0.1003,0.1003,0.0996,0.0983,0.0932,0.1048,0.1127,0.1034,0.1199,0.1377,0.1395,0.152,0.161,0.1597,0.1651,0.1677,0.1677,0.1658,0.1646,0.1646,0.1566,0.1834,0.2588,0.2891,0.3414,0.4308,0.4644,0.4871,0.4985,0.5011,0.4812,0.4409,0.4243,0.3879,0.3297,0.0,0.0,0.0,0.0,0.0,0.0,0.0,0.0,0.0,0.0,0.0,0.0,0.0,0.0,0.0,0.0,0.0,0.0,0.0,0.0,0.0,0.0,0.0,-0.3044,-0.3479,-0.3836,-0.3902,-0.4101,-0.4283,-0.4416,-0.4745,-0.492,-0.4875,-0.5226,-0.5685,-0.6208,-0.6602,-0.6935,-0.7202,-0.7079,-0.7031,-0.7015,-0.6764,-0.6627,-0.6612,-0.6621,-0.6615,-0.6588,-0.6046,-0.58,-0.5773,-0.5022,-0.4787,-0.4908,-0.4762,-0.4874,-0.509,-0.4821,-0.4528,-0.4225,-0.4225,-0.4103,-0.3914,-0.388,-0.3482,-0.2993,-0.2837,-0.1882,-0.0773,-0.0494,0.0126,0.0809,0.0938,0.1054,0.1109,0.1109,0.1055,0.1002,0.1002,0.1012,0.099,0.099,0.099,0.0981,0.0921,0.1122,0.135,0.1545,0.16,0.1657,0.1769,0.1797,0.0,0.1797,0.1745,0.1708,0.1708,0.1654,0.1767,0.2178,0.2756,0.3332,0.3858,0.4469,0.4871,0.4985,0.5011,0.4812,0.4423,0.3942,0.3714,0.3714,0.0,0.0,0.0,0.0,0.0,0.0,0.0,0.0,0.0,0.0,0.0,0.0,0.0,0.0,0.0,0.0,0.0,0.0,0.0,0.0,0.0,-0.397,-0.3984,-0.3502,-0.377,-0.4026,-0.4049,-0.4521,-0.494,-0.5175,-0.5494,-0.5871,-0.6297,-0.6426,-0.6648,-0.7057,-0.7182,-0.7273,-0.7349,-0.754,-0.7478,-0.7137,-0.7308,-0.7244,-0.6961,-0.6967,-0.6972,-0.6945,-0.6241,-0.5946,-0.59,-0.5176,-0.4922,-0.5037,-0.4996,-0.5125,-0.5284,-0.5065,-0.4947,-0.4844,-0.4844,-0.4649,-0.4313,-0.3619,-0.3286,-0.3046,-0.2491,-0.1928,-0.142,-0.0846,-0.034,0.0171,0.0704,0.097,0.1109,0.1109,0.107,0.1064,0.1064,0.1058,0.1046,0.1026,0.0989,0.0981,0.0982,0.103,0.1157,0.1358,0.1515,0.1657,0.1769,0.1797,0.1797,0.1797,0.1782,0.1773,0.1773,0.1718,0.1856,0.23,0.282,0.3348,0.3928,0.4497,0.4871,0.4985,0.5011,0.4883,0.4628,0.4149,0.392,0.0,0.0,0.0,0.0,0.0,0.0,0.0,0.0,0.0,0.0,0.0,0.0,0.0,0.0,0.0,0.0,0.0,0.0,0.0,0.0,0.0,0.0,-0.5117,-0.5191,-0.4748,-0.4716,-0.4734,-0.4734,-0.5254,-0.5613,-0.5617,-0.5996,-0.6321,-0.6509,-0.6687,-0.6898,-0.7181,-0.7363,-0.7511,-0.7645,-0.7972,-0.8052,-0.7834,-0.8094,-0.8099,-0.7809,-0.7809,-0.7809,-0.7783,-0.7101,-0.6883,-0.6955,-0.6214,-0.5868,-0.5774,-0.5684,-0.5542,-0.5385,0.0,0.0,0.0,0.0,-0.4758,-0.4517,-0.3888,-0.3675,-0.3589,-0.3155,-0.2746,-0.23,-0.1856,-0.1135,-0.0343,0.0135,0.061,0.1024,0.0979,0.1052,0.1091,0.1113,0.1109,0.1104,0.1054,0.1051,0.1042,0.1013,0.1007,0.0,0.1239,0.1388,0.1576,0.1804,0.1812,0.1797,0.1797,0.1797,0.1797,0.1797,0.1766,0.1841,0.208,0.281,0.0,0.0,0.0,0.4941,0.499,0.4921,0.0,0.0,0.0,0.0,0.0,0.0,0.0,0.0,0.4548,0.4929,0.0,0.0,0.0,0.0,0.0,0.0,0.0,0.0,0.0,0.0,0.0,0.0,0.0,0.0,0.0,0.0,-0.6268,-0.6435,-0.6275,-0.6078,-0.5898,-0.5758,-0.6166,-0.6323,-0.5994,-0.6395,-0.6539,-0.6216,-0.6496,-0.679,-0.7072,-0.743,0.0,0.0,0.0,-0.8613,-0.8717,-0.8928,-0.8982,-0.8831,-0.8831,-0.8804,-0.8778,-0.8176,-0.8069,-0.8357,-0.7643,-0.715,-0.6818,-0.6625,-0.6133,-0.5491,-0.5428,-0.5292,-0.509,-0.4758,-0.4625,-0.4595,-0.4367,0.0,0.0,-0.4317,-0.3868,-0.3286,-0.3094,-0.2118,-0.0974,-0.0638,0.0103,0.0763,0.078,0.096,0.1109,0.1116,0.1109,0.1109,0.1109,0.1109,0.1068,0.101,0.1006,0.1062,0.1223,0.1331,0.1502,0.1823,0.1805,0.1769,0.1797,0.1797,0.1797,0.1797,0.1797,0.0,0.1721,0.2742,0.3374,0.3345,0.4486,0.5135,0.5065,0.4893,0.4883,0.5056,0.4888,0.4973,0.5325,0.5325,0.542,0.559,0.5366,0.5543,0.0,0.0,0.0,0.0,0.0,0.0,0.0,0.0,0.0,0.0,0.0,0.0,0.0,0.0,0.0,-0.577,-0.6209,-0.6519,-0.6601,-0.746,-0.7744,-0.6765,-0.7115,-0.7295,-0.6967,-0.707,-0.7223,-0.7356,-0.7251,-0.746,-0.816,-0.8265,-0.8394,-0.8552,-0.888,-0.8996,-0.8866,-0.9179,-0.9211,-0.8956,-0.8956,0.0,-0.8778,-0.8176,-0.8069,-0.8363,-0.7739,-0.7566,-0.7742,-0.7538,-0.6954,-0.6141,-0.5624,-0.5362,-0.5292,-0.4897,-0.4764,-0.4731,-0.44,-0.43,-0.4317,-0.4443,-0.4306,-0.3979,-0.3479,-0.2969,0.0,-0.1074,-0.0405,0.0068,0.0641,0.0947,0.1117,0.1111,0.1109,0.1109,0.1109,0.1109,0.1107,0.1069,0.1067,0.1165,0.1458,0.1367,0.1326,0.1621,0.1635,0.1685,0.1797,0.1797,0.1797,0.1797,0.1797,0.1792,0.1781,0.2298,0.2901,0.3585,0.4812,0.5504,0.549,0.5448,0.5443,0.5486,0.5448,0.5467,0.5547,0.5547,0.5571,0.5604,0.5538,0.5594,0.0,0.0,0.0,0.0,0.0,0.0,0.0,0.0,0.0,0.0,0.0,-0.6101,-0.661,0.0,-0.6937,-0.7212,-0.7643,-0.7888,-0.7681,-0.8604,-0.8928,-0.7926,-0.8343,-0.8564,-0.8228,-0.799,-0.7946,-0.8171,-0.7766,-0.7848,-0.8666,-0.8568,-0.8701,-0.9128,-0.9185,-0.9191,-0.9151,-0.9308,-0.9309,-0.9113,-0.9035,-0.8956,-0.8883,-0.8527,-0.8597,-0.9032,-0.8731,-0.8559,-0.8439,-0.7824,-0.7088,-0.6367,-0.6042,-0.5686,-0.5362,-0.506,-0.4894,-0.4764,-0.4531,-0.4436,-0.4384,-0.4384,-0.4384,-0.4316,-0.3973,-0.3493,-0.2947,-0.2213,-0.1289,-0.0479,-0.0101,0.051,0.0992,0.0945,0.1043,0.1109,0.1109,0.1109,0.1109,0.1109,0.1109,0.1143,0.1311,0.122,0.1259,0.1722,0.1674,0.166,0.1773,0.1797,0.1797,0.1797,0.1797,0.1797,0.1797,0.2578,0.3419,0.4288,0.514,0.5609,0.5609,0.5609,0.5609,0.5609,0.5609,0.5661,0.576,0.576,0.5812,0.5895,0.5895,0.5838,0.0,0.0,0.0,0.0,0.0,0.0,0.0,0.0,-0.66,-0.6278,-0.6926,-0.7653,-0.7983,-0.8388,-0.8669,-0.8597,-0.8995,-0.9136,-0.8693,-0.9472,-0.9845,-0.9197,-0.9552,-0.974,-0.9491,-0.9013,-0.8798,-0.8995,-0.8369,-0.8354,-0.9166,-0.8903,-0.9036,-0.9656,-0.9462,-0.938,-0.9432,-0.9439,-0.9361,-0.9237,-0.9113,-0.9035,-0.8982,-0.8857,-0.9132,-0.9722,-0.9836,-0.9621,-0.9122,-0.8124,-0.7284,-0.6597,-0.6465,-0.5976,-0.5362,-0.519,-0.4957,-0.4797,-0.4661,-0.4526,-0.446,-0.4355,-0.4382,-0.446,-0.4355,-0.3909,-0.3384,-0.3249,-0.2147,-0.0967,-0.0845,0.0034,0.0865,0.0813,0.0942,0.1109,0.1109,0.1109,0.1109,0.1109,0.1109,0.1109,0.1143,0.109,0.1257,0.1812,0.172,0.1636,0.1792,0.1804,0.1797,0.1797,0.1797,0.1825,0.188,0.3024,0.4091,0.4865,0.5408,0.5706,0.5706,0.5706,0.5706,0.5706,0.5706,0.5807,0.5972,0.5972,0.6036,0.6205,0.6205,0.6111,-0.6936,-0.6514,-0.6501,-0.7369,-0.6827,-0.6528,0.0,0.0,-0.6947,-0.7837,-0.8064,-0.8121,-0.8162,-0.8224,-0.8252,-0.8186,-0.8618,-0.8888,-0.8718,-0.9904,-1.0732,-1.0576,-1.0481,-1.0393,-1.0358,-1.0031,-0.9899,-1.011,-0.9452,-0.9403,-1.0264,-0.9835,-0.97,-0.9949,-0.992,-0.9799,-0.9588,-0.9588,-0.951,-0.9387,-0.9237,-0.9106,-0.8982,-0.8857,-0.9132,-0.9742,-1.0265,-1.0274,-0.9817,-0.9122,-0.8253,-0.7321,-0.6662,-0.5976,-0.5362,-0.519,-0.4957,-0.4797,-0.4661,-0.447,-0.4336,-0.4457,-0.439,-0.4336,-0.446,-0.4345,-0.4028,-0.3384,-0.2519,-0.1617,-0.0975,0.0,0.0812,0.081,0.0942,0.1109,0.1109,0.1109,0.1109,0.1109,0.1109,0.1143,0.1244,0.1275,0.1326,0.1513,0.1468,0.153,0.1844,0.1828,0.1797,0.1797,0.1797,0.1908,0.2128,0.3279,0.4124,0.4518,0.5544,0.6134,0.6134,0.6134,0.6134,0.6134,0.6134,0.6144,0.6167,0.6167,0.6182,0.6205,0.6205,0.6191,-0.9015,-0.841,-0.7946,0.0,-0.8181,-0.8083,-0.828,-0.8296,-0.8296,-0.8397,-0.89,-0.9209,-0.8893,-0.9095,-0.9274,0.0,-0.9367,-0.9553,-0.9718,-1.0549,-1.1226,-1.1475,-1.168,-1.1738,-1.1632,-1.1098,-1.0814,-1.0988,-1.0281,-1.0093,-1.0698,-1.0372,-1.0278,-1.0523,-1.018,-0.994,-0.9836,-0.9673,-0.9562,-0.951,-0.9387,-0.9237,-0.9113,-0.9139,-0.9435,-0.996,-1.0287,-1.0269,-0.9983,-0.9626,-0.8651,-0.7423,-0.7088,-0.6338,-0.5395,-0.5292,-0.506,-0.4797,-0.4728,-0.4577,-0.4395,-0.4376,-0.4384,-0.4395,-0.4376,-0.4338,-0.4233,-0.3928,-0.3286,-0.248,-0.1744,-0.0773,0.0135,0.0539,0.0875,0.1109,0.1109,0.1109,0.1109,0.1109,0.1109,0.1109,0.1176,0.1244,0.1373,0.1522,0.1573,0.1652,0.1886,0.1832,0.1797,0.1797,0.1797,0.1992,0.2465,0.343,0.4202,0.4708,0.565,0.6205,0.6205,0.6205,0.6205,0.6205,0.6318,0.6379,0.6379,0.6506,0.6563,0.6563,0.6563,0.6563,-1.0077,-0.9638,0.0,-0.9069,-0.9324,-0.9404,-0.8594,-0.8937,-0.9301,-0.8876,-0.9374,-0.9736,-0.9185,-0.9402,-0.9699,-0.9792,-0.9767,-0.9931,-1.0481,-1.0991,-1.1514,-1.2001,-1.2452,-1.2662,-1.252,-1.1966,-1.1623,-1.1685,-1.1151,-1.0935,-1.1157,-1.096,-1.0865,-1.0956,-1.0411,-1.0102,-0.9999,-0.9725,-0.9588,-0.9588,-0.9465,-0.9384,-0.9351,-0.9528,-0.9764,-1.0103,-1.0302,-1.0238,-0.9983,-0.9894,-0.8882,-0.7386,-0.7386,-0.6572,-0.5395,-0.5395,-0.5193,-0.4861,-0.4827,-0.4689,-0.4512,-0.4361,-0.4355,-0.4443,-0.4325,-0.43,-0.43,-0.43,-0.3758,-0.3015,-0.228,-0.1343,-0.0403,0.0337,0.0775,0.1043,0.1076,0.1109,0.1109,0.1109,0.1109,0.1109,0.1109,0.1244,0.1446,0.158,0.1709,0.1851,0.1914,0.1842,0.1797,0.1797,0.1797,0.2048,0.2635,0.3375,0.4119,0.4842,0.5618,0.6119,0.6285,0.6285,0.6313,0.6374,0.6516,0.6591,0.6591,0.6716,0.6791,0.6791,0.6791,0.6854,-0.9281,0.0,-0.9757,-1.0072,-1.003,-0.9954,-1.0177,-0.9854,-0.9498,-0.9472,-0.944,-0.9227,-0.8632,-0.8542,-0.8714,-0.9237,-0.9328,-0.9639,-1.0557,-1.1096,-1.1607,-1.214,-1.2555,-1.2785,0.0,-1.2532,-1.2306,-1.2192,-1.215,-1.2062,-1.187,-1.1727,-1.1492,-1.1116,-1.0693,-1.0342,-0.9999,-0.9725,-0.9588,-0.9588,-0.9465,-0.9498,-0.968,-0.9973,-1.01,-1.0134,-1.0459,-1.0371,-0.9983,-0.9983,-0.8979,-0.7386,-0.7386,-0.6572,-0.5395,-0.5395,-0.5259,-0.5054,-0.4861,-0.4697,-0.4567,-0.4367,-0.4303,-0.4306,-0.4303,-0.43,-0.43,-0.43,-0.3758,-0.3015,-0.228,-0.1443,-0.0572,0.0303,0.0674,0.0876,0.1042,0.1109,0.1109,0.1109,0.1109,0.1109,0.1109,0.1379,0.158,0.1614,0.187,0.207,0.2008,0.1868,0.1797,0.1797,0.1797,0.2048,0.2635,0.3072,0.3788,0.4842,0.5344,0.587,0.6454,0.6492,0.6591,0.6773,0.6782,0.6782,0.6782,0.6791,0.6791,0.6791,0.6791,0.693,-1.0731,-1.0721,-1.05,-1.0789,-1.0813,-1.079,-1.0873,-1.0766,-1.0457,-0.9888,-1.0212,-1.0333,-0.9468,-0.9368,-0.9566,-0.997,-0.9952,-1.0212,-1.1109,-1.1748,-1.2296,-1.2742,-1.2926,0.0,0.0,0.0,0.0,-1.2389,-1.2602,-1.2507,-1.1988,-1.2184,-1.1999,-1.1393,-1.1074,-1.0718,-1.0342,-1.0017,-0.9777,-0.9588,-0.9681,-0.9924,-1.0289,-1.0297,-1.035,-1.0445,-1.0546,-1.0466,-1.018,-1.0047,-0.9037,-0.7577,-0.7451,-0.6572,-0.5395,-0.5395,-0.5359,-0.5259,-0.493,-0.4728,-0.4561,-0.4367,-0.43,-0.43,-0.43,-0.4352,-0.4449,-0.4449,-0.4238,-0.3787,-0.2551,-0.1871,-0.1175,0.0168,0.064,0.0843,0.1042,0.1109,0.1109,0.1109,0.1109,0.1109,0.1109,0.1379,0.1681,0.1951,0.2069,0.2073,0.201,0.1932,0.1868,0.1939,0.1843,0.2066,0.2713,0.3079,0.376,0.4842,0.5478,0.6002,0.6468,0.6643,0.6721,0.6791,0.6984,0.7054,0.7054,0.7187,0.7253,0.7253,0.7253,0.7323,-1.147,-1.1298,-1.0987,-1.1307,-1.1389,-1.1341,-1.1227,-1.1014,-1.0632,-0.9881,-0.9968,-0.9936,-0.9069,-0.8926,-0.9145,-0.9762,-0.9709,-1.0058,-1.1423,-1.1777,-1.2124,-1.2772,-1.2825,-1.2758,0.0,0.0,0.0,-1.252,-1.3007,-1.3034,-1.2394,-1.2692,-1.2555,-1.185,-1.1343,-1.0947,-1.065,-1.0205,-0.9862,-0.9595,-0.9897,-1.0187,-1.0406,-1.0515,-1.0567,-1.0593,-1.0593,-1.0466,-1.0174,-1.0047,-0.9037,-0.7577,-0.7451,-0.6572,-0.5395,-0.5395,-0.5395,-0.5362,-0.5027,-0.4794,-0.4628,-0.4464,-0.4367,-0.43,-0.43,-0.4352,-0.4451,-0.4492,-0.4473,-0.4108,-0.2684,-0.2124,-0.1543,0.0101,0.0607,0.0775,0.1042,0.1109,0.1109,0.1109,0.1109,0.1109,0.1109,0.1379,0.1748,0.2154,0.2153,0.2106,0.2044,0.1981,0.1959,0.1998,0.1934,0.2079,0.2625,0.2986,0.3668,0.4816,0.543,0.6023,0.6723,0.6889,0.6962,0.7038,0.7232,0.7299,0.7299,0.7427,0.7489,0.7489,0.7489,0.7489,-1.1464,-1.1262,-1.125,-1.164,-1.1725,-1.1648,-1.1318,-1.072,-1.0082,-0.9495,-0.8869,-0.8228,0.0,0.0,-0.7579,-0.8716,-0.8729,-0.9334,-1.1483,-1.1269,-1.1271,0.0,0.0,0.0,0.0,0.0,0.0,-1.2663,-1.3446,-1.3688,-1.3079,-1.3273,-1.3112,-1.2438,-1.1576,-1.1074,-1.0922,-1.0308,-0.987,-0.9617,-1.0064,-1.0229,-1.0148,-1.0581,-1.073,-1.0593,-1.0593,-1.0364,-1.0015,-1.0015,-0.8973,-0.7419,-0.7419,-0.6572,-0.5395,-0.5395,-0.5395,-0.5362,-0.519,-0.499,-0.4764,-0.4661,-0.4464,-0.43,-0.43,-0.4308,-0.4341,-0.4484,-0.4401,-0.4004,-0.2644,-0.2195,-0.1678,0.0101,0.0506,0.0606,0.1008,0.1109,0.1109,0.1109,0.1109,0.1109,0.1109,0.1379,0.1748,0.2154,0.2188,0.2167,0.2107,0.2046,0.2009,0.2012,0.2006,0.2097,0.2379,0.2774,0.3534,0.481,0.5211,0.5961,0.7149,0.7199,0.7294,0.7489,0.7489,0.7489,0.7489,0.7489,0.7489,0.7489,0.7503,0.7508,-1.2107,-1.2053,-1.1933,-1.2055,-1.2065,-1.2044,-1.197,-1.1378,-1.0513,-0.9215,-0.8936,-0.8498,0.0,0.0,0.0,-0.8804,-0.9462,0.0,-1.1129,-1.182,0.0,-1.2446,0.0,-1.3096,-1.3401,-1.3994,0.0,0.0,-1.4364,-1.4357,-1.3704,-1.3694,-1.3341,-1.256,-1.1909,-1.1402,-1.1049,-1.036,-0.9982,-0.998,-1.0086,-1.0251,-1.0485,-1.0609,-1.0626,-1.0593,-1.0593,-1.053,-1.0434,-1.011,-0.9134,-0.78,-0.7517,-0.6572,-0.5395,-0.5395,-0.5395,-0.5395,-0.5326,-0.5093,-0.4764,-0.4661,-0.4464,-0.43,-0.43,-0.4423,-0.4605,-0.4635,-0.4621,-0.4283,-0.2841,-0.2261,-0.1678,0.0101,0.0506,0.0606,0.1008,0.1109,0.1109,0.1109,0.1109,0.1176,0.1446,0.1547,0.1748,0.2154,0.2188,0.2182,0.2167,0.211,0.2089,0.2135,0.2059,0.2115,0.2451,0.2808,0.3534,0.481,0.535,0.6095,0.7154,0.7337,0.7437,0.7489,0.7489,0.7489,0.7489,0.7489,0.7489,0.7493,0.7655,0.7731,-1.2466,-1.2425,-1.2313,-1.2231,-1.22,-1.2107,-1.1789,-1.094,-0.9983,-0.9146,-0.8339,0.0,-0.736,-0.7176,-0.7431,0.0,0.0,0.0,-1.0599,-1.1205,-1.1607,0.0,-1.2395,0.0,-1.3181,-1.4292,-1.4922,0.0,-1.4833,-1.4619,-1.3926,-1.385,-1.3437,-1.2643,-1.1999,-1.1427,-1.0845,-1.0437,-1.0116,-0.9892,-1.0031,-1.0199,-1.0401,-1.0534,-1.0612,-1.0593,-1.0593,-1.0561,-1.0428,-1.0149,-0.9326,-0.8253,-0.7642,-0.6765,-0.5818,-0.5491,-0.5395,-0.5395,-0.5292,-0.506,-0.4797,-0.4728,-0.4498,-0.4311,-0.436,-0.4468,-0.4555,-0.466,-0.4613,-0.4194,-0.278,-0.2218,-0.1576,0.0101,0.0573,0.0707,0.1042,0.1109,0.1109,0.1109,0.1109,0.121,0.1547,0.1614,0.1748,0.2154,0.2188,0.2188,0.2188,0.2157,0.2149,0.2183,0.2125,0.2164,0.2363,0.2813,0.358,0.4779,0.5439,0.6262,0.7291,0.7432,0.7489,0.7489,0.7489,0.7489,0.7489,0.7584,0.7631,0.7636,0.7849,0.7949,-1.2668,-1.2528,-1.2465,-1.2277,-1.2221,-1.2015,-1.1272,-1.0134,-0.9189,-0.9072,0.0,-0.6552,-0.7587,-0.7104,-0.6885,-0.7964,0.0,-0.8981,-0.9965,-1.0122,-1.0315,-1.0871,-1.1872,-1.2547,-1.2631,-1.4461,-1.555,-1.5349,-1.5151,-1.4756,-1.4071,-1.3825,-1.3341,-1.2521,-1.1983,-1.1326,-1.0522,-1.0522,-1.0198,-0.9595,-0.9899,-1.0041,-1.005,-1.0387,-1.0519,-1.0539,-1.0573,-1.0498,-1.0333,-1.0079,-0.9492,-0.8635,-0.7739,-0.699,-0.6334,-0.5657,-0.5395,-0.5362,-0.5156,-0.4957,-0.4797,-0.4764,-0.4564,-0.4319,-0.4451,-0.439,-0.4365,-0.4608,-0.4514,-0.4006,-0.2641,-0.2124,-0.1509,0.0101,0.064,0.0809,0.1042,0.1109,0.1109,0.1109,0.1109,0.121,0.1513,0.158,0.1715,0.212,0.2188,0.2188,0.2188,0.2188,0.2188,0.2188,0.2188,0.2188,0.2188,0.2824,0.3625,0.4616,0.5451,0.635,0.7358,0.7456,0.7489,0.7489,0.7489,0.7503,0.7531,0.7721,0.7826,0.7859,0.8063,0.8158,-1.3012,-1.2751,-1.2495,-1.2465,-1.2318,-1.2015,-1.1272,-1.0488,0.0,0.0,-0.7561,-0.6656,-0.5805,-0.6249,-0.6747,-0.6751,-0.7931,-0.9033,-0.955,-0.9952,-1.0534,0.0,-1.2516,-1.3498,-1.4362,-1.5536,0.0,0.0,-1.5889,-1.5492,-1.4778,-1.3831,-1.2905,-1.2042,-1.1819,-1.1377,-1.0667,-1.0573,-1.0198,-0.9614,-0.9672,-0.971,-0.9764,-1.0072,-1.0173,-1.0207,-1.0486,-1.0593,-1.053,-1.0142,-0.9588,-0.8828,-0.7804,-0.699,-0.6334,-0.5657,-0.5395,-0.5362,-0.5156,-0.4957,-0.4797,-0.4661,-0.4498,-0.4306,-0.4325,-0.4382,-0.4484,-0.4525,-0.4506,-0.4131,-0.2689,-0.2192,-0.1644,0.0101,0.0539,0.064,0.1008,0.1109,0.1109,0.1109,0.1109,0.1143,0.1311,0.148,0.1681,0.1918,0.2087,0.2188,0.2188,0.2188,0.2188,0.2188,0.2188,0.2188,0.2188,0.2824,0.3458,0.4115,0.5253,0.6185,0.6806,0.726,0.7489,0.7489,0.7489,0.7579,0.7759,0.7797,0.7902,0.8068,0.8245,0.8344,-1.3128,-1.2957,-1.2761,-1.2548,-1.2435,-1.2038,-1.0854,0.0,0.0,0.0,-0.6791,-0.6095,-0.6218,-0.6269,0.0,-0.7081,-0.7598,-0.8326,-0.9495,-0.9734,-1.0289,-1.1648,-1.2753,-1.3704,-1.44,-1.5739,-1.6491,-1.6318,-1.5923,-1.5355,-1.4582,-1.3386,-1.2486,-1.1927,-1.1778,-1.1452,-1.0922,-1.065,-1.0283,-0.981,-0.9595,-0.9558,-0.9715,-0.991,-1.0039,-1.0134,-1.0459,-1.053,-1.0434,-1.011,-0.9754,-0.9332,-0.8361,-0.7544,-0.6826,-0.6174,-0.5617,-0.5223,-0.5027,-0.4827,-0.467,-0.4569,-0.4448,-0.4311,-0.4371,-0.4384,-0.4393,-0.4487,-0.4462,-0.4073,-0.2567,-0.2032,-0.1442,0.0135,0.0674,0.0875,0.1042,0.1109,0.1109,0.1109,0.1109,0.1176,0.1412,0.1547,0.1715,0.2018,0.2154,0.2188,0.2188,0.2188,0.2188,0.2188,0.2188,0.2188,0.2188,0.2824,0.3424,0.3982,0.5186,0.6152,0.6675,0.7228,0.7541,0.7655,0.766,0.7764,0.7973,0.8047,0.8155,0.8255,0.8458,0.8557,-1.3113,-1.3066,-1.2957,-1.2587,-1.2349,-1.1825,-1.0424,-0.9073,0.0,0.0,-0.6177,-0.5672,-0.6824,-0.6506,-0.6374,0.0,-0.7276,-0.7657,-0.9171,-0.9311,-0.9887,0.0,-1.2801,0.0,-1.4253,-1.5732,0.0,-1.6414,-1.5778,-1.4983,-1.4082,-1.2973,-1.2224,-1.2002,-1.1803,-1.1528,-1.115,-1.0718,-1.0308,-0.994,-0.9569,-0.9443,-0.9562,-0.9728,-0.9856,-1.004,-1.0334,-1.0407,-1.0276,-1.0079,-0.9926,-0.9702,-0.885,-0.8032,-0.7321,-0.6597,-0.5811,-0.5054,-0.4827,-0.4694,-0.4576,-0.4472,-0.439,-0.4355,-0.4479,-0.4443,-0.4349,-0.4449,-0.4371,-0.3964,-0.2482,-0.1878,-0.1275,0.0202,0.0841,0.1109,0.1109,0.1109,0.1109,0.1109,0.1109,0.1176,0.148,0.158,0.1715,0.2087,0.2188,0.2188,0.2188,0.2188,0.2188,0.2188,0.2188,0.2188,0.2188,0.2824,0.3424,0.3918,0.5186,0.6119,0.6609,0.7199,0.7593,0.7811,0.7816,0.7935,0.8151,0.8321,0.8425,0.8467,0.8628,0.8703,-1.2963,-1.2975,-1.2773,-1.2548,-1.1864,-1.1029,-1.0266,0.0,-0.7916,-0.7249,-0.6516,-0.6054,-0.6187,-0.6633,-0.6769,-0.6096,0.0,-0.7669,-0.8018,-0.8475,-0.9547,-1.1646,0.0,0.0,-1.4822,-1.5885,-1.6479,-1.6414,-1.5712,-1.4778,-1.3529,-1.2827,-1.2397,-1.2283,-1.1902,-1.1578,-1.1276,-1.0769,-1.0275,-0.9814,-0.9543,-0.9278,-0.9063,-0.933,-0.9552,-0.974,-1.0033,-1.0215,-1.0276,-1.0079,-0.9926,-0.9702,-0.885,-0.8032,-0.7288,-0.6437,-0.5679,-0.5054,-0.4725,-0.4625,-0.4561,-0.4378,-0.4379,-0.449,-0.4501,-0.4498,-0.4468,-0.4344,-0.4308,-0.3964,-0.2482,-0.1978,-0.1409,0.0337,0.0942,0.1109,0.1109,0.1109,0.1109,0.1109,0.1109,0.1143,0.1311,0.148,0.1681,0.1884,0.2087,0.2188,0.2188,0.2188,0.2188,0.2188,0.2188,0.2188,0.2188,0.2824,0.3393,0.3792,0.5123,0.6057,0.6416,0.7134,0.7593,0.7811,0.7816,0.7976,0.8373,0.8392,0.8496,0.8675,0.8694,0.8703,-1.2564,-1.2882,-1.3085,-1.2763,-1.2095,-1.127,-1.0327,0.0,-0.7308,-0.6633,-0.5967,-0.5638,-0.6074,-0.6337,-0.653,-0.6624,-0.6531,-0.6842,-0.7986,-0.8213,-0.9201,-1.1666,-1.3037,0.0,0.0,0.0,-1.6663,-1.6426,-1.5756,-1.4971,-1.412,-1.3328,-1.2696,-1.22,-1.1877,-1.1569,-1.1301,-1.0769,-1.0308,-0.9906,-0.9498,-0.9237,-0.912,-0.9241,-0.9333,-0.9404,-0.9645,-0.9711,-0.9642,-0.9624,-0.9544,-0.9375,-0.9183,-0.8398,-0.7354,-0.6924,-0.5976,-0.4894,-0.4658,-0.4528,-0.4409,-0.4413,-0.4468,-0.4492,-0.4387,-0.4368,-0.4357,-0.4314,-0.43,-0.393,-0.2382,-0.1141,-0.0067,0.0774,0.1043,0.1109,0.1109,0.1109,0.1109,0.1109,0.1109,0.1176,0.1446,0.1547,0.1715,0.2018,0.2154,0.2188,0.2188,0.2188,0.2188,0.2188,0.2188,0.2188,0.2188,0.2622,0.3157,0.3758,0.4885,0.5859,0.6537,0.7281,0.7845,0.8151,0.8155,0.8297,0.8581,0.8581,0.8623,0.8703,0.8703,0.8703,-1.1814,-1.2235,-1.2556,-1.2215,-1.1593,-1.0856,0.0,-0.8269,-0.667,-0.6192,-0.5413,-0.5089,-0.5995,-0.6131,-0.6265,-0.6788,-0.6562,-0.6652,-0.7641,-0.8089,-0.9142,-1.1334,0.0,-1.3975,-1.4788,-1.6026,-1.6684,-1.6414,-1.5923,-1.5299,-1.4469,-1.3792,-1.305,-1.2249,-1.1877,-1.1603,-1.1427,-1.0794,-1.0342,-1.0051,-0.9472,-0.9185,-0.914,-0.9092,-0.9103,-0.9141,-0.9295,-0.9282,-0.9155,-0.9232,-0.9205,-0.9119,-0.9318,-0.8532,-0.7316,-0.7181,-0.6104,-0.4728,-0.4561,-0.4431,-0.4314,-0.4393,-0.4386,-0.4335,-0.4255,-0.4291,-0.4344,-0.4241,-0.3894,-0.3322,-0.2112,-0.0504,0.0843,0.1043,0.1109,0.1109,0.1109,0.1109,0.1109,0.1109,0.1109,0.121,0.1547,0.1614,0.1748,0.2154,0.2188,0.2188,0.2188,0.2188,0.2188,0.2188,0.2188,0.2188,0.2188,0.252,0.3098,0.3968,0.4907,0.5887,0.6887,0.7557,0.8037,0.8396,0.8401,0.85,0.8703,0.8703,0.8703,0.8703,0.8703,0.8703,-1.07,-1.0815,-1.0777,-1.0567,-0.9914,-0.9324,-0.9316,-0.7652,-0.611,-0.6094,-0.5034,-0.4517,-0.5859,-0.6105,-0.61,-0.6115,-0.7043,-0.7482,-0.6637,-0.8002,-0.947,0.0,0.0,-1.3324,-1.4404,-1.5716,-1.6479,-1.6414,-1.6275,-1.5645,-1.4377,-1.4097,-1.3529,-1.2529,-1.1977,-1.1703,-1.1703,-1.0896,-1.0411,-1.0198,-0.9524,-0.9133,-0.9008,-0.8864,-0.8891,-0.9002,-0.9002,-0.9016,-0.8997,-0.9003,-0.9039,-0.9095,-0.9101,-0.8337,-0.7181,-0.6985,-0.5939,-0.4561,-0.4367,-0.43,-0.43,-0.4303,-0.4167,-0.3997,-0.3995,-0.424,-0.4444,-0.4092,-0.2986,-0.1878,-0.1642,-0.0403,0.0843,0.1043,0.1109,0.1109,0.1109,0.1109,0.1109,0.1109,0.1109,0.121,0.1547,0.1614,0.1748,0.2154,0.2188,0.2188,0.2188,0.2188,0.2188,0.2188,0.2188,0.2188,0.2188,0.252,0.3256,0.4519,0.529,0.6236,0.7442,0.7868,0.8179,0.8396,0.8401,0.85,0.8703,0.8703,0.8703,0.8703,0.8703,0.8703,-0.8728,-0.9114,-0.9438,-0.9189,-0.8589,-0.8018,-0.784,-0.6565,-0.5421,-0.5413,-0.4714,-0.4479,-0.5732,-0.6032,-0.6375,-0.7195,-0.7601,0.0,-0.7993,0.0,0.0,-1.1091,-1.3182,-1.4968,0.0,0.0,-1.6599,-1.6479,-1.6297,-1.5724,-1.4629,-1.4224,-1.3505,-1.2406,-1.1927,-1.1528,-1.115,-1.0718,-1.0257,-0.9777,-0.9394,-0.9185,-0.914,-0.891,-0.8771,-0.8717,-0.8643,-0.8532,-0.8462,-0.8508,-0.8545,-0.8538,-0.8304,-0.7669,-0.6867,-0.6225,-0.5415,-0.4561,-0.4367,-0.43,-0.43,-0.43,-0.4164,-0.3995,-0.3892,-0.395,-0.4004,-0.3902,-0.2817,-0.1642,-0.1441,-0.0201,0.1009,0.1076,0.1109,0.1109,0.1109,0.1109,0.1109,0.1109,0.1109,0.121,0.1547,0.1614,0.1748,0.2154,0.2188,0.2188,0.2188,0.2188,0.2204,0.2211,0.2215,0.2199,0.2192,0.2836,0.3632,0.4559,0.5625,0.6683,0.767,0.8084,0.8396,0.86,0.8609,0.8637,0.8703,0.8703,0.8703,0.8703,0.8703,0.8703,0.0,-0.7725,-0.8036,-0.7862,-0.7458,-0.7049,-0.6873,-0.5943,-0.5101,-0.5107,-0.4571,-0.4413,-0.5404,-0.5666,-0.6043,-0.7064,-0.752,-0.7878,0.0,0.0,0.0,-1.1965,0.0,0.0,0.0,-1.6316,-1.6329,-1.6238,-1.6066,-1.5512,-1.4502,-1.4014,-1.3338,-1.2397,-1.1952,-1.1494,-1.1074,-1.0667,-1.0257,-0.9751,-0.9413,-0.9237,-0.9185,-0.8982,-0.8745,-0.8494,-0.8203,-0.8076,0.0,-0.7653,-0.7689,-0.796,-0.751,-0.6936,-0.6282,-0.5785,-0.512,-0.4461,-0.4334,-0.43,-0.43,-0.4197,-0.403,-0.3797,-0.3627,-0.3627,-0.3661,-0.3458,-0.248,-0.1408,-0.1006,0.0067,0.1109,0.1109,0.1109,0.1109,0.1109,0.1109,0.1109,0.1109,0.1109,0.121,0.1547,0.1614,0.1748,0.2154,0.2188,0.2188,0.2188,0.2188,0.2211,0.2204,0.2487,0.2689,0.274,0.3235,0.402,0.5128,0.6075,0.7009,0.7871,0.8291,0.8576,0.8699,0.8703,0.8703,0.8703,0.8703,0.8703,0.8703,0.8703,0.8746,0.0,-0.6545,-0.6541,-0.6532,-0.639,-0.6243,-0.6246,-0.5609,0.0,-0.5036,-0.4536,-0.4322,-0.5027,-0.5171,-0.5441,-0.6248,-0.72,-0.7839,0.0,-0.9675,0.0,0.0,-1.3598,0.0,-1.5178,-1.5604,-1.5803,-1.5796,-1.5668,-1.513,-1.4071,-1.3624,-1.3132,-1.2529,-1.1977,-1.1569,-1.1267,-1.0769,-1.0308,-0.9973,-0.9577,-0.9342,-0.9185,-0.9061,-0.8798,-0.8368,-0.7765,-0.7637,-0.7762,-0.6669,-0.6681,-0.7344,-0.6719,-0.6106,-0.5544,-0.5509,-0.4984,-0.43,-0.43,-0.43,-0.4233,-0.403,-0.3763,-0.3464,-0.3261,-0.3328,-0.3395,-0.282,-0.2012,-0.114,-0.047,0.0403,0.1109,0.1109,0.1109,0.1109,0.1109,0.1109,0.1109,0.1109,0.1109,0.121,0.1547,0.1614,0.1748,0.2154,0.2188,0.2188,0.2188,0.2192,0.2218,0.2279,0.3022,0.3588,0.3756,0.3794,0.4483,0.6084,0.6626,0.7272,0.8055,0.8475,0.8703,0.8703,0.8703,0.8703,0.8703,0.8703,0.8703,0.8703,0.8703,0.8817,-0.4929,0.0,-0.4992,-0.4896,-0.4836,-0.4764,0.0,-0.4473,-0.4342,-0.434,0.0,-0.4429,-0.5516,-0.5798,-0.6574,-0.8736,-0.9121,-0.9684,-1.1187,-1.2199,0.0,-1.4333,-1.4445,-1.4782,-1.5715,-1.5906,-1.5898,-1.5818,-1.5668,-1.513,-1.4071,-1.3624,-1.3132,-1.2529,-1.2076,-1.1578,-1.0998,-1.0675,-1.0223,-0.9699,-0.9491,-0.9342,-0.9185,-0.9061,-0.885,-0.8521,-0.7818,-0.7471,-0.7369,-0.6534,-0.626,-0.6294,-0.5682,-0.5333,-0.5098,-0.4623,-0.4382,-0.43,-0.43,-0.4197,-0.403,-0.373,-0.3565,-0.3464,-0.3261,-0.3328,-0.3328,-0.2551,-0.1811,-0.1106,-0.0269,0.0504,0.1109,0.1109,0.1109,0.1109,0.1109,0.1109,0.1143,0.1244,0.1176,0.1244,0.1748,0.1715,0.1748,0.2154,0.2188,0.2188,0.2188,0.2195,0.249,0.3199,0.3485,0.4194,0.5477,0.5582,0.5757,0.6165,0.7191,0.7901,0.8102,0.8475,0.8703,0.8703,0.8703,0.8703,0.8703,0.8703,0.8703,0.8703,0.8703,0.8817,-0.4498,-0.4752,-0.4978,-0.4837,-0.481,-0.4778,-0.4635,0.0,0.0,0.0,0.0,-0.4402,-0.5358,-0.5849,-0.6758,-0.8804,-0.9618,0.0,0.0,0.0,-1.3574,-1.4013,-1.4218,-1.4576,-1.5241,-1.5504,-1.5494,-1.5176,-1.5227,-1.4801,-1.3684,-1.3276,-1.29,-1.2505,-1.2101,-1.1653,-1.1099,-1.0769,-1.0308,-0.9777,-0.9595,-0.9387,-0.9211,-0.914,-0.8923,-0.8573,-0.7812,-0.7417,-0.7235,-0.6204,-0.571,-0.5536,-0.4908,-0.4617,-0.4504,-0.4207,-0.4159,-0.4191,-0.4179,-0.3997,-0.373,-0.3565,-0.3431,-0.3328,-0.3228,-0.3261,-0.3125,-0.2014,-0.1443,-0.0939,0.0201,0.0806,0.1109,0.1109,0.1109,0.1109,0.1109,0.1109,0.1143,0.1277,0.1244,0.1344,0.1817,0.1817,0.185,0.2154,0.2188,0.2197,0.2192,0.219,0.2561,0.3538,0.4005,0.4795,0.6073,0.6551,0.6802,0.6802,0.7622,0.8102,0.8102,0.8475,0.8703,0.8703,0.8703,0.8703,0.8703,0.8703,0.8703,0.8703,0.8703,0.8864,-0.4656,-0.5215,-0.5678,-0.5329,-0.5324,-0.5362,-0.5239,0.0,0.0,0.0,0.0,0.0,0.0,-0.6028,0.0,0.0,0.0,0.0,-1.2595,-1.3196,-1.3469,-1.3298,-1.3677,-1.4106,-1.4461,-1.4843,-1.4878,-1.4421,-1.464,-1.4333,-1.3256,-1.29,-1.2676,-1.2505,-1.215,-1.1778,-1.1352,-1.0922,-1.0462,-0.9999,-0.9725,-0.9465,-0.9211,-0.9211,-0.8968,-0.8573,-0.7812,-0.7358,-0.7069,-0.5792,-0.514,-0.4877,-0.4346,-0.4062,-0.3989,-0.4038,-0.407,-0.4102,-0.399,-0.3763,-0.3498,-0.3464,-0.3328,-0.3192,-0.3192,-0.3125,-0.2788,-0.1479,-0.1109,-0.0773,0.0706,0.1109,0.1109,0.1109,0.1109,0.1109,0.1109,0.1143,0.121,0.1311,0.1344,0.148,0.1884,0.1918,0.1951,0.2154,0.2188,0.221,0.2202,0.2322,0.28,0.3795,0.4616,0.5459,0.6307,0.7057,0.7484,0.7484,0.7872,0.814,0.8178,0.8513,0.8703,0.8703,0.8703,0.8703,0.8703,0.8703,0.8703,0.8703,0.8737,0.8959,-0.5338,-0.6014,-0.6214,-0.4877,-0.4986,-0.5356,-0.5227,0.0,0.0,0.0,0.0,0.0,0.0,-0.7724,-0.8626,0.0,0.0,-1.3672,0.0,0.0,-1.4151,-1.4119,-1.3954,-1.401,-1.4456,-1.4451,-1.4424,-1.4398,-1.4397,-1.4038,-1.3246,-1.3045,-1.2813,-1.2505,-1.2332,-1.2051,-1.1653,-1.1023,-1.0462,-0.9999,-0.9725,-0.9465,-0.9211,-0.9211,-0.8968,-0.8573,-0.7812,-0.7138,-0.647,-0.5515,-0.4756,-0.4159,-0.3931,-0.3835,-0.3829,-0.3912,-0.3997,-0.407,-0.3888,-0.3694,-0.3464,-0.3295,-0.3226,-0.3192,-0.3192,-0.2787,-0.2181,-0.1344,-0.1109,-0.0773,0.0706,0.1109,0.1109,0.1109,0.1176,0.1244,0.1109,0.1311,0.1513,0.1547,0.1547,0.1681,0.2087,0.2018,0.1951,0.2154,0.2188,0.221,0.2202,0.2892,0.3728,0.4622,0.5483,0.6371,0.7207,0.7403,0.7484,0.7484,0.7872,0.8255,0.8589,0.8665,0.8703,0.8703,0.8703,0.8703,0.8703,0.8703,0.8703,0.8708,0.8888,0.9061,-0.4952,-0.5881,-0.6457,-0.5244,-0.5748,-0.657,-0.674,0.0,0.0,0.0,0.0,0.0,0.0,0.0,-0.9768,-1.1918,0.0,-1.3982,-1.3121,-1.3814,-1.4247,-1.3852,-1.3872,-1.3967,-1.4102,-1.423,-1.4331,-1.4392,-1.4051,-1.3651,-1.3265,-1.2806,-1.2342,-1.1821,-1.2113,-1.2,-1.1367,-1.0998,-1.0616,-1.0257,-0.9751,-0.9387,-0.9211,-0.914,-0.8738,-0.8096,-0.7685,-0.6897,-0.5869,-0.5324,-0.4673,-0.3993,-0.3852,-0.375,-0.3712,-0.3781,-0.3867,-0.3924,-0.3711,-0.3496,-0.3328,-0.3228,-0.3192,-0.3192,-0.3192,-0.272,-0.2047,-0.131,-0.0807,-0.0269,0.0807,0.1109,0.1109,0.1176,0.1244,0.1311,0.1344,0.148,0.1648,0.1748,0.1749,0.185,0.2154,0.212,0.2087,0.2188,0.2215,0.2397,0.2887,0.3364,0.4157,0.5477,0.597,0.6553,0.7442,0.7484,0.7599,0.7795,0.7987,0.8289,0.8665,0.8703,0.8703,0.8703,0.8703,0.8703,0.8703,0.8703,0.876,0.8878,0.8938,0.9155,-0.4725,-0.5504,-0.6158,-0.5777,0.0,-0.7432,-0.8002,0.0,0.0,0.0,0.0,0.0,0.0,-1.0246,0.0,-1.1989,-1.3393,-1.4013,-1.3066,-1.3814,-1.4223,-1.3616,-1.3779,-1.3914,-1.3804,-1.3994,-1.4152,-1.4205,-1.3606,-1.3192,-1.3117,-1.2481,-1.1846,-1.1233,-1.1837,-1.184,-1.111,-1.1038,-1.082,-1.0496,-0.9751,-0.9256,-0.9001,-0.887,-0.8309,-0.7423,-0.7337,-0.66,-0.5433,-0.5164,-0.4646,-0.3993,-0.3827,-0.368,-0.3594,-0.3655,-0.3695,-0.3694,-0.3556,-0.3362,-0.3192,-0.3192,-0.3159,-0.3092,-0.3192,-0.2552,-0.1678,-0.1176,-0.037,0.0437,0.1008,0.1176,0.1244,0.1344,0.1412,0.148,0.158,0.1681,0.1783,0.1884,0.1951,0.2018,0.2188,0.2188,0.2188,0.2188,0.2376,0.2757,0.3515,0.4013,0.4793,0.6069,0.6395,0.6784,0.7446,0.7561,0.7718,0.8063,0.8178,0.8365,0.8699,0.8703,0.8703,0.8703,0.8703,0.8703,0.8703,0.8703,0.8812,0.8985,0.9032,0.9253,-0.5407,-0.5145,-0.4966,-0.6202,-0.6596,0.0,-0.7957,-0.8205,0.0,-0.9706,0.0,0.0,0.0,-1.2364,-1.3109,-1.1851,-1.36,-1.457,-1.2941,-1.3632,-1.4241,-1.3995,-1.3868,-1.3821,-1.3804,-1.365,-1.3588,-1.3643,-1.3077,-1.27,-1.2574,-1.2156,-1.1691,-1.1224,-1.1601,-1.1602,-1.111,-1.1212,-1.1023,-1.0496,-0.9751,-0.9073,-0.8448,-0.8243,-0.7626,-0.6669,-0.6669,-0.615,-0.5304,-0.5034,-0.4543,-0.3968,-0.3722,-0.3566,-0.3531,-0.3656,-0.3585,-0.3439,-0.35,-0.3362,-0.3192,-0.3192,-0.2989,-0.2787,-0.3092,-0.1981,-0.0638,-0.0773,0.0168,0.121,0.1277,0.1412,0.158,0.158,0.1715,0.1817,0.1648,0.1884,0.212,0.1918,0.2052,0.2188,0.2188,0.2188,0.2188,0.2188,0.289,0.3459,0.3587,0.5004,0.6074,0.6185,0.6938,0.7442,0.7484,0.7684,0.7876,0.8102,0.8437,0.8665,0.8703,0.8703,0.8703,0.8703,0.8703,0.8703,0.8703,0.8703,0.8812,0.899,0.9173,0.9385,-0.4866,-0.5404,-0.5976,-0.6432,-0.697,0.0,0.0,-0.9238,-0.9947,-1.1159,-1.1414,0.0,0.0,0.0,-1.3779,-1.2334,-1.3697,-1.4418,-1.2913,-1.3617,-1.4222,-1.4019,-1.3878,-1.3804,-1.3804,-1.3611,-1.3555,-1.3656,-1.2831,-1.2286,-1.2197,-1.1727,-1.115,-1.0474,-1.1331,-1.1445,-1.0729,-1.1115,-1.1023,-1.0496,-0.9491,-0.8811,-0.8374,-0.7771,-0.6966,-0.61,-0.61,-0.5527,-0.4601,-0.4405,-0.4156,-0.3855,-0.3666,-0.3571,-0.3512,-0.3504,-0.3456,-0.3395,-0.333,-0.3261,-0.3192,-0.3192,-0.2989,-0.2686,-0.2618,-0.1544,-0.0336,-0.0168,0.0739,0.1648,0.1513,0.1547,0.1648,0.1749,0.185,0.1918,0.1951,0.2087,0.2188,0.2087,0.2154,0.2188,0.2188,0.2188,0.2354,0.2753,0.3242,0.3915,0.4895,0.5709,0.6409,0.6934,0.7407,0.7718,0.7872,0.8177,0.835,0.8298,0.8441,0.8589,0.8703,0.8831,0.8836,0.8703,0.8954,0.903,0.8902,0.903,0.9159,0.9371,0.9446,0.9634,-0.4588,-0.5706,-0.6885,-0.6625,0.0,0.0,-0.9095,-0.9891,-1.0857,-1.2236,-1.2677,0.0,-1.2886,0.0,0.0,0.0,-1.3233,-1.379,-1.2703,-1.3362,-1.3955,-1.3937,-1.3858,-1.3788,-1.3741,-1.3594,-1.3479,-1.3434,-1.2608,-1.2005,-1.1754,-1.1274,-1.0696,-1.0009,-1.1047,-1.1241,-1.0499,-1.1109,-1.1124,-1.0496,-0.9321,-0.8527,-0.8096,-0.716,-0.6295,-0.5527,-0.5477,-0.4987,-0.4193,-0.4052,-0.3882,-0.3716,-0.358,-0.3462,-0.3374,-0.3339,-0.3308,-0.3257,-0.3218,-0.3192,-0.3192,-0.3092,-0.2822,-0.2452,-0.2048,-0.1074,-0.0034,0.0336,0.1143,0.1884,0.1817,0.1783,0.1817,0.1951,0.1985,0.2018,0.2154,0.2188,0.2188,0.2188,0.2188,0.2188,0.2188,0.2388,0.2686,0.3115,0.3827,0.472,0.5767,0.6323,0.6861,0.7522,0.7723,0.7876,0.8068,0.8482,0.8654,0.8513,0.8597,0.8718,0.8807,0.8944,0.8982,0.8902,0.9181,0.9216,0.9079,0.9216,0.9395,0.9602,0.9602,0.9757,-0.4766,-0.5968,-0.7374,0.0,0.0,0.0,-0.9315,-1.0029,-1.1111,-1.2835,-1.3744,-1.3946,-1.3079,-1.3312,0.0,-1.1487,-1.2102,-1.2664,-1.2268,-1.2772,-1.3369,-1.3756,-1.3804,-1.3741,-1.3615,-1.3531,-1.3293,-1.2838,-1.2365,-1.1829,-1.1236,-1.0831,-1.0419,-1.0029,-1.0783,-1.0986,-1.0507,-1.1303,-1.1293,-1.0496,-0.9273,-0.8271,-0.7465,-0.6458,-0.5586,-0.4897,-0.477,-0.4498,-0.4193,-0.4052,-0.383,-0.3583,-0.3444,-0.3272,-0.31,-0.3188,-0.3107,-0.3012,-0.3162,-0.3192,-0.3125,-0.282,-0.2453,-0.2087,-0.148,-0.0538,0.037,0.0706,0.1344,0.1951,0.2154,0.2188,0.2188,0.2188,0.2188,0.2188,0.2188,0.2188,0.2188,0.2188,0.2188,0.2188,0.2188,0.2753,0.3215,0.3215,0.4734,0.5914,0.5914,0.6854,0.7565,0.7765,0.7804,0.7876,0.8102,0.8482,0.8718,0.8713,0.9097,0.9197,0.8995,0.899,0.9079,0.9277,0.9286,0.9286,0.9286,0.9286,0.9399,0.9606,0.9606,0.9757,-0.4382,-0.5965,0.0,-0.7296,0.0,0.0,0.0,-1.0952,0.0,0.0,-1.4113,-1.4827,-1.4561,-1.4322,0.0,-1.2958,-1.3038,-1.2985,-1.2307,-1.3105,-1.3778,-1.3795,-1.3804,-1.3741,-1.3615,-1.3531,-1.319,-1.2425,-1.212,-1.1616,-1.0821,-1.0572,-1.0449,-1.0417,-1.0934,-1.1103,-1.0924,-1.1249,-1.1099,-1.0496,-0.9418,-0.8415,-0.7465,-0.6268,-0.5426,-0.4897,-0.477,-0.4467,-0.4052,-0.3805,-0.3666,-0.3583,-0.3444,-0.3272,-0.3091,-0.308,-0.3019,-0.3001,-0.3089,-0.3006,-0.2822,-0.272,-0.2016,-0.1143,-0.0706,0.0168,0.1076,0.148,0.1817,0.212,0.2188,0.2188,0.2188,0.2188,0.2188,0.2188,0.2188,0.2188,0.2188,0.2188,0.2188,0.2188,0.2188,0.2753,0.3382,0.3885,0.5085,0.6172,0.6918,0.7423,0.7799,0.7991,0.803,0.814,0.8479,0.8876,0.9056,0.8916,0.9274,0.9413,0.9202,0.9338,0.9376,0.9286,0.9615,0.9696,0.9512,0.9696,0.9843,0.9861,0.9861,0.9937,-0.578,-0.7034,0.0,-0.8238,-0.9162,-1.0294,-1.1408,0.0,0.0,0.0,-1.4452,-1.518,-1.5102,-1.4685,-1.4034,-1.3056,-1.2747,-1.2489,-1.2166,-1.2746,-1.3351,-1.3752,-1.3804,-1.3741,-1.3581,-1.3382,-1.2958,-1.221,-1.1854,-1.1356,-1.064,-1.0476,-1.0469,-1.0598,-1.0991,-1.1167,-1.1101,-1.1236,-1.1023,-1.0496,-0.9432,-0.8422,-0.7465,-0.6344,-0.5504,-0.4873,-0.4574,-0.4273,-0.3968,-0.3722,-0.3613,-0.3583,-0.3357,-0.3216,-0.3088,-0.2962,-0.2915,-0.2946,-0.3036,-0.287,-0.2606,-0.2249,-0.1538,-0.0694,0.0099,0.0793,0.1392,0.1878,0.212,0.2188,0.2188,0.2188,0.2188,0.2188,0.2188,0.2188,0.2188,0.2188,0.2188,0.2188,0.2188,0.2287,0.2554,0.3186,0.3899,0.4686,0.58,0.6814,0.7622,0.7842,0.7991,0.8217,0.8217,0.8401,0.8783,0.9133,0.9268,0.9235,0.9582,0.971,0.9578,0.9578,0.9578,0.9573,0.9866,0.9933,0.9767,0.9933,0.9994,0.9994,0.9994,0.9994,-0.7906,0.0,0.0,-0.9315,-0.9978,0.0,-1.1938,-1.2677,-1.3313,-1.404,0.0,-1.5143,-1.4975,-1.459,-1.3794,-1.2363,-1.1748,-1.16,-1.2022,-1.2086,-1.2518,-1.3657,-1.3804,-1.3708,-1.3463,-1.3113,-1.2667,-1.2084,-1.1579,-1.1094,-1.0621,-1.0467,-1.0469,-1.0598,-1.0991,-1.1167,-1.1101,-1.1236,-1.1023,-1.0411,-0.9354,-0.8349,-0.7412,-0.6556,-0.5691,-0.4846,-0.4242,-0.3993,-0.3968,-0.3694,-0.3583,-0.3555,-0.3216,-0.3102,-0.306,-0.2869,-0.279,-0.2808,-0.2915,-0.2785,-0.2399,-0.1553,-0.1035,-0.0513,0.0868,0.132,0.1491,0.2036,0.2188,0.2188,0.2188,0.2188,0.2188,0.2188,0.2188,0.2188,0.2188,0.2192,0.2196,0.2196,0.22,0.244,0.3107,0.3847,0.4701,0.5679,0.6824,0.7727,0.8067,0.816,0.82,0.8365,0.8421,0.8576,0.8943,0.9155,0.9366,0.9564,0.9809,0.9975,0.9994,0.9771,0.9762,0.9994,0.9994,0.9994,0.9994,0.9994,0.9994,0.9994,0.9994,0.9994,-0.6244,-0.6865,0.0,0.0,-1.0536,-1.1855,-1.2133,-1.2308,-1.2744,-1.3884,-1.4653,-1.5175,-1.5341,-1.466,-1.387,-1.3259,-1.2433,-1.2064,-1.2625,-1.2703,-1.2977,-1.3713,-1.3804,-1.3594,-1.3067,-1.2946,-1.2549,-1.1689,-1.1386,-1.1048,-1.0621,-1.0428,-1.0419,-1.0598,-1.0991,-1.1167,-1.1101,-1.1236,-1.0854,-0.995,-0.9484,-0.8475,-0.7015,-0.6349,-0.5504,-0.457,-0.4159,-0.3938,-0.3827,-0.3666,-0.3527,-0.3413,-0.3188,-0.3049,-0.2916,-0.277,-0.2764,-0.2771,-0.258,-0.2365,-0.1989,-0.1234,-0.0433,0.0344,0.1088,0.1579,0.1978,0.2136,0.2188,0.2188,0.2188,0.2188,0.2188,0.2188,0.2188,0.2188,0.2188,0.2192,0.219,0.219,0.2228,0.2545,0.3361,0.4212,0.5395,0.7298,0.7919,0.8247,0.8335,0.8475,0.8546,0.8421,0.8549,0.8673,0.8745,0.911,0.9301,0.9348,0.955,0.9786,0.9985,0.9952,0.9947,0.9994,0.9994,0.9994,0.9994,0.9994,0.9994,0.9994,0.9994,0.9994,-0.6777,0.0,0.0,-0.9258,0.0,-1.1769,-1.2123,-1.219,-1.2424,-1.3382,-1.4127,-1.4708,-1.4959,-1.4703,-1.4235,-1.36,-1.2897,-1.2546,-1.2862,-1.2902,-1.3124,-1.3726,-1.3594,-1.3314,-1.2946,-1.2514,-1.2049,-1.1534,-1.1142,-1.0821,-1.0621,-1.0419,-1.0399,-1.0598,-1.0792,-1.1008,-1.1196,-1.0802,-1.0347,-0.9891,-0.9086,-0.7945,-0.6529,-0.58,-0.5148,-0.4574,-0.4159,-0.3938,-0.3796,-0.3663,-0.3527,-0.3385,-0.3188,-0.3023,-0.2888,-0.2747,-0.2721,-0.2676,-0.2183,-0.1848,-0.1441,-0.0443,0.03,0.0927,0.1475,0.183,0.207,0.2161,0.2167,0.215,0.2179,0.2188,0.2255,0.2388,0.2321,0.2188,0.2188,0.2213,0.221,0.2204,0.2411,0.2906,0.3912,0.5234,0.6574,0.7905,0.8342,0.8546,0.8546,0.8709,0.8786,0.8714,0.8763,0.8904,0.9108,0.931,0.9479,0.9615,0.9729,0.9838,0.999,0.9994,0.9994,0.9994,0.9994,0.9994,0.9994,0.9994,0.9994,0.9994,0.9994,0.9994,-0.7532,0.0,-0.7891,-0.9513,-1.05,0.0,-1.1846,-1.2045,-1.2222,-1.2716,-1.3377,-1.399,-1.4331,-1.4558,-1.4456,-1.3673,-1.32,-1.2941,-1.3045,-1.2967,-1.3124,-1.3726,-1.3391,-1.301,-1.2824,-1.2067,-1.1542,-1.1415,-1.0907,-1.0602,-1.0602,-1.0419,-1.037,-1.0493,-1.0548,-1.0711,-1.0967,-1.0201,-0.9773,-0.9698,-0.8291,-0.7101,-0.6049,-0.5269,-0.4822,-0.4632,-0.419,-0.391,-0.3744,-0.361,-0.3471,-0.333,-0.3132,-0.2996,-0.286,-0.2747,-0.2607,-0.241,-0.1734,-0.1281,-0.0784,0.0398,0.0966,0.1317,0.1857,0.2019,0.2042,0.2156,0.2216,0.222,0.2274,0.2321,0.2455,0.2721,0.2587,0.2356,0.2287,0.2296,0.232,0.2304,0.2891,0.375,0.486,0.6511,0.7777,0.8205,0.8553,0.875,0.8757,0.8906,0.8971,0.8934,0.899,0.9159,0.947,0.9564,0.9677,0.9933,0.9942,0.9961,0.9994,0.9994,0.9994,0.9994,0.9994,0.9994,0.9994,0.9994,0.9994,0.9994,0.9994,0.9994,-0.5969,0.0,-0.8136,0.0,-1.0132,-1.1039,0.0,0.0,-1.2021,0.0,-1.2588,-1.3225,-1.3785,-1.391,-1.391,-1.3775,-1.3274,-1.3085,-1.3608,-1.3229,-1.3124,-1.3726,-1.3391,-1.2906,-1.2431,-1.1898,-1.1423,-1.1014,-1.0746,-1.0602,-1.0602,-1.0419,-1.0234,-1.0085,-1.0427,-1.0306,-0.9653,-0.9742,-0.9368,-0.8516,-0.721,-0.6257,-0.5593,-0.5105,-0.4763,-0.4519,-0.4159,-0.3858,-0.361,-0.3471,-0.3302,-0.3132,-0.2998,-0.2858,-0.2719,-0.2719,-0.2296,-0.1679,-0.1313,-0.0729,-0.0028,0.0842,0.1177,0.1318,0.1893,0.2082,0.2098,0.2168,0.2414,0.2608,0.2618,0.2855,0.3092,0.3125,0.3092,0.2991,0.2686,0.2671,0.2719,0.2729,0.4166,0.5709,0.6684,0.7626,0.8435,0.882,0.8917,0.8945,0.8969,0.8985,0.8954,0.8765,0.9067,0.9197,0.9075,0.9399,0.9616,0.9644,0.9644,0.9767,0.9985,0.9994,0.9994,0.9994,0.9994,0.9994,0.9994,0.9994,0.9994,0.9994,0.9994,0.9994,-0.5767,-0.6724,-0.7739,0.0,-0.9473,-1.0079,-1.0822,-1.1197,-1.1485,-1.1826,-1.1985,-1.2296,-1.3094,-1.3412,-1.3629,-1.3782,-1.3582,-1.3503,-1.3765,-1.352,-1.3392,-1.3669,-1.3242,-1.2743,-1.2288,-1.1818,-1.1359,-1.0938,-1.0708,-1.0602,-1.0602,-1.0419,-1.0205,-1.0009,-1.0171,-1.0022,-0.9521,-0.9171,-0.8409,-0.7235,-0.6483,-0.5865,-0.5366,-0.5039,-0.4763,-0.4491,-0.4159,-0.3858,-0.3583,-0.3444,-0.3272,-0.3077,-0.2942,-0.2833,-0.2663,-0.2324,-0.193,-0.1482,-0.0559,0.0028,0.0505,0.1283,0.1587,0.1732,0.2184,0.2227,0.2204,0.2636,0.2694,0.2703,0.2911,0.3092,0.3259,0.3491,0.336,0.3226,0.3288,0.3153,0.321,0.3904,0.5213,0.6476,0.7363,0.8005,0.8492,0.8802,0.8941,0.8962,0.883,0.891,0.8948,0.8892,0.9148,0.9296,0.9329,0.9644,0.9819,0.9819,0.9819,0.9856,0.9994,0.9994,0.9994,0.9994,0.9994,0.9994,0.9994,0.9994,0.9994,0.9994,0.9994,0.9994,-0.5645,-0.6618,-0.7516,-0.8324,-0.8743,-0.9234,0.0,0.0,-1.1017,0.0,-1.1454,-1.1585,-1.2424,-1.2897,-1.3231,-1.3526,-1.37,-1.3788,-1.3758,-1.3661,-1.3598,-1.3581,-1.3121,-1.2632,-1.2246,-1.1792,-1.1322,-1.0919,-1.0708,-1.0582,-1.0553,-1.0351,-1.0166,-1.0009,-0.9961,-0.9721,-0.9249,-0.8406,-0.7364,-0.612,-0.6007,-0.5672,-0.5114,-0.4965,-0.4736,-0.4408,-0.4132,-0.3858,-0.3638,-0.3413,-0.3132,-0.2852,-0.2689,-0.2465,-0.2183,-0.1706,-0.1342,-0.0951,0.0112,0.07,0.1064,0.1642,0.1918,0.2037,0.2302,0.2261,0.2259,0.2908,0.2915,0.285,0.3241,0.3426,0.356,0.3861,0.3694,0.3527,0.3758,0.3658,0.3922,0.5134,0.6103,0.6982,0.7893,0.8284,0.8513,0.8665,0.8836,0.8883,0.8722,0.8845,0.8944,0.8944,0.9131,0.9348,0.9507,0.98,0.9994,0.9994,0.9994,0.9994,0.9994,0.9994,1.0018,1.0075,1.0023,0.9994,0.9994,0.9994,0.9994,0.9999,1.0051,1.0075,-0.5107,-0.6574,-0.7831,-0.732,-0.8059,0.0,0.0,0.0,-1.0822,-1.0852,-1.0998,-1.1282,-1.184,-1.2225,-1.2567,-1.288,-1.3438,-1.3758,-1.3628,-1.3598,-1.3581,-1.3514,-1.3087,-1.2632,-1.2246,-1.1792,-1.1311,-1.0841,-1.0678,-1.0544,-1.0418,-1.0215,-1.0088,-1.0,-0.9882,-0.9317,-0.8291,-0.735,-0.6359,-0.537,-0.5854,-0.5569,-0.4642,-0.4809,-0.4656,-0.4221,-0.4052,-0.391,-0.3741,-0.3297,-0.2768,-0.2212,-0.1959,-0.151,-0.0978,-0.081,-0.0308,0.0336,0.0587,0.1147,0.1749,0.186,0.195,0.2013,0.2105,0.2166,0.2284,0.2619,0.2954,0.3253,0.3656,0.3997,0.4233,0.4267,0.4267,0.4164,0.3859,0.4192,0.4904,0.6171,0.6885,0.7541,0.8481,0.8665,0.8699,0.8703,0.8713,0.8713,0.8703,0.8713,0.8718,0.8718,0.9082,0.9286,0.9296,0.9715,0.9994,0.9994,0.9994,0.9994,0.9994,0.9994,1.0094,1.0298,1.0099,0.9994,0.9994,0.9994,0.9994,0.9999,1.0208,1.0303,-0.5137,-0.579,0.0,-0.6739,-0.7259,-0.7774,-0.8169,-0.8949,-0.9809,-1.0628,-1.0619,-1.0647,-1.1274,-1.1791,-1.2293,-1.2758,-1.3314,-1.3644,-1.3547,-1.3497,-1.3459,-1.3442,-1.3203,-1.282,-1.2192,-1.1975,-1.1571,-1.085,-1.0678,-1.0544,-1.0399,-1.0215,-1.0069,-1.0,-0.9862,-0.9248,-0.8082,-0.6978,-0.6126,-0.5566,-0.5544,-0.5218,-0.4668,-0.4696,-0.451,-0.4193,-0.4052,-0.3885,-0.3635,-0.3272,-0.274,-0.2155,-0.1818,-0.1342,-0.0838,-0.0224,0.0168,0.0477,0.1064,0.1514,0.1801,0.1822,0.1896,0.2015,0.2511,0.2429,0.2366,0.3442,0.346,0.3326,0.3964,0.4197,0.43,0.43,0.43,0.4386,0.4767,0.5259,0.5796,0.6371,0.733,0.8157,0.8618,0.8703,0.8703,0.8703,0.8703,0.8703,0.8703,0.8703,0.8703,0.8703,0.9077,0.9282,0.9282,0.971,0.9994,0.9994,0.9994,0.9994,0.9994,0.9994,1.0099,1.0312,1.0241,1.0203,1.0203,1.0061,0.9994,0.9999,1.0217,1.0317,-0.4859,-0.5318,0.0,0.0,0.0,-0.6723,-0.7679,-0.8244,-0.8934,-1.0224,-1.0267,-1.0292,-1.0961,-1.1414,-1.1793,-1.2165,-1.2835,-1.3264,-1.3178,-1.3297,-1.3374,-1.334,-1.3134,-1.2756,-1.2168,-1.1975,-1.1571,-1.0793,-1.0659,-1.0525,-1.037,-1.0186,-0.999,-0.9832,-0.9576,-0.8938,-0.7938,-0.6894,-0.6142,-0.5701,-0.5365,-0.5001,-0.4626,-0.4552,-0.4327,-0.4,-0.3916,-0.3728,-0.3498,-0.3229,-0.2694,-0.2038,-0.1503,-0.0978,-0.042,0.0476,0.0813,0.0898,0.1459,0.1713,0.1797,0.1797,0.1892,0.2129,0.2684,0.2643,0.2657,0.3799,0.3794,0.3527,0.4133,0.43,0.43,0.43,0.433,0.4549,0.5252,0.5821,0.6329,0.6773,0.7683,0.8467,0.8666,0.8703,0.8703,0.8703,0.8703,0.8703,0.8703,0.8703,0.8703,0.8703,0.9015,0.9211,0.9277,0.9649,0.9952,1.0094,1.0037,1.0028,1.0099,1.0037,1.0099,1.0312,1.0246,1.0246,1.0317,1.0175,1.0104,1.0108,1.0322,1.0447,0.0,0.0,0.0,0.0,0.0,0.0,-0.7472,0.0,-0.8251,-0.959,-0.9925,-1.0184,-1.0922,-1.1001,-1.0984,-1.1052,-1.198,-1.2634,-1.2516,-1.2989,-1.3314,-1.3198,-1.2843,-1.2461,-1.2113,-1.1719,-1.1255,-1.0659,-1.0602,-1.0505,-1.0322,-1.0117,-0.9852,-0.9524,-0.8975,-0.839,-0.7814,-0.7063,-0.6349,-0.5701,-0.536,-0.4954,-0.4505,-0.4431,-0.4115,-0.3602,-0.3602,-0.3519,-0.3374,-0.3165,-0.26,-0.1786,-0.0992,-0.0308,0.0336,0.1262,0.16,0.1628,0.1741,0.1797,0.1797,0.1797,0.2036,0.2335,0.2475,0.2735,0.3103,0.3661,0.3792,0.3892,0.4197,0.43,0.43,0.43,0.4419,0.4674,0.5306,0.5855,0.6499,0.7427,0.8029,0.8472,0.867,0.8703,0.8703,0.8703,0.8703,0.8703,0.8703,0.8703,0.8703,0.8703,0.8897,0.9065,0.9268,0.9479,0.9785,1.0293,1.0113,1.0094,1.0308,1.0108,1.0099,1.0312,1.0113,1.0113,1.0327,1.0322,1.0317,1.0277,1.0531,1.0801,-0.4501,0.0,0.0,0.0,0.0,0.0,0.0,0.0,-0.7549,-0.884,-0.919,-0.9481,-1.0107,-1.0264,-1.0289,-1.0302,-1.1245,-1.2078,-1.2386,-1.2574,-1.2697,-1.276,-1.2673,-1.2342,-1.1737,-1.1468,-1.1151,-1.064,-1.0515,-1.0409,-1.0303,-1.0117,-0.9891,-0.9663,-0.8704,-0.8124,-0.7938,-0.6774,-0.6099,-0.5917,-0.5328,-0.4943,-0.4707,-0.4337,-0.3969,-0.3602,-0.3499,-0.3243,-0.2864,-0.2523,-0.1928,-0.1171,-0.0249,0.0392,0.0926,0.1515,0.1685,0.1628,0.1741,0.1797,0.1825,0.2018,0.2143,0.2352,0.3032,0.3129,0.3149,0.3941,0.3995,0.3892,0.4197,0.43,0.43,0.43,0.4624,0.514,0.5827,0.6405,0.6929,0.75,0.8137,0.8637,0.8689,0.8703,0.8703,0.8703,0.8703,0.8703,0.8703,0.8703,0.8703,0.8703,0.8897,0.9065,0.9268,0.9479,0.9785,1.0293,1.0113,1.0094,1.0308,1.0108,1.0099,1.0312,1.026,1.0331,1.0535,1.0388,1.0317,1.0327,1.0641,1.0948,-0.5707,0.0,0.0,0.0,0.0,0.0,-0.6561,-0.6637,-0.6898,-0.8378,-0.8629,-0.8769,-0.9336,-0.954,-0.9628,-0.9665,-1.0388,-1.1219,-1.1952,-1.2266,-1.2457,-1.2578,-1.2478,-1.2156,-1.1553,-1.1255,-1.0954,-1.0621,-1.0476,-1.0322,-1.0166,-1.0059,-0.9803,-0.9337,-0.8655,-0.8103,-0.7662,-0.6747,-0.6142,-0.5868,-0.5219,-0.4799,-0.4585,-0.4134,-0.3751,-0.3408,-0.3093,-0.2746,-0.2356,-0.1588,-0.1247,-0.1095,-0.0027,0.0554,0.0896,0.1519,0.172,0.1685,0.1769,0.1797,0.1853,0.21,0.2296,0.2552,0.3267,0.3418,0.3453,0.4059,0.409,0.3957,0.4159,0.4262,0.43,0.43,0.4568,0.5098,0.6002,0.6495,0.6985,0.7778,0.8268,0.8604,0.8685,0.8703,0.8703,0.8703,0.8703,0.8703,0.8703,0.8703,0.8703,0.8703,0.8812,0.8973,0.9141,0.9553,0.9899,1.0289,1.0376,1.0444,1.0569,1.0289,1.0189,1.0317,1.0227,1.0327,1.0621,1.0502,1.0493,1.0542,1.0783,1.1005,-0.7215,-0.6583,0.0,-0.7024,-0.638,0.0,-0.7445,-0.6865,-0.6445,-0.7988,-0.8058,-0.7982,-0.851,-0.8796,-0.8983,-0.9093,-0.9515,-1.022,-1.1337,-1.1883,-1.2222,-1.2363,-1.213,-1.1805,-1.1384,-1.1008,-1.0727,-1.0602,-1.0467,-1.0273,-1.0,-0.9961,-0.9587,-0.8841,-0.8655,-0.8116,-0.7203,-0.681,-0.6307,-0.568,-0.5089,-0.4626,-0.4294,-0.3877,-0.3524,-0.317,-0.2546,-0.2166,-0.1887,-0.0607,-0.0577,-0.1215,0.0026,0.049,0.0587,0.1404,0.1745,0.1797,0.1825,0.1825,0.1853,0.2184,0.2491,0.2806,0.3373,0.3662,0.383,0.4031,0.4067,0.4067,0.4067,0.4189,0.4278,0.4345,0.4501,0.4967,0.6028,0.6391,0.6869,0.8111,0.8368,0.8458,0.8637,0.8685,0.8703,0.8703,0.8703,0.8703,0.878,0.8742,0.8737,0.8818,0.8742,0.8789,0.9041,0.9587,1.0028,1.0364,1.0741,1.098,1.0972,1.0586,1.0362,1.0317,1.0104,1.0189,1.0588,1.0611,1.0693,1.0929,1.0929,1.1023,-0.6935,-0.6983,-0.72,-0.6515,-0.6635,0.0,-0.7059,-0.6897,-0.6791,-0.707,-0.69,-0.6869,-0.7337,-0.7736,-0.8097,-0.8498,-0.8992,-0.9704,-1.0733,-1.0784,-1.0789,-1.0969,-1.1036,-1.09,-1.0487,-1.0569,-1.0621,-1.0602,-1.0428,-1.0225,-1.0,-0.9646,-0.9288,-0.8967,-0.8111,-0.751,-0.7203,-0.6498,-0.5927,-0.5539,-0.5041,-0.4626,-0.4294,-0.3877,-0.3524,-0.317,-0.2455,-0.2032,-0.1748,-0.0518,-0.0147,-0.0278,0.0735,0.1116,0.1174,0.1566,0.1745,0.1825,0.2046,0.199,0.1937,0.2687,0.2828,0.2822,0.3542,0.3773,0.3813,0.39,0.3938,0.3938,0.3938,0.4029,0.4247,0.4692,0.5225,0.58,0.6461,0.6955,0.7406,0.7823,0.8174,0.8415,0.8453,0.8595,0.8703,0.8703,0.8703,0.8818,0.9132,0.8899,0.8932,0.9576,0.9079,0.8904,0.9429,0.9295,0.9669,1.08,1.0813,1.0995,1.1537,1.109,1.0676,1.0317,1.0104,1.0123,1.0379,1.054,1.0768,1.1137,1.1137,1.1156,-0.7928,-0.7895,-0.8125,-0.7827,-0.7467,0.0,0.0,-0.7356,-0.6992,-0.7541,-0.7226,-0.6994,-0.7462,-0.7609,-0.772,-0.7967,-0.8419,-0.8922,-0.9428,-0.9967,-1.0332,-1.0446,-1.0459,-1.0263,-0.9798,-0.9869,-1.0001,-1.0081,-1.0214,-1.0108,-0.9675,-0.9428,-0.8978,-0.8267,-0.7697,-0.7202,-0.6802,-0.6276,-0.5755,-0.5296,-0.4884,-0.4491,-0.41,-0.3792,-0.335,-0.2815,-0.2075,-0.1517,-0.1075,-0.0023,0.0338,0.032,0.0952,0.1213,0.1276,0.1541,0.1699,0.1784,0.1952,0.199,0.2102,0.2715,0.2912,0.3011,0.3603,0.3812,0.3783,0.3759,0.38,0.3844,0.3844,0.3979,0.4243,0.4776,0.5211,0.5719,0.6511,0.6905,0.7194,0.7565,0.7911,0.816,0.8368,0.8486,0.8585,0.8685,0.8703,0.8856,0.9246,0.9127,0.9241,0.9846,0.9539,0.9357,0.9435,0.9584,0.9933,1.0611,1.1014,1.147,1.201,1.1584,1.1034,1.0322,1.0104,1.0104,1.0317,1.0521,1.0735,1.1047,1.1146,1.1194,-0.9376,-0.9118,-0.9104,-0.9316,-0.8541,-0.7907,0.0,0.0,0.0,-0.8027,-0.7568,-0.7173,-0.7608,-0.7508,-0.7391,-0.7449,-0.7863,-0.8161,-0.815,-0.9108,-0.9817,-0.9814,-0.9753,-0.9547,-0.9166,-0.9149,-0.9247,-0.9455,-0.9641,-0.9583,-0.9195,-0.8976,-0.8459,-0.7558,-0.737,-0.6977,-0.6416,-0.6089,-0.5653,-0.5079,-0.4709,-0.4316,-0.3902,-0.3689,-0.3198,-0.246,-0.1717,-0.1049,-0.0426,0.0442,0.0709,0.0661,0.0974,0.1146,0.1234,0.1476,0.1619,0.1714,0.1899,0.2063,0.2268,0.2717,0.3023,0.3258,0.3634,0.375,0.3731,0.3638,0.3679,0.3776,0.3863,0.4049,0.4365,0.499,0.5284,0.5683,0.6638,0.6872,0.697,0.7423,0.7631,0.7873,0.8217,0.8349,0.8444,0.8566,0.8652,0.8841,0.9293,0.9334,0.9511,1.0067,0.9992,0.9809,0.9549,1.0016,1.0375,1.0476,1.1321,1.1957,1.2352,1.1989,1.1353,1.0461,1.0362,1.0299,1.0255,1.0551,1.0739,1.0901,1.1104,1.1194,-1.0725,-1.0597,-1.0491,-0.9473,-0.9624,-0.9664,-0.8326,0.0,-0.7638,-0.7178,0.0,-0.6172,-0.652,0.0,0.0,-0.6937,-0.7368,-0.7656,-0.7598,-0.7876,-0.8085,-0.8087,-0.8177,-0.8307,-0.8484,-0.8608,-0.8782,-0.9043,-0.8249,-0.8033,-0.8723,-0.7809,-0.7387,-0.766,-0.7097,-0.6645,-0.6395,-0.596,-0.5485,-0.5007,-0.4561,-0.4188,-0.3902,-0.3689,-0.3198,-0.246,-0.1717,-0.1027,-0.0358,0.0406,0.0702,0.0727,0.0987,0.1146,0.1231,0.1433,0.1583,0.1787,0.2326,0.2376,0.2352,0.3218,0.3527,0.3557,0.3599,0.3632,0.363,0.3616,0.3621,0.3713,0.4067,0.4387,0.4877,0.5817,0.6291,0.6675,0.7293,0.7423,0.7423,0.7489,0.7512,0.7603,0.7845,0.816,0.8344,0.8174,0.8467,0.8897,0.9474,0.942,0.9733,1.085,1.0331,1.003,1.0331,1.0324,1.0543,1.1145,1.175,1.2148,1.2299,1.211,1.1643,1.0945,1.1316,1.1035,1.0032,1.0647,1.0922,1.0901,1.1104,1.1194,-1.1043,-1.0891,-1.0764,-1.0073,-0.986,-0.9585,-0.8682,-0.8177,-0.7929,-0.8034,0.0,0.0,0.0,0.0,0.0,0.0,-0.6967,-0.6957,-0.6617,-0.6739,-0.7029,-0.7451,-0.7489,-0.7548,-0.7742,-0.799,-0.8287,-0.862,-0.8014,-0.7765,-0.8046,-0.7534,-0.7138,-0.6942,-0.6787,-0.656,-0.6297,-0.589,-0.5463,-0.4985,-0.4609,-0.4236,-0.388,-0.3461,-0.2835,-0.2055,-0.1318,-0.0582,0.009,0.0517,0.0697,0.072,0.1005,0.1115,0.118,0.1402,0.1532,0.1661,0.2176,0.2389,0.2565,0.334,0.3613,0.3613,0.3613,0.3774,0.3935,0.3935,0.4132,0.4405,0.4567,0.4759,0.5159,0.6006,0.6355,0.6705,0.7367,0.7489,0.7489,0.7489,0.7657,0.7816,0.791,0.7981,0.8187,0.8599,0.8657,0.8937,0.9774,0.9799,1.01,1.0981,1.0812,1.0556,1.0519,1.0458,1.0589,1.1038,1.1951,1.2458,1.2513,1.249,1.2182,1.158,1.1679,1.1266,1.0337,1.1001,1.1277,1.118,1.1068,1.1085,-1.1588,-1.1424,-1.1254,-1.0534,-0.9986,-0.9444,-0.878,-0.8387,-0.8312,-0.88,-0.8409,0.0,0.0,0.0,0.0,0.0,0.0,-0.6753,-0.6199,-0.6178,-0.6362,-0.6759,-0.6848,-0.6942,-0.709,-0.722,-0.7496,-0.7978,-0.7478,-0.722,-0.7378,-0.7111,-0.6798,-0.6468,-0.6506,-0.6437,-0.6249,-0.5847,-0.542,-0.4985,-0.4657,-0.428,-0.388,-0.3278,-0.2566,-0.1762,-0.105,-0.0314,0.0405,0.0584,0.0697,0.0787,0.1008,0.1119,0.1191,0.139,0.1486,0.1561,0.2004,0.2393,0.2796,0.3466,0.3616,0.3567,0.3707,0.3962,0.4233,0.4343,0.4649,0.4928,0.5066,0.5193,0.5511,0.6198,0.6485,0.6772,0.7381,0.7489,0.7489,0.7489,0.7689,0.7922,0.8117,0.8107,0.8303,0.8944,0.8941,0.9159,1.0016,1.0168,1.0423,1.1056,1.1111,1.0962,1.07,1.0732,1.0883,1.1171,1.1939,1.2516,1.2784,1.2788,1.2592,1.2221,1.2131,1.1663,1.0809,1.1417,1.1625,1.1456,1.1192,1.1197,-1.2801,-1.2739,-1.2325,-1.0635,-1.0182,-0.9775,-0.8266,-0.8417,-0.8875,-0.889,-0.9184,-0.9385,-0.9208,0.0,0.0,0.0,0.0,0.0,0.0,-0.6462,-0.6119,-0.5616,-0.6015,-0.6401,-0.6601,-0.628,-0.633,-0.6997,-0.6063,-0.5874,-0.6786,-0.6203,-0.6079,-0.6579,-0.6289,-0.6204,-0.6389,-0.5798,-0.5345,-0.4985,-0.4657,-0.428,-0.388,-0.3278,-0.2566,-0.1762,-0.1163,-0.0403,0.0405,0.0472,0.0652,0.0899,0.1053,0.1186,0.1299,0.1367,0.1451,0.1548,0.1888,0.2403,0.2998,0.3678,0.367,0.3507,0.403,0.4177,0.4288,0.4759,0.4897,0.5011,0.5454,0.5726,0.6029,0.665,0.6977,0.7247,0.7446,0.7489,0.7489,0.7489,0.7521,0.7722,0.8382,0.8639,0.8794,0.8906,0.923,0.9634,1.0117,1.0359,1.0657,1.1074,1.1111,1.1074,1.1074,1.1321,1.1591,1.185,1.1651,1.2,1.3047,1.283,1.2715,1.2768,1.2942,1.2458,1.1284,1.1763,1.1853,1.1581,1.1584,1.172,-1.2857,-1.2811,-1.2484,-1.1184,-1.0528,-0.9914,-0.8817,-0.874,-0.8849,-0.867,-0.8987,-0.924,-0.9048,0.0,0.0,0.0,0.0,0.0,0.0,0.0,-0.5436,-0.561,-0.5904,0.0,-0.62,-0.5795,-0.5852,-0.6614,-0.5553,-0.5267,-0.616,-0.5864,-0.5868,-0.6324,-0.6135,-0.6151,-0.6389,-0.5798,-0.5323,-0.4985,-0.4714,-0.4162,-0.3413,-0.2896,-0.2184,-0.1297,-0.0695,-0.0112,0.0405,0.0472,0.0652,0.09,0.0944,0.1099,0.1299,0.1366,0.1424,0.1539,0.233,0.2876,0.3293,0.375,0.4033,0.4191,0.4191,0.4622,0.5148,0.5317,0.5563,0.5817,0.6113,0.6251,0.6412,0.6944,0.7138,0.7247,0.7446,0.7489,0.7489,0.7489,0.7689,0.7987,0.842,0.8898,0.9293,0.9533,0.9474,0.9701,1.0426,1.0586,1.0735,1.1056,1.1111,1.1111,1.1111,1.1196,1.1254,1.1339,1.1441,1.1808,1.256,1.2662,1.2793,1.2981,1.3081,1.2677,1.1757,1.2229,1.2368,1.2143,1.2085,1.2059,-1.2782,-1.269,-1.2435,-1.1322,-1.0721,-1.0199,-0.9407,-0.9379,-0.9499,-0.932,-0.9564,-0.9793,-0.9758,-0.9263,0.0,0.0,0.0,0.0,0.0,-0.5391,-0.5297,-0.5599,0.0,0.0,0.0,-0.5331,-0.5389,-0.6061,-0.5306,-0.5118,-0.5822,-0.5695,-0.5715,-0.5938,-0.5826,-0.5885,-0.6154,-0.5669,-0.5285,-0.4985,-0.46,-0.4005,-0.317,-0.2586,-0.1897,-0.1141,-0.0539,-0.0045,0.0337,0.0427,0.0674,0.0965,0.0921,0.1077,0.1344,0.1366,0.1477,0.1773,0.2687,0.3215,0.3593,0.4085,0.4429,0.4636,0.4685,0.512,0.5622,0.5759,0.606,0.6341,0.6468,0.6558,0.6704,0.7109,0.719,0.7247,0.7446,0.7489,0.7489,0.7489,0.7689,0.8012,0.8559,0.8959,0.9422,0.996,0.9947,1.0084,1.0767,1.0821,1.0924,1.1093,1.1111,1.1111,1.1111,1.1111,1.1111,1.1111,1.1242,1.1621,1.2288,1.2475,1.2741,1.3071,1.3083,1.2808,1.2229,1.2528,1.2623,1.249,1.2539,1.2443]},{"header":{"parameterUnit":"m.s-1","parameterCategory":1,"la1":30.6,"la2":29.2853,"lo1":-89.7004,"lo2":-87.6739,"dy":0.0162,"dx":0.0183,"nx":112,"ny":82,"refTime":"2026-05-12T00:00:00:Z","depth":0,"parameterNumber":3,"parameterNumberName":"V-component_of_WINDS"},"data":[0.0,0.0,0.0,0.0,0.0,0.0,0.0,0.0,0.0,0.0,0.0,0.0,0.0,0.0,0.0,0.0,0.0,0.0,0.0,0.0,0.0,0.0,0.0,0.0,0.0,0.0,0.0,0.0,0.0,0.0,0.0,0.0,0.0,0.0,0.0,0.0,0.0,0.0,0.0,0.0,0.0,0.0,0.0,0.0,0.0,0.0,0.0,0.0,0.0,0.0,0.0,0.0,0.0,0.0,0.0,0.0,0.0,0.0,0.0,0.0,0.0,0.0,0.0,0.0,0.0,0.0,0.0,0.0,0.0,0.0,0.0,0.0,0.0,0.0,0.0,0.0,0.0,0.0,0.0,0.0,0.0,0.0,0.0,0.0,0.0,0.0,0.0,0.0,0.0,0.0,1.2142,1.6428,1.8935,2.0009,1.9245,1.9808,1.9173,1.6734,0.0,0.0,0.0,0.0,0.0,0.0,0.0,0.0,0.0,0.0,0.0,0.0,0.0,0.0,0.0,0.0,0.0,0.0,0.0,0.0,0.0,0.0,0.0,0.0,0.0,0.0,0.0,0.0,0.0,0.0,0.0,0.0,0.0,0.0,0.0,0.0,0.0,0.0,0.0,0.0,0.0,0.0,0.0,0.0,0.0,0.0,0.0,0.0,0.0,0.0,0.0,0.0,0.0,0.0,0.0,0.0,0.0,0.0,0.0,0.0,0.0,0.0,0.0,0.0,0.0,0.0,0.0,0.0,0.0,0.0,0.0,0.0,0.0,0.0,0.0,0.0,0.0,0.0,0.0,0.0,0.0,0.0,0.0,0.0,0.0,0.0,0.0,0.0,0.0,0.0,0.0,0.0,0.0,0.0,0.0,0.0,0.0,0.0,0.0,0.0,0.0,0.0,0.0,0.0,1.3932,1.8166,1.9622,2.0218,2.0027,2.0123,1.9408,1.7535,0.0,0.0,0.0,0.0,0.0,0.0,0.0,0.0,0.0,0.0,0.0,0.0,0.0,0.0,0.0,0.0,0.0,0.0,0.0,0.0,0.0,0.0,0.0,0.0,0.0,0.0,0.0,0.0,0.0,0.0,0.0,0.0,0.0,0.0,0.0,0.0,0.0,0.0,0.0,0.0,0.0,0.0,0.0,0.0,0.0,0.0,0.0,0.0,0.0,0.0,0.0,0.0,0.0,0.0,0.0,0.0,0.0,0.0,0.0,0.0,0.0,0.0,0.0,0.0,0.0,0.0,0.0,0.0,0.0,0.0,0.0,0.0,0.0,0.0,0.0,0.0,0.0,0.0,0.0,0.0,0.0,0.0,0.0,0.0,0.0,0.0,0.0,0.0,0.0,0.0,0.0,0.0,0.0,0.0,0.0,0.0,0.0,0.0,0.0,0.0,0.0,0.0,0.0,1.374,1.5883,1.8647,1.9738,2.0212,2.0146,2.0152,1.9426,1.771,1.6027,0.0,0.0,0.0,0.0,0.0,0.0,0.0,0.0,0.0,0.0,0.0,0.0,0.0,0.0,0.0,0.0,0.0,0.0,0.0,0.0,0.0,0.0,0.0,0.0,0.0,0.0,0.0,0.0,0.0,0.0,0.0,0.0,0.0,0.0,0.0,0.0,0.0,0.0,0.0,0.0,0.0,0.0,0.0,0.0,0.0,0.0,0.0,0.0,0.0,0.0,0.0,0.0,0.0,0.0,0.0,0.0,0.0,0.0,0.0,0.0,0.0,0.0,0.0,0.0,0.0,0.0,0.0,0.0,0.0,0.0,0.0,0.0,0.0,0.0,0.0,0.0,0.0,0.0,0.0,0.0,0.0,0.0,0.0,0.0,0.0,0.0,0.0,0.0,0.0,0.0,0.0,0.0,0.0,0.0,0.0,0.0,0.0,0.0,0.0,0.0,0.0,0.0,1.6132,1.744,1.9007,1.9777,2.015,2.0098,1.9917,1.9163,1.7695,1.5829,0.0,0.0,0.0,0.0,0.0,0.0,0.0,0.0,0.0,0.0,0.0,0.0,0.0,0.0,0.0,0.0,0.0,0.0,0.0,0.0,0.0,0.0,0.0,0.0,0.0,0.0,0.0,0.0,0.0,0.0,0.0,0.0,0.0,0.0,0.0,0.0,0.0,0.0,0.0,0.0,0.0,0.0,0.0,0.0,0.0,0.0,0.0,0.0,0.0,0.0,0.0,0.0,0.0,0.0,0.0,0.0,0.0,0.0,0.0,0.0,0.0,0.0,0.0,0.0,0.0,0.0,0.0,0.0,0.0,0.0,0.0,0.0,0.0,0.0,0.0,0.0,0.0,0.0,0.0,0.0,0.0,0.0,0.0,0.0,0.0,0.0,0.0,0.0,0.0,0.0,0.0,0.0,0.0,0.0,0.0,0.0,0.0,0.0,0.0,0.0,0.0,0.0,1.656,1.817,1.9845,2.006,2.0117,2.0093,1.9364,1.8511,1.7657,1.5262,0.0,0.0,0.0,0.0,0.0,0.0,0.0,0.0,0.0,0.0,0.0,0.0,0.0,0.0,0.0,0.0,0.0,0.0,0.0,0.0,0.0,0.0,0.0,0.0,0.0,0.0,0.0,0.0,0.0,0.0,0.0,0.0,0.0,0.0,0.0,0.0,0.0,0.0,0.0,0.0,0.0,0.0,0.0,0.0,0.0,0.0,0.0,0.0,0.0,0.0,0.0,0.0,0.0,0.0,0.0,0.0,0.0,0.0,0.0,0.0,0.0,0.0,0.0,0.0,0.0,0.0,0.0,0.0,0.0,0.0,0.0,0.0,0.0,0.0,0.0,0.0,0.0,0.0,0.0,0.0,0.0,0.0,0.0,0.0,0.0,0.0,0.0,0.0,0.0,0.0,0.0,0.0,0.0,0.0,0.0,0.0,0.0,0.0,0.0,0.0,0.0,0.0,1.6205,1.7734,0.0,2.0148,2.0156,2.0098,1.9344,1.851,1.7644,0.0,0.0,0.0,0.0,0.0,0.0,0.0,0.0,0.0,0.0,0.0,0.0,0.0,0.0,0.0,0.0,0.0,0.0,0.0,0.0,0.0,0.0,0.0,0.0,0.0,0.0,0.0,0.0,0.0,0.0,0.0,0.0,0.0,0.0,0.0,0.0,0.0,0.0,0.0,0.0,0.0,0.0,0.0,0.0,0.0,0.0,0.0,0.0,0.0,0.0,0.0,0.0,0.0,0.0,0.0,0.0,0.0,0.0,0.0,0.0,0.0,0.0,0.0,0.0,0.0,0.0,0.0,0.0,0.0,0.0,0.0,0.0,0.0,0.0,0.0,0.0,0.0,0.0,0.0,0.0,0.0,0.0,0.0,0.0,0.0,0.0,0.0,0.0,0.0,0.0,0.0,0.0,0.0,0.0,0.0,0.0,0.0,0.0,0.0,0.0,0.0,0.0,1.4877,1.6172,1.7683,0.0,2.0133,2.0142,2.0098,1.9104,1.8236,1.7644,0.0,0.0,0.0,0.0,0.0,0.0,0.0,0.0,0.0,0.0,0.0,0.0,0.0,0.0,0.0,0.0,0.0,0.0,0.0,0.0,0.0,0.0,0.0,0.0,0.0,0.0,0.0,0.0,0.0,0.0,0.0,0.0,0.0,0.0,0.0,0.0,0.0,0.0,0.0,0.0,0.0,0.0,0.0,0.0,0.0,0.0,0.0,0.0,0.0,0.0,0.0,0.0,0.0,0.0,0.0,0.0,0.0,0.0,0.0,0.0,0.0,0.0,0.0,0.0,0.0,0.0,0.0,0.0,0.0,0.0,0.0,0.0,0.0,0.0,0.0,0.0,0.0,0.0,0.0,0.0,0.0,0.0,0.0,0.0,0.0,0.0,0.0,0.0,0.0,0.0,0.0,0.0,0.0,0.0,0.0,0.0,0.0,0.0,0.0,0.0,0.0,0.0,1.4877,1.6607,1.8249,1.9921,2.0093,2.0093,2.0093,1.8555,1.7591,0.0,0.0,0.0,0.0,0.0,0.0,0.0,0.0,0.0,0.0,0.0,0.0,0.0,0.0,0.0,0.0,0.0,0.0,0.0,0.0,0.0,0.0,0.0,0.0,0.0,0.0,0.0,0.0,0.0,0.0,0.0,0.0,0.0,0.0,0.0,0.0,0.0,0.0,0.0,0.0,0.0,0.0,0.0,0.0,0.0,0.0,0.0,0.0,0.0,0.0,0.0,0.0,0.0,0.0,0.0,0.0,0.0,0.0,0.0,0.0,0.0,0.0,0.0,0.0,0.0,0.0,0.0,0.0,0.0,0.0,0.0,0.0,0.0,0.0,0.0,0.0,0.0,0.0,0.0,0.0,0.0,0.0,0.0,0.0,0.0,0.0,0.0,0.0,0.0,0.0,0.0,0.0,0.0,0.0,0.0,0.0,0.0,0.0,0.0,0.0,0.0,0.0,0.0,1.4877,1.6607,1.8249,1.9921,2.0093,2.0093,2.0093,1.8555,1.7606,1.7606,0.0,0.0,0.0,0.0,0.0,0.0,0.0,0.0,0.0,0.0,0.0,0.0,0.0,0.0,0.0,0.0,0.0,0.0,0.0,0.0,0.0,0.0,0.0,0.0,0.0,0.0,0.0,0.0,0.0,0.0,0.0,0.0,0.0,0.0,0.0,0.0,0.0,0.0,0.0,0.0,0.0,0.0,0.0,0.0,0.0,0.0,0.0,0.0,0.0,0.0,0.0,0.0,0.0,0.0,0.0,0.0,0.0,0.0,0.0,0.0,0.0,0.0,0.0,0.0,0.0,0.0,0.0,0.0,0.0,0.0,0.0,0.0,0.0,0.0,0.0,0.0,0.0,0.0,0.0,0.0,0.0,0.0,0.0,0.0,0.0,0.0,0.0,0.0,0.0,0.0,0.0,0.0,0.0,0.0,0.0,0.0,0.0,0.0,0.0,0.0,0.0,0.0,1.4877,1.6607,1.8249,1.9921,2.0093,2.0093,2.0093,1.8555,1.7606,1.761,0.0,0.0,0.0,0.0,0.0,0.0,0.0,0.0,0.0,0.0,0.0,0.0,0.0,0.0,0.0,0.0,0.0,0.0,0.0,0.0,0.0,0.0,0.0,0.0,0.0,0.0,0.0,0.0,0.0,0.0,0.0,0.0,0.0,0.0,0.0,0.0,0.0,0.0,0.0,0.0,0.0,0.0,0.0,0.0,0.0,0.0,0.0,0.0,0.0,0.0,0.0,0.0,0.0,0.0,0.0,0.0,0.0,0.0,0.0,0.0,0.0,0.0,0.0,0.0,0.0,0.0,0.0,0.0,0.0,0.0,0.0,0.0,0.0,0.0,0.0,0.0,0.0,0.0,0.0,0.0,0.0,0.0,0.0,0.0,0.0,0.0,0.0,0.0,0.0,0.0,0.0,0.0,0.0,0.0,0.0,0.0,0.0,0.0,0.0,0.0,0.0,0.0,1.4995,1.6725,1.833,1.9935,2.0098,2.0098,2.0107,1.8635,1.7687,1.7604,0.0,0.0,0.0,0.0,0.0,0.0,0.0,0.0,0.0,0.0,0.0,0.0,0.0,0.0,0.0,0.0,0.0,0.0,0.0,0.0,0.0,0.0,0.0,0.0,0.0,0.0,0.0,0.0,0.0,0.0,0.0,0.0,0.0,0.0,0.0,0.0,0.0,0.0,0.0,0.0,0.0,0.0,0.0,0.0,0.0,0.0,0.0,0.0,0.0,0.0,0.0,0.0,0.0,0.0,0.0,0.0,0.0,0.0,0.0,0.0,1.3223,1.2441,0.0,0.0,0.0,0.0,0.0,0.0,0.0,0.0,0.0,0.0,0.0,0.0,0.0,0.0,0.0,0.0,0.0,0.0,0.0,0.0,0.0,0.0,0.0,0.0,0.0,0.0,0.0,0.0,0.0,0.0,0.0,0.0,0.0,0.0,0.0,0.0,0.0,0.0,0.0,0.0,1.5893,1.7631,1.902,2.006,2.0139,2.0121,2.0175,1.9224,1.8336,1.7638,1.5628,0.0,0.0,0.0,0.0,0.0,0.0,0.0,0.0,0.0,0.0,0.0,0.0,0.0,0.0,0.0,0.0,0.0,0.0,0.0,0.0,0.0,0.0,0.0,0.0,0.0,0.0,0.0,0.0,0.0,0.0,0.0,0.0,0.0,0.0,0.0,0.0,0.0,0.0,0.0,0.0,0.0,0.0,0.0,0.0,0.0,0.0,0.0,0.0,0.0,0.0,0.0,0.0,0.0,0.0,0.0,0.0,0.0,0.0,0.0,1.5017,1.4336,0.0,0.0,0.0,0.0,0.0,0.0,0.0,0.0,0.0,0.0,0.0,0.0,0.0,0.0,0.0,0.0,0.0,0.0,0.0,0.0,0.0,0.0,0.0,0.0,0.0,0.0,0.0,0.0,0.0,0.0,0.0,0.0,0.0,0.0,0.0,0.0,0.0,0.0,0.0,0.0,1.6314,1.7973,1.9326,2.0168,2.0196,2.0159,2.0204,1.9409,1.8694,1.821,1.6177,0.0,0.0,0.0,0.0,0.0,0.0,0.0,0.0,0.0,0.0,0.0,0.0,0.0,0.0,0.0,0.0,0.0,0.0,0.0,0.0,0.0,0.0,0.0,0.0,0.0,0.0,0.0,0.0,0.0,0.0,0.0,0.0,0.0,0.0,0.0,0.0,0.0,0.0,0.0,0.0,0.0,0.0,0.0,0.0,0.0,0.0,0.0,0.0,0.0,0.0,0.0,0.0,0.0,1.5586,1.6521,1.72,1.7539,1.8069,1.8636,1.7301,1.6795,1.6836,1.5547,0.0,0.0,0.0,0.0,0.0,0.0,0.0,0.0,0.0,0.0,0.0,0.0,0.0,0.0,0.0,0.0,0.0,0.0,0.0,0.0,0.0,0.0,1.8884,1.8892,1.9395,1.9507,1.8102,0.0,0.0,0.0,0.0,0.0,0.0,0.0,0.0,0.0,0.0,0.0,1.6904,1.8365,1.9563,2.0243,2.0259,2.0212,2.0212,1.9545,1.9037,1.8825,1.6825,1.5304,0.0,0.0,0.0,0.0,0.0,0.0,0.0,0.0,0.0,0.0,0.0,0.0,0.0,0.0,0.0,0.0,0.0,0.0,0.0,0.0,0.0,0.0,0.0,0.0,0.0,0.0,0.0,0.0,0.0,0.0,0.0,0.0,0.6225,0.7446,0.0,0.0,0.0,0.0,0.0,0.0,0.0,0.0,0.0,0.0,0.0,0.0,0.0,1.3656,1.3741,1.5367,1.6162,1.6187,1.8509,1.9726,1.9937,2.1396,2.2158,2.2297,2.2099,0.0,1.7861,1.8398,0.0,0.0,0.0,0.0,0.0,0.0,0.0,0.0,0.0,0.0,0.0,0.0,0.0,0.0,0.0,0.0,0.0,0.0,0.0,0.0,0.0,0.0,2.2429,2.2429,2.2503,2.2536,2.2302,1.9332,1.6636,1.6399,1.5739,1.4883,0.0,0.0,0.0,0.0,0.0,0.0,1.8578,1.9563,2.0194,2.0364,2.0332,2.0289,2.0289,2.0127,1.9702,1.8937,1.8511,1.7917,1.7056,1.5497,0.0,0.0,0.0,0.0,0.0,0.0,0.0,0.0,0.0,0.0,0.0,0.0,0.0,0.0,0.0,0.0,0.0,0.0,0.0,0.0,0.0,0.0,0.0,0.0,0.0,0.0,0.0,0.0,0.0,0.7588,0.7645,0.711,0.7726,0.756,0.0,0.0,0.0,0.0,0.0,0.0,0.0,0.0,0.0,1.3643,1.4268,1.5044,1.6028,1.7282,1.8152,1.8652,2.0235,2.1255,2.1775,2.2508,2.2859,2.2917,2.3443,2.2566,2.0754,2.0678,2.0205,1.9428,0.0,0.0,0.0,0.0,1.8223,1.8317,1.9352,1.968,1.9616,1.9616,0.0,0.0,0.0,0.0,0.0,0.0,0.0,2.0899,2.1683,2.2497,2.3095,2.3098,2.3095,2.3109,2.3109,2.1621,2.0013,1.9026,1.8135,1.6947,1.5099,1.5614,0.0,0.0,0.0,1.833,1.905,1.9891,2.0413,2.0455,2.0395,2.0347,2.0305,2.0237,1.999,1.955,1.9069,1.8607,1.8189,1.7046,1.5786,0.0,0.0,0.0,0.0,0.0,0.0,0.0,0.0,0.0,0.0,0.0,0.0,0.0,0.0,0.0,0.0,0.0,0.0,0.0,0.0,0.0,0.0,0.0,0.0,0.0,0.0,0.0,0.0,0.7945,0.8938,0.7337,0.7173,0.7461,0.0,0.0,0.0,0.0,0.0,0.0,1.176,1.2745,1.3769,1.4673,1.5564,1.6632,1.7937,1.9081,1.9981,2.0627,2.1673,2.2504,2.3144,2.3355,2.3437,2.3478,2.4184,2.4122,2.3478,2.2668,2.2218,2.1915,2.0669,2.0161,2.0242,2.0893,2.0753,2.0527,2.2421,2.2676,2.2225,2.2457,2.2395,2.2136,2.1705,0.0,0.0,0.0,0.0,2.3186,2.346,2.3827,2.4096,2.4098,2.3938,2.378,2.378,2.3598,2.2983,2.1464,2.0649,1.9518,1.7333,1.8087,0.0,1.7222,1.8647,1.9954,2.0169,2.0576,2.083,2.083,2.0591,2.0391,2.0308,2.0252,2.016,2.0021,1.9459,1.9068,1.9032,1.8245,1.7127,1.5677,0.0,0.0,0.0,0.0,0.0,0.0,0.0,0.0,0.0,0.0,0.0,0.0,0.0,0.0,0.0,0.0,0.0,0.0,0.0,0.0,0.0,0.0,0.0,0.0,0.0,0.0,0.0,0.0,0.0,0.857,0.859,0.0,0.0,0.0,0.0,0.8729,1.1,1.2708,1.3357,1.4987,1.6285,1.7093,1.8041,1.8564,1.8645,2.0454,2.1393,2.1451,2.3154,2.3995,2.4052,2.4832,2.5173,2.5173,2.5216,2.526,2.5209,2.4418,2.3616,2.2922,2.2845,2.2812,2.2804,2.2863,2.2851,2.2822,2.2958,2.2984,2.3095,2.3976,2.3711,2.3194,2.397,2.3637,0.0,0.0,2.6079,2.6938,2.7756,2.7386,2.6799,2.6792,2.6166,2.5562,2.5562,2.4913,2.4064,2.3142,2.2939,2.2601,2.1646,0.0,2.1589,2.1492,2.1589,2.1979,2.2798,2.2213,2.1726,2.1726,2.0984,2.0445,2.0314,2.0299,2.0246,2.0103,1.9997,1.9934,1.9922,1.9094,1.824,1.7388,1.5772,0.0,0.0,0.0,0.0,0.0,0.0,0.0,0.0,0.0,0.0,0.0,0.0,0.0,0.0,0.0,0.0,0.0,0.0,0.0,0.0,0.0,0.0,0.0,0.0,0.0,0.0,0.0,0.0,0.7906,0.8708,0.0,0.8914,1.0358,1.163,1.2345,1.4238,1.5453,1.5679,1.633,1.7088,1.7973,1.8324,1.9114,2.0358,2.1042,2.1957,2.3112,2.3736,2.4303,2.4821,2.5143,2.5302,2.5302,2.5298,2.562,2.614,2.5863,2.56,2.5337,2.4752,2.4904,2.5456,2.5446,2.5464,2.5582,2.6091,2.5939,2.5652,2.6601,2.7087,2.7334,2.7646,2.7526,2.7309,2.7366,2.76,2.7913,2.8225,2.8069,2.7835,2.7831,2.7597,2.7227,2.6661,2.6285,2.581,2.4932,2.3868,2.2825,2.1948,2.2275,2.2447,2.1882,2.2271,2.2759,2.307,2.2837,2.2642,2.2642,2.1862,2.1286,2.1143,2.0611,2.0219,2.005,2.001,2.0003,2.001,1.969,1.8889,1.752,1.6919,1.5104,0.0,0.0,0.0,0.0,0.0,0.0,0.0,0.0,0.0,0.0,0.0,0.0,0.0,0.0,0.0,0.0,0.0,0.0,0.0,0.0,0.0,0.0,0.0,0.0,0.0,0.0,0.9768,0.8655,0.9692,1.0514,1.0511,1.1714,1.2946,1.4004,1.538,1.6366,1.6872,1.7204,1.778,1.8684,1.9004,1.9794,2.1079,2.1732,2.2638,2.3824,2.4121,2.4553,2.5074,2.5151,2.5198,2.5204,2.5268,2.5798,2.661,2.6596,2.6949,2.7427,2.6579,2.6633,2.7207,2.7199,2.7226,2.736,2.789,2.7736,2.741,2.8035,2.8632,2.9139,2.9139,2.9349,2.9477,2.8909,2.8928,2.9141,2.9141,2.8947,2.8732,2.8732,2.8518,2.8147,2.7562,2.7441,2.7184,2.6308,2.4971,2.3788,2.322,2.3584,2.3774,2.3207,2.3614,2.3984,2.3984,2.3712,2.3536,2.3536,2.2759,2.2072,2.1662,2.1072,2.0538,2.005,2.0015,2.0001,1.9993,2.0007,1.9211,1.752,1.6938,1.5559,1.3349,0.0,0.0,0.0,0.0,0.0,0.0,0.0,0.0,0.0,0.0,0.0,0.0,0.0,0.0,0.0,0.0,0.0,0.0,0.0,0.0,0.0,0.0,0.0,0.8536,0.9894,1.0908,1.0905,1.1622,1.2137,1.2173,1.2905,1.3382,1.344,1.4164,1.5307,1.6883,1.7716,1.8488,1.9264,2.0202,2.0714,2.074,2.2563,2.3497,2.3542,2.4391,2.4797,2.4804,2.4942,2.5,2.5006,2.5248,2.583,2.6642,2.6668,2.764,2.905,2.8244,2.7995,2.8063,2.8063,2.8081,2.8068,2.8053,2.8105,2.8181,2.8178,2.8238,2.8329,2.8316,2.8964,2.9676,2.9653,3.0196,3.08,3.08,3.0216,2.9631,2.9631,2.8986,2.8362,2.8342,2.8342,2.8088,2.7211,2.6363,2.5765,2.5715,2.5692,2.5708,2.5701,2.5699,0.0,2.5699,2.4959,2.4432,2.4432,2.3653,2.2764,2.1864,2.1661,2.1185,2.0201,2.0055,2.0001,1.9993,2.0007,1.9211,1.7577,1.5885,1.5036,1.5036,0.0,0.0,0.0,0.0,0.0,0.0,0.0,0.0,0.0,0.0,0.0,0.0,0.0,0.0,0.0,0.0,0.0,0.0,0.0,0.0,0.0,0.905,0.9892,0.9367,1.0184,1.0839,1.083,1.2051,1.3125,1.3704,1.4502,1.5445,1.6621,1.6906,1.749,1.8505,1.8771,1.9008,1.9208,2.0034,2.0827,2.1564,2.2659,2.3601,2.4377,2.4599,2.4719,2.4727,2.4914,2.5006,2.5057,2.5874,2.6718,2.7511,2.8154,2.9063,2.9967,2.9094,2.9173,2.9745,2.9745,2.9776,2.9747,2.921,2.9407,2.9923,2.9975,3.0427,3.0963,3.1004,3.1209,3.1289,3.0715,3.0668,3.08,3.08,3.0645,3.047,3.047,3.0294,2.9943,2.9377,2.9241,2.8987,2.8108,2.7754,2.7182,2.5921,2.5697,2.5708,2.5701,2.5699,2.5699,2.5699,2.5485,2.5348,2.5348,2.4569,2.3912,2.3619,2.2362,2.1439,2.1063,2.0389,2.0001,1.9993,2.0007,1.9495,1.8391,1.6719,1.5871,0.0,0.0,0.0,0.0,0.0,0.0,0.0,0.0,0.0,0.0,0.0,0.0,0.0,0.0,0.0,0.0,0.0,0.0,0.0,0.0,0.0,0.0,0.9909,1.0702,1.0328,1.1111,1.1717,1.1717,1.317,1.4205,1.435,1.5418,1.636,1.6958,1.7308,1.7854,1.8646,1.8994,1.9314,1.9659,2.0434,2.1323,2.2276,2.3095,2.3858,2.4488,2.4488,2.4488,2.4497,2.4662,2.4926,2.5292,2.6006,2.7026,2.8224,2.874,2.9543,3.0346,0.0,0.0,0.0,0.0,3.0471,3.0448,3.0042,3.0207,3.0611,3.0658,3.0992,3.142,3.1469,3.1503,3.1463,3.0996,3.1088,3.1272,3.0922,3.1095,3.125,3.0898,3.08,3.0664,3.0196,3.0099,2.9845,2.9006,2.883,0.0,2.7022,2.6487,2.6242,2.6207,2.5913,2.5699,2.5699,2.5699,2.5699,2.5699,2.5251,2.4775,2.4384,2.3308,0.0,0.0,0.0,2.0386,2.0012,1.9647,0.0,0.0,0.0,0.0,0.0,0.0,0.0,0.0,1.5926,1.6506,0.0,0.0,0.0,0.0,0.0,0.0,0.0,0.0,0.0,0.0,0.0,0.0,0.0,0.0,0.0,0.0,1.0406,1.1034,1.1148,1.229,1.3131,1.3086,1.4569,1.5266,1.4472,1.5827,1.6443,1.573,1.6334,1.7183,1.8185,1.8863,0.0,0.0,0.0,2.2007,2.2784,2.3644,2.4103,2.418,2.418,2.419,2.4199,2.4347,2.4835,2.5625,2.5908,2.7039,2.8673,2.8839,2.9486,3.0367,3.0398,3.0402,3.0417,3.0471,3.0491,3.0515,3.0588,0.0,0.0,3.0714,3.0675,3.0625,3.0723,3.0767,3.0785,3.0794,3.1367,3.1788,3.1084,3.1411,3.1758,3.0976,3.08,3.08,3.08,3.08,3.0587,2.9866,2.9749,2.9493,2.8724,2.7702,2.697,2.6911,2.6227,2.5701,2.5699,2.5699,2.5699,2.5699,2.5699,0.0,2.4608,2.4299,2.345,2.1894,2.157,2.1083,2.0316,1.9533,1.9495,2.0278,1.9514,1.9855,2.1358,2.1358,2.1737,2.2419,1.9267,1.8565,0.0,0.0,0.0,0.0,0.0,0.0,0.0,0.0,0.0,0.0,0.0,0.0,0.0,0.0,0.0,0.8594,0.9985,1.0985,1.0958,1.2697,1.3863,1.3606,1.5043,1.5778,1.5026,1.588,1.6368,1.6094,1.6334,1.7415,1.9579,1.9831,2.0327,2.1233,2.2048,2.2549,2.2726,2.3527,2.3996,2.4113,2.4113,0.0,2.4199,2.4347,2.4835,2.5643,2.6551,2.7514,2.8519,2.928,2.9825,3.0182,3.0343,3.041,3.0402,3.0488,3.0509,3.0514,3.0583,3.0598,3.0714,3.1366,3.1129,3.074,3.1449,3.1187,0.0,3.0762,3.0915,3.1035,3.0931,3.0982,3.1015,3.0839,3.08,3.08,3.08,3.08,3.0742,3.0606,3.0567,3.0505,3.0356,2.8463,2.6999,2.6983,2.6258,2.5707,2.5699,2.5699,2.5699,2.5699,2.5699,2.5621,2.5465,2.4718,2.4064,2.3636,2.2759,2.2179,2.2021,2.1851,2.1832,2.2002,2.1851,2.1926,2.2249,2.2249,2.2343,2.2476,2.1808,2.1632,0.0,0.0,0.0,0.0,0.0,0.0,0.0,0.0,0.0,0.0,0.0,0.7774,0.8517,0.0,0.9396,0.9703,1.079,1.1477,1.1097,1.2667,1.388,1.3939,1.5406,1.6107,1.5312,1.5767,1.6247,1.6615,1.642,1.7372,1.9872,2.0063,2.0686,2.1968,2.2452,2.2892,2.3307,2.3707,2.3937,2.4054,2.4084,2.4113,2.4161,2.4247,2.4968,2.614,2.6674,2.7671,2.8951,2.9588,2.9954,3.0115,3.0202,3.0311,3.041,3.0442,3.0469,3.0509,3.0545,3.0835,3.1197,3.1197,3.1197,3.1207,3.1233,3.0956,3.0601,3.0682,3.1067,3.1363,3.0957,3.1148,3.1351,3.0943,3.0822,3.08,3.08,3.08,3.08,3.08,3.08,3.0799,3.0792,2.9408,2.8136,2.7661,2.6881,2.6197,2.5759,2.5699,2.5699,2.5699,2.5699,2.5699,2.5699,2.4788,2.4134,2.4015,2.3067,2.2495,2.2495,2.2495,2.2495,2.2495,2.2495,2.2703,2.3101,2.3101,2.331,2.3752,2.3752,2.3525,0.0,0.0,0.0,0.0,0.0,0.0,0.0,0.0,0.7745,0.7582,0.8364,0.9284,0.9947,1.0498,1.0874,1.0881,1.1487,1.1773,1.1252,1.2598,1.3802,1.4195,1.5587,1.625,1.5602,1.577,1.6203,1.6873,1.656,1.7416,1.9883,2.0174,2.1032,2.2678,2.2844,2.3216,2.3868,2.3886,2.3917,2.3986,2.4054,2.4084,2.4103,2.417,2.5089,2.662,2.6932,2.7941,2.9378,2.967,2.9907,3.0066,3.0095,3.0215,3.041,3.04,3.0439,3.0504,3.0505,3.098,3.1483,3.0984,3.1178,3.1483,3.0984,3.0729,3.0595,3.059,3.1196,3.1665,3.0984,3.1328,3.1707,3.1044,3.0845,3.08,3.08,3.08,3.08,3.08,3.08,3.08,3.0799,3.0254,2.9524,2.8595,2.7622,2.6747,2.6032,2.5796,2.5699,2.5699,2.5699,2.5697,2.5673,2.4856,2.4287,2.4183,2.3427,2.2994,2.2994,2.2994,2.2994,2.2994,2.2994,2.3291,2.3954,2.3954,2.4321,2.5003,2.5003,2.4624,0.5924,0.6074,0.6673,0.7816,0.7467,0.7394,0.0,0.0,0.8116,0.9257,0.9653,0.9808,0.9901,0.9977,1.0055,1.0109,1.0689,1.1124,1.1109,1.2907,1.4241,1.4357,1.5429,1.6119,1.6026,1.621,1.6313,1.6298,1.6622,1.7873,2.0308,2.0735,2.1722,2.3509,2.3585,2.3656,2.3806,2.3806,2.3837,2.3907,2.3986,2.4036,2.4103,2.417,2.5089,2.6675,2.8106,2.8912,2.9235,2.9378,2.9634,2.9918,3.0052,3.0215,3.041,3.04,3.0439,3.0504,3.0505,3.0593,3.0849,3.1463,3.1236,3.0849,3.1483,3.1163,3.0595,3.0595,3.0717,3.0856,3.0805,3.0918,3.1005,3.0927,3.0845,3.08,3.08,3.08,3.08,3.08,3.08,3.0799,3.0795,3.0735,3.0362,2.9492,2.8008,2.6949,2.6792,2.6147,2.5699,2.5699,2.5699,2.5671,2.5615,2.5335,2.5152,2.5144,2.4878,2.4719,2.4719,2.4719,2.4719,2.4719,2.4719,2.4757,2.4852,2.4852,2.4908,2.5003,2.5003,2.4946,0.7819,0.7963,0.8156,0.0,0.9007,0.9017,0.9442,0.948,0.948,0.9703,1.0352,1.0782,1.0436,1.0649,1.0907,0.0,1.1262,1.164,1.2135,1.3321,1.4304,1.4754,1.5605,1.6193,1.627,1.6072,1.6147,1.6641,1.711,1.8255,2.0281,2.1148,2.2167,2.3429,2.3623,2.3703,2.3747,2.3792,2.3816,2.3837,2.3907,2.3986,2.4054,2.4608,2.5748,2.7365,2.8555,2.91,2.92,2.9299,2.9561,2.9913,2.9954,3.0142,3.0404,3.0402,3.0442,3.0504,3.0495,3.0854,3.1275,3.1139,3.1197,3.1275,3.1139,3.0868,3.0607,3.0608,3.0625,3.0661,3.0712,3.0791,3.0859,3.0894,3.0847,3.08,3.08,3.08,3.08,3.08,3.08,3.08,3.0798,3.0795,3.0672,3.0313,2.8805,2.7509,2.6965,2.6205,2.5699,2.5699,2.5699,2.5665,2.5604,2.5414,2.5278,2.5248,2.5095,2.5003,2.5003,2.5003,2.5003,2.5003,2.5458,2.5705,2.5705,2.6216,2.6444,2.6444,2.6444,2.6444,0.8531,0.8851,0.0,0.9515,0.9999,1.0218,0.9608,1.0035,1.0443,1.0011,1.0665,1.1127,1.0519,1.0745,1.1133,1.1389,1.1461,1.1835,1.2799,1.3543,1.425,1.4986,1.5725,1.6207,1.6316,1.6025,1.6108,1.6805,1.742,1.8471,2.0077,2.1224,2.2277,2.323,2.3522,2.3656,2.37,2.3771,2.3806,2.3806,2.3876,2.4054,2.4361,2.5484,2.6646,2.7853,2.8695,2.9112,2.92,2.9251,2.9513,2.9902,2.9902,3.0111,3.0404,3.0404,3.0419,3.0474,3.0479,3.0916,3.1357,3.0786,3.0984,3.1366,3.0772,3.0598,3.0598,3.0598,3.061,3.0614,3.0677,3.0752,3.0818,3.0877,3.0869,3.0822,3.0801,3.08,3.08,3.08,3.08,3.08,3.08,3.0795,3.0806,3.0799,2.9521,2.824,2.7374,2.6342,2.5699,2.5699,2.5699,2.5661,2.5607,2.5421,2.5292,2.5203,2.5082,2.5125,2.5325,2.5325,2.5439,2.5686,2.6254,2.6558,2.6558,2.7191,2.7494,2.7494,2.7494,2.7619,0.6994,0.0,0.8632,0.9475,0.9857,1.0263,1.1204,1.0944,1.0502,1.0473,1.0554,1.043,0.9757,0.9654,0.9893,1.0603,1.0731,1.1211,1.2609,1.3431,1.4174,1.4924,1.5643,1.6109,0.0,1.6258,1.6405,1.6514,1.7433,1.8529,1.9755,2.0833,2.196,2.3175,2.3395,2.3573,2.37,2.3771,2.3806,2.3806,2.3876,2.4346,2.5218,2.6944,2.775,2.7842,2.8638,2.9085,2.92,2.92,2.9483,2.9902,2.9902,3.0111,3.0404,3.0404,3.0408,3.0403,3.0474,3.0519,3.0559,3.0588,3.0617,3.0636,3.0617,3.0598,3.0598,3.0598,3.061,3.0614,3.0677,3.0747,3.0815,3.0877,3.0891,3.0886,3.0803,3.08,3.08,3.08,3.08,3.08,3.08,3.0809,3.0799,3.0798,3.0039,2.9145,2.8269,2.6712,2.5699,2.5699,2.5699,2.5661,2.5607,2.5479,2.5343,2.5203,2.5141,2.5425,2.6129,2.616,2.6558,2.7418,2.7456,2.7456,2.7456,2.7494,2.7494,2.7494,2.7494,2.7922,0.844,0.8857,0.9088,0.9995,1.0283,1.042,1.0755,1.0696,1.048,1.0217,1.0392,1.0492,1.0131,0.9958,1.0147,1.1024,1.1249,1.18,1.3268,1.4032,1.4719,1.5492,1.5821,0.0,0.0,0.0,0.0,1.6367,1.7832,1.9031,1.9707,2.1156,2.2332,2.304,2.3217,2.3383,2.3573,2.3671,2.375,2.3806,2.4421,2.5437,2.6804,2.7449,2.8054,2.8601,2.8877,2.9051,2.9152,2.9178,2.9445,2.9834,2.9886,3.0111,3.0404,3.0404,3.039,3.0408,3.0483,3.0495,3.052,3.0588,3.0598,3.0598,3.0598,3.0965,3.1405,3.1405,3.1395,3.1413,3.1538,3.1155,3.0759,3.0878,3.0892,3.0887,3.0803,3.08,3.08,3.08,3.08,3.08,3.08,3.0809,3.0794,3.0798,3.0066,2.9184,2.8308,2.7197,2.6712,2.7294,2.6361,2.5894,2.6365,2.5774,2.5348,2.5203,2.5632,2.5996,2.6186,2.6766,2.7209,2.7494,2.801,2.8294,2.8294,2.8825,2.909,2.909,2.909,2.9233,0.8921,0.9169,0.9178,1.0092,1.0323,1.0347,1.047,1.0383,1.0133,0.9646,0.9584,0.9533,0.9188,0.9083,0.9387,1.0445,1.0759,1.1545,1.3463,1.388,1.4354,1.5391,1.5524,1.558,0.0,0.0,0.0,1.6316,1.7903,1.9054,1.9454,2.1175,2.2361,2.2764,2.3065,2.3277,2.3436,2.3611,2.3736,2.3824,2.4965,2.6111,2.7198,2.7846,2.8453,2.9005,2.9005,2.9051,2.9134,2.9178,2.9445,2.9834,2.9886,3.0111,3.0404,3.0404,3.0404,3.041,3.0447,3.0485,3.051,3.0554,3.0588,3.0598,3.0598,3.0965,3.1424,3.1715,3.1579,3.1471,3.1879,3.1354,3.0723,3.0879,3.0892,3.0889,3.0803,3.08,3.08,3.08,3.08,3.08,3.08,3.0809,3.079,3.0804,3.0314,2.9652,2.8775,2.7898,2.7587,2.8132,2.7236,2.6794,2.7257,2.6728,2.6308,2.6142,2.654,2.6892,2.7088,2.7631,2.8055,2.8358,2.8874,2.9139,2.9139,2.965,2.9897,2.9897,2.9897,2.9897,0.8444,0.868,0.8949,0.9767,0.997,1.0059,1.0371,1.004,0.9464,0.8777,0.8216,0.7672,0.0,0.0,0.7695,0.8987,0.9485,1.0596,1.318,1.3107,1.3285,0.0,0.0,0.0,0.0,0.0,0.0,1.6428,1.7723,1.8711,1.9119,2.0885,2.2039,2.2381,2.2905,2.3217,2.3289,2.3567,2.3754,2.3878,2.5466,2.6304,2.6523,2.8114,2.8892,2.9005,2.9005,2.9067,2.9189,2.9189,2.9465,2.9894,2.9894,3.0111,3.0404,3.0404,3.0404,3.041,3.04,3.0433,3.0509,3.0505,3.0554,3.0598,3.0598,3.0656,3.0888,3.1657,3.1313,3.0933,3.1824,3.1388,3.0735,3.0879,3.0894,3.0873,3.0804,3.08,3.08,3.08,3.08,3.08,3.08,3.0809,3.079,3.0804,3.0801,3.0509,2.9671,2.8814,2.8288,2.8327,2.8249,2.8223,2.8259,2.8164,2.802,2.781,2.7777,2.8045,2.8673,2.8741,2.912,2.9897,2.9897,2.9897,2.9897,2.9897,2.9897,2.9897,2.9953,2.9972,0.8756,0.9124,0.9344,0.9568,0.9618,0.9645,0.9736,0.938,0.8802,0.7976,0.7581,0.7162,0.0,0.0,0.0,0.8901,1.0191,0.0,1.2607,1.3508,0.0,1.467,0.0,1.5782,1.6366,1.7243,0.0,0.0,1.8594,1.9359,1.9755,2.0986,2.1878,2.2313,2.2756,2.3057,2.3229,2.3544,2.4024,2.4701,2.5121,2.6023,2.7314,2.7727,2.8326,2.9005,2.9005,2.9028,2.9062,2.9156,2.9415,2.9756,2.9869,3.0111,3.0404,3.0404,3.0404,3.0404,3.0396,3.0436,3.0509,3.0505,3.0554,3.0598,3.0598,3.1468,3.2507,3.272,3.2623,3.2532,3.2885,3.1834,3.0735,3.0879,3.0894,3.0873,3.0804,3.08,3.08,3.08,3.08,3.0798,3.0806,3.0801,3.079,3.0804,3.0801,3.0723,3.0509,2.971,2.9418,3.0061,2.8989,2.8457,2.9116,2.8514,2.802,2.781,2.8347,2.8676,2.8692,2.929,2.9688,2.9897,2.9897,2.9897,2.9897,2.9897,2.9897,2.9916,3.056,3.0863,0.8892,0.9215,0.9363,0.947,0.951,0.9438,0.9211,0.8585,0.7906,0.7389,0.6678,0.0,0.6148,0.6391,0.7037,0.0,0.0,0.0,1.198,1.2748,1.3382,0.0,1.4739,0.0,1.599,1.7454,1.8427,0.0,1.9071,1.9577,1.9981,2.1024,2.182,2.2289,2.2686,2.3045,2.3324,2.351,2.3905,2.4483,2.4827,2.5728,2.7096,2.7442,2.8102,2.9005,2.9005,2.9017,2.9044,2.9163,2.9355,2.9634,2.9817,3.0049,3.0286,3.0367,3.0404,3.0404,3.0402,3.0442,3.0504,3.0495,3.055,3.0675,3.1023,3.1541,3.2159,3.2894,3.2565,3.213,3.2596,3.1719,3.0721,3.0879,3.0893,3.0871,3.0803,3.08,3.08,3.08,3.08,3.0796,3.0801,3.0798,3.079,3.0804,3.0801,3.0801,3.0801,3.0373,3.0256,3.0743,2.9925,2.955,3.0024,2.9554,2.9156,2.8944,2.9344,2.9459,2.9241,2.9669,2.9897,2.9897,2.9897,2.9897,2.9897,3.0276,3.0465,3.0484,3.1336,3.1734,0.8809,0.904,0.916,0.9378,0.9484,0.9366,0.8826,0.7935,0.7147,0.6946,0.0,0.5096,0.5769,0.6027,0.6477,0.7525,0.0,0.9996,1.1264,1.1542,1.1892,1.2728,1.4055,1.5019,1.5254,1.7542,1.9074,1.9211,1.9392,1.9671,2.0095,2.1087,2.1878,2.2358,2.2717,2.3095,2.3494,2.3494,2.3594,2.3824,2.4502,2.5328,2.6268,2.7059,2.7949,2.8858,2.895,2.904,2.9078,2.9167,2.9322,2.9505,2.9792,2.9977,3.0122,3.0336,3.0404,3.041,3.0406,3.0439,3.0504,3.0509,3.054,3.0733,3.1424,3.1236,3.1062,3.2527,3.1869,3.0953,3.1785,3.1354,3.0725,3.0879,3.0892,3.0888,3.0803,3.08,3.08,3.08,3.08,3.0796,3.0803,3.0799,3.0792,3.0806,3.0801,3.0801,3.0801,3.0801,3.0801,3.0801,3.0801,3.0801,3.0801,3.073,3.0626,3.0433,3.0334,3.0199,2.9929,2.9905,2.9897,2.9897,2.9897,2.9953,3.0067,3.0825,3.1242,3.1374,3.2189,3.2568,0.8329,0.8723,0.912,0.916,0.9324,0.9366,0.8826,0.8212,0.0,0.0,0.5867,0.5154,0.4434,0.5163,0.6022,0.6505,0.8088,0.9603,1.056,1.1223,1.2064,0.0,1.4687,1.598,1.7116,1.868,0.0,0.0,1.993,2.019,2.0719,2.1502,2.2184,2.2708,2.2825,2.307,2.3407,2.3471,2.3594,2.3795,2.394,2.4493,2.5436,2.6239,2.7119,2.8044,2.8712,2.9005,2.9028,2.9145,2.9291,2.9447,2.9775,2.9977,3.0122,3.0336,3.0404,3.041,3.0406,3.0439,3.0504,3.0505,3.055,3.0636,3.0772,3.1178,3.1657,3.1947,3.1811,3.1645,3.1938,3.1349,3.0737,3.0879,3.0894,3.0872,3.0804,3.08,3.08,3.08,3.08,3.0799,3.0792,3.0804,3.0794,3.08,3.0808,3.0801,3.0801,3.0801,3.0801,3.0801,3.0801,3.0801,3.0801,3.073,3.0645,3.0485,3.0369,3.0233,3.0079,2.9953,2.9897,2.9897,2.9897,3.0257,3.0977,3.1128,3.1545,3.2208,3.307,3.3468,0.8144,0.8414,0.8709,0.9012,0.9201,0.9112,0.8442,0.0,0.0,0.0,0.5234,0.4698,0.4633,0.5076,0.0,0.6292,0.7483,0.8793,1.016,1.0763,1.1707,1.3399,1.4767,1.601,1.7085,1.8715,1.9741,1.9884,2.0152,2.0563,2.1119,2.1897,2.2467,2.279,2.2868,2.3033,2.3289,2.3436,2.3578,2.3757,2.3824,2.4343,2.5225,2.6071,2.694,2.7842,2.8638,2.9028,2.9062,2.9156,2.9257,2.9373,2.9644,2.9842,3.0015,3.0176,3.0304,3.0394,3.0447,3.0479,3.0563,3.1033,3.0912,3.0675,3.1101,3.1197,3.1255,3.1676,3.1502,3.12,3.1301,3.1008,3.0728,3.0879,3.0871,3.0847,3.0803,3.08,3.08,3.08,3.08,3.0798,3.0807,3.0801,3.0792,3.0793,3.0804,3.0801,3.0801,3.0801,3.0801,3.0801,3.0801,3.0801,3.0801,3.073,3.0649,3.0503,3.0381,3.024,3.0109,2.9961,3.0105,3.056,3.0579,3.0995,3.1829,3.2274,3.271,3.3107,3.3922,3.432,0.8095,0.8244,0.8414,0.8958,0.9054,0.881,0.8071,0.7073,0.0,0.0,0.4751,0.4382,0.5061,0.5187,0.5408,0.0,0.686,0.7946,0.958,1.0117,1.115,0.0,1.4726,0.0,1.6799,1.8542,0.0,1.978,2.0241,2.0812,2.1479,2.2189,2.2632,2.2751,2.2855,2.2995,2.318,2.3383,2.3567,2.3703,2.3834,2.4283,2.4991,2.5847,2.6716,2.7585,2.8393,2.8886,2.9119,2.9167,2.924,2.9315,2.9522,2.9715,2.9918,3.0066,3.0248,3.0403,3.0479,3.05,3.0617,3.1323,3.1236,3.0984,3.1618,3.1366,3.0946,3.1405,3.1101,3.0623,3.0681,3.0704,3.0735,3.0878,3.0848,3.08,3.08,3.08,3.08,3.08,3.08,3.0798,3.0804,3.0799,3.0792,3.0808,3.0801,3.0801,3.0801,3.0801,3.0801,3.0801,3.0801,3.0801,3.0801,3.073,3.0649,3.0531,3.0381,3.0246,3.0123,2.9988,3.0313,3.1185,3.1204,3.1678,3.2691,3.3373,3.379,3.396,3.4605,3.4908,0.8002,0.8386,0.8656,0.9012,0.892,0.8598,0.802,0.0,0.6143,0.56,0.5079,0.4751,0.4834,0.5183,0.5421,0.5253,0.0,0.7325,0.8412,0.9108,1.051,1.3193,0.0,0.0,1.7393,1.8847,1.9726,1.978,2.0292,2.0958,2.1809,2.2274,2.2538,2.2623,2.2803,2.297,2.3119,2.336,2.356,2.3692,2.3845,2.4012,2.424,2.5037,2.5892,2.6759,2.7567,2.8353,2.9119,2.9167,2.924,2.9315,2.9522,2.9715,2.9926,3.0121,3.0273,3.0403,3.0476,3.0491,3.052,3.0666,3.1159,3.1695,3.1773,3.1753,3.1541,3.0907,3.0656,3.0623,3.0681,3.0698,3.0729,3.0877,3.0845,3.08,3.08,3.08,3.08,3.08,3.08,3.0799,3.0792,3.0804,3.0794,3.0802,3.0808,3.0801,3.0801,3.0801,3.0801,3.0801,3.0801,3.0801,3.0801,3.073,3.0672,3.0606,3.0411,3.0279,3.0185,3.0003,3.0313,3.1185,3.1204,3.1989,3.3581,3.3657,3.4074,3.4794,3.487,3.4908,0.7456,0.7798,0.8176,0.867,0.8469,0.8113,0.7942,0.0,0.5684,0.5183,0.4672,0.4395,0.4629,0.4896,0.5125,0.5257,0.5615,0.6409,0.7951,0.8523,0.9953,1.3071,1.4543,0.0,0.0,0.0,1.9596,1.9795,2.0258,2.0797,2.1384,2.1909,2.2326,2.2646,2.2816,2.2952,2.3107,2.336,2.3567,2.3696,2.3884,2.3986,2.4072,2.4966,2.5556,2.5925,2.6773,2.733,2.7706,2.8249,2.8524,2.8641,2.9236,2.9654,2.991,2.9992,3.0215,3.0469,3.0486,3.0525,3.0641,3.1154,3.1541,3.1715,3.1217,3.1081,3.1004,3.0694,3.0598,3.0628,3.0689,3.076,3.082,3.085,3.0822,3.08,3.08,3.08,3.08,3.08,3.08,3.0798,3.0806,3.0801,3.0792,3.0793,3.0804,3.0801,3.0801,3.0801,3.0801,3.0801,3.0801,3.0801,3.0801,3.0748,3.0678,3.061,3.0411,3.0497,3.0918,3.0771,3.1318,3.2691,3.271,3.3278,3.4415,3.4415,3.4586,3.4908,3.4908,3.4908,0.6959,0.7243,0.7582,0.8085,0.7856,0.7514,0.0,0.6388,0.5199,0.4859,0.4239,0.3923,0.4538,0.4715,0.4862,0.5174,0.5458,0.6068,0.7298,0.8125,0.9634,1.2423,0.0,1.5486,1.7087,1.8599,1.9578,1.978,2.0152,2.0581,2.1102,2.1597,2.2099,2.2619,2.2816,2.2957,2.3045,2.3348,2.3573,2.3678,2.3894,2.4006,2.4044,2.4729,2.5182,2.5459,2.6068,2.6487,2.6779,2.7392,2.7813,2.817,2.8783,2.9392,2.9899,2.9912,3.017,3.0495,3.052,3.0559,3.0694,3.1255,3.1453,3.1342,3.0762,3.0776,3.0907,3.0665,3.0613,3.0641,3.0689,3.0797,3.0887,3.0822,3.08,3.08,3.08,3.08,3.08,3.08,3.08,3.0796,3.0801,3.0798,3.079,3.0804,3.0801,3.0801,3.0801,3.0801,3.0801,3.0801,3.0801,3.0801,3.0801,3.0737,3.0762,3.0918,3.0763,3.1009,3.1722,3.1629,3.2236,3.3676,3.3695,3.4093,3.4908,3.4908,3.4908,3.4908,3.4908,3.4908,0.6686,0.6906,0.6965,0.7246,0.7055,0.6805,0.6815,0.578,0.4806,0.4794,0.3898,0.345,0.4588,0.4748,0.4723,0.4799,0.5857,0.6576,0.6257,0.788,0.9616,0.0,0.0,1.4863,1.6281,1.8401,1.9726,1.978,1.9919,2.0344,2.1165,2.1399,2.1809,2.2487,2.2764,2.2906,2.2906,2.3301,2.3522,2.3594,2.3873,2.4026,2.4094,2.4189,2.4678,2.5509,2.5509,2.6001,2.6791,2.681,2.7312,2.8096,2.8114,2.8838,2.9912,2.9958,3.0203,3.052,3.0588,3.0598,3.0598,3.0617,3.0616,3.0619,3.06,3.1158,3.1623,3.0823,3.0656,3.0704,3.0698,3.0798,3.0887,3.0822,3.08,3.08,3.08,3.08,3.08,3.08,3.08,3.0796,3.0801,3.0798,3.079,3.0804,3.0801,3.0801,3.0801,3.0801,3.0801,3.0801,3.0801,3.0801,3.0801,3.0737,3.0982,3.1652,3.1611,3.1896,3.2559,3.2458,3.2804,3.3676,3.3695,3.4093,3.4908,3.4908,3.4908,3.4908,3.4908,3.4908,0.5116,0.5422,0.5755,0.6111,0.5848,0.5575,0.5855,0.5015,0.4197,0.4239,0.3674,0.3531,0.4715,0.4841,0.5037,0.5826,0.6378,0.0,0.7118,0.0,0.0,1.1662,1.4544,1.6956,0.0,0.0,1.965,1.9726,1.9902,2.0308,2.1039,2.1338,2.1823,2.2555,2.279,2.2995,2.318,2.3383,2.3589,2.375,2.3925,2.4006,2.4044,2.4151,2.4347,2.4615,2.4662,2.4866,2.5199,2.5801,2.62,2.6572,2.781,2.8619,2.9163,2.9926,3.0321,3.052,3.0588,3.0598,3.0598,3.0598,3.0597,3.06,3.0593,3.0783,3.0933,3.0671,3.0652,3.0698,3.0708,3.0761,3.0823,3.0801,3.08,3.08,3.08,3.08,3.08,3.08,3.08,3.0796,3.0801,3.0798,3.079,3.0804,3.0801,3.0801,3.0801,3.0801,3.1035,3.1622,3.168,3.1447,3.086,3.1239,3.1569,3.1685,3.2109,3.2663,3.3388,3.3351,3.3676,3.4491,3.4529,3.4643,3.4908,3.4908,3.4908,3.4908,3.4908,3.4908,0.0,0.4393,0.4675,0.4925,0.4832,0.4743,0.4994,0.4478,0.394,0.3963,0.3539,0.3456,0.4406,0.4517,0.4764,0.5708,0.6352,0.6894,0.0,0.0,0.0,1.2663,0.0,0.0,0.0,1.9019,1.9418,1.9874,2.0063,2.0446,2.115,2.1477,2.1926,2.2538,2.2777,2.299,2.3217,2.3407,2.3589,2.3761,2.3896,2.3986,2.4006,2.4103,2.419,2.4238,2.4338,2.4401,0.0,2.513,2.5548,2.5935,2.7428,2.8343,2.8935,2.9934,3.0392,3.0535,3.0593,3.0598,3.0598,3.0592,3.0615,3.0645,3.0645,3.0645,3.0641,3.0645,3.0661,3.071,3.0726,3.0762,3.08,3.08,3.08,3.08,3.08,3.08,3.08,3.08,3.08,3.0796,3.0801,3.0798,3.079,3.0804,3.0801,3.0801,3.0801,3.0801,3.1132,3.2014,3.2052,3.1938,3.1718,3.2123,3.2447,3.2607,3.298,3.3513,3.4264,3.4205,3.4396,3.4889,3.4908,3.4908,3.4908,3.4908,3.4908,3.4908,3.4908,3.5078,0.0,0.3703,0.371,0.3724,0.3964,0.4191,0.4223,0.4075,0.0,0.3864,0.3457,0.3287,0.3875,0.3977,0.4203,0.4914,0.6095,0.6997,0.0,0.9549,0.0,0.0,1.4905,0.0,1.7421,1.8189,1.9043,2.0128,2.0326,2.073,2.1462,2.1749,2.2073,2.2487,2.2764,2.2952,2.3102,2.336,2.3567,2.3711,2.3852,2.3945,2.4006,2.4074,2.4171,2.4303,2.4441,2.4501,2.4524,2.4782,2.5264,2.5933,2.6948,2.7974,2.9026,2.9907,3.0395,3.0598,3.0598,3.0598,3.0607,3.0615,3.0649,3.0704,3.0706,3.0699,3.0692,3.0691,3.0696,3.0721,3.0778,3.0798,3.08,3.08,3.08,3.08,3.08,3.08,3.08,3.08,3.08,3.0796,3.0801,3.0798,3.079,3.0804,3.0801,3.0801,3.0801,3.086,3.123,3.2087,3.2124,3.2439,3.3285,3.33,3.349,3.407,3.4088,3.4396,3.5063,3.4964,3.4908,3.4908,3.4908,3.4908,3.4908,3.4908,3.4908,3.4908,3.4908,3.5363,0.2669,0.0,0.2838,0.3,0.3096,0.3206,0.0,0.3378,0.3324,0.336,0.0,0.3499,0.4547,0.4664,0.5194,0.7027,0.7756,0.8567,0.9875,1.1884,0.0,1.537,1.5798,1.6598,1.8118,1.8419,1.8989,2.011,2.0326,2.073,2.1462,2.1749,2.2073,2.2487,2.2712,2.297,2.3253,2.3424,2.3582,2.3782,2.3865,2.3945,2.4006,2.4074,2.4152,2.4229,2.4424,2.4532,2.4583,2.4818,2.499,2.5243,2.6307,2.7276,2.8195,2.9187,2.9994,3.0598,3.0598,3.0592,3.0615,3.0653,3.0692,3.0704,3.0706,3.0699,3.0699,3.0695,3.0708,3.0722,3.078,3.0797,3.08,3.08,3.08,3.08,3.08,3.08,3.0799,3.0795,3.0798,3.0795,3.079,3.0792,3.079,3.0804,3.0801,3.0801,3.0801,3.1388,3.2091,3.2852,3.3511,3.4157,3.4826,3.4275,3.3949,3.4095,3.4572,3.4918,3.5092,3.4964,3.4908,3.4908,3.4908,3.4908,3.4908,3.4908,3.4908,3.4908,3.4908,3.5363,0.2398,0.2587,0.2823,0.3022,0.3101,0.3185,0.3422,0.0,0.0,0.0,0.0,0.347,0.4339,0.4663,0.534,0.7003,0.8196,0.0,0.0,0.0,1.4179,1.5027,1.5449,1.6153,1.7418,1.7836,1.8588,1.9867,2.0391,2.0942,2.1688,2.1986,2.2231,2.2501,2.2699,2.2932,2.3205,2.336,2.3567,2.375,2.3824,2.3907,2.3996,2.4044,2.4105,2.421,2.4405,2.4548,2.4623,2.4883,2.4981,2.51,2.6165,2.6872,2.7465,2.8796,2.9592,3.0061,3.0457,3.0619,3.0653,3.0692,3.0707,3.0699,3.071,3.0706,3.0701,3.0735,3.0747,3.0747,3.0781,3.079,3.08,3.08,3.08,3.08,3.08,3.08,3.0799,3.0794,3.0795,3.0791,3.0806,3.0806,3.0804,3.0804,3.0801,3.0938,3.1349,3.1819,3.2536,3.3662,3.416,3.467,3.5341,3.4918,3.4591,3.4591,3.492,3.5092,3.5092,3.4964,3.4908,3.4908,3.4908,3.4908,3.4908,3.4908,3.4908,3.4908,3.4908,3.5552,0.2476,0.2839,0.3212,0.3266,0.3384,0.3541,0.3754,0.0,0.0,0.0,0.0,0.0,0.0,0.4688,0.0,0.0,0.0,0.0,1.2485,1.3457,1.4009,1.4198,1.4699,1.5394,1.6309,1.6962,1.8008,1.9578,2.0337,2.11,2.1953,2.2231,2.2405,2.2501,2.2672,2.2868,2.3082,2.3289,2.3499,2.37,2.3771,2.3876,2.3996,2.3996,2.4067,2.421,2.4405,2.4546,2.4651,2.4962,2.5124,2.5236,2.6145,2.6586,2.6893,2.8504,2.919,2.9422,3.0305,3.0649,3.07,3.0704,3.0699,3.0694,3.0694,3.0701,3.0713,3.0785,3.08,3.0791,3.0793,3.08,3.08,3.08,3.08,3.08,3.08,3.0799,3.0796,3.0792,3.0791,3.0804,3.0802,3.08,3.0798,3.0804,3.0801,3.1113,3.1995,3.2201,3.283,3.4302,3.4477,3.471,3.532,3.5278,3.5209,3.5209,3.5145,3.5084,3.5075,3.4955,3.4908,3.4908,3.4908,3.4908,3.4908,3.4908,3.4908,3.4908,3.504,3.5931,0.2816,0.3291,0.3534,0.288,0.3078,0.3478,0.3737,0.0,0.0,0.0,0.0,0.0,0.0,0.6007,0.6724,0.0,0.0,1.2283,0.0,0.0,1.4654,1.4685,1.5029,1.556,1.6339,1.6551,1.7497,1.9547,1.9862,2.0569,2.1936,2.2147,2.2304,2.2501,2.2596,2.2725,2.2932,2.3241,2.3499,2.37,2.3771,2.3876,2.3996,2.3996,2.4067,2.421,2.4405,2.459,2.4795,2.5004,2.52,2.5364,2.5539,2.6047,2.6818,2.7832,2.8668,2.9427,3.0298,3.0637,3.0704,3.0703,3.069,3.0694,3.0694,3.0694,3.0704,3.0771,3.08,3.0791,3.0793,3.08,3.08,3.08,3.0798,3.0795,3.08,3.0792,3.0803,3.0801,3.0801,3.0794,3.0808,3.0793,3.0798,3.0804,3.0801,3.1113,3.1995,3.2646,3.3367,3.424,3.4864,3.5229,3.5227,3.5207,3.5209,3.5209,3.5145,3.5057,3.4936,3.4917,3.4908,3.4908,3.4908,3.4908,3.4908,3.4908,3.4908,3.4927,3.5647,3.651,0.2626,0.3168,0.3579,0.3143,0.3627,0.4369,0.501,0.0,0.0,0.0,0.0,0.0,0.0,0.0,0.8017,1.0134,0.0,1.2812,1.2533,1.3724,1.4561,1.4345,1.4811,1.5309,1.5765,1.6226,1.7117,1.8671,1.9075,1.9816,2.1075,2.1471,2.1539,2.1272,2.2137,2.2509,2.231,2.2993,2.343,2.3589,2.3761,2.3907,2.3996,2.4044,2.4172,2.4374,2.4466,2.4659,2.4924,2.5046,2.5215,2.5391,2.5393,2.5665,2.6203,2.7554,2.8883,3.0057,3.0498,3.068,3.0699,3.071,3.0694,3.0694,3.0694,3.07,3.0713,3.0773,3.081,3.08,3.081,3.08,3.08,3.0798,3.0795,3.0792,3.0791,3.0804,3.0796,3.079,3.081,3.0804,3.0804,3.0806,3.0808,3.0801,3.1191,3.1785,3.2587,3.3405,3.4162,3.4826,3.52,3.5355,3.5198,3.5209,3.5185,3.5162,3.5119,3.5029,3.4917,3.4908,3.4908,3.4908,3.4908,3.4908,3.4908,3.4908,3.5135,3.5609,3.6017,3.6889,0.2512,0.2919,0.3352,0.3506,0.0,0.4943,0.603,0.0,0.0,0.0,0.0,0.0,0.0,0.8297,0.0,1.0795,1.2299,1.3124,1.2646,1.3724,1.4474,1.4193,1.4711,1.5118,1.5298,1.5887,1.668,1.77,1.8262,1.9017,2.0103,2.0618,2.0675,2.0213,2.1576,2.2151,2.1805,2.2757,2.3336,2.3505,2.3761,2.3958,2.4075,2.4124,2.4302,2.4567,2.4572,2.474,2.5022,2.5099,2.522,2.5391,2.5417,2.5576,2.5983,2.7532,2.9043,3.0362,3.0614,3.0695,3.0694,3.0694,3.0697,3.0704,3.0694,3.0714,3.0735,3.0798,3.0798,3.0798,3.0804,3.0798,3.0795,3.0791,3.0807,3.0804,3.0799,3.0794,3.0808,3.0802,3.0798,3.0793,3.0801,3.0801,3.0801,3.0801,3.1512,3.2324,3.3095,3.3904,3.4651,3.5322,3.5364,3.5311,3.5218,3.5193,3.5179,3.5101,3.5075,3.5011,3.4889,3.4908,3.4908,3.4908,3.4908,3.4908,3.4908,3.4908,3.5344,3.6206,3.6396,3.7287,0.2852,0.2721,0.2724,0.3708,0.3963,0.0,0.5861,0.6085,0.0,0.7532,0.0,0.0,0.0,1.0057,1.1025,1.0302,1.2246,1.3587,1.2885,1.3933,1.4811,1.491,1.5134,1.5283,1.5298,1.5462,1.598,1.6999,1.7512,1.8265,1.9408,1.9741,1.9997,2.0196,2.1037,2.1592,2.1805,2.2672,2.3241,2.3505,2.3761,2.4027,2.4275,2.4284,2.4464,2.4782,2.4782,2.4896,2.509,2.5165,2.5279,2.5415,2.5472,2.5987,2.6819,2.7768,2.8683,2.9606,3.0424,3.0695,3.0694,3.0694,3.0695,3.0694,3.0704,3.0737,3.0794,3.0791,3.08,3.0796,3.0794,3.0807,3.0799,3.0799,3.0792,3.0806,3.0796,3.0802,3.0806,3.08,3.0791,3.0801,3.0801,3.0801,3.0801,3.0801,3.1449,3.2237,3.3087,3.3732,3.4449,3.5302,3.5281,3.5198,3.5209,3.5206,3.5164,3.5092,3.4973,3.4917,3.4908,3.4908,3.4908,3.4908,3.4908,3.4908,3.4908,3.4908,3.5344,3.6225,3.6965,3.7818,0.258,0.2942,0.3398,0.3932,0.4137,0.0,0.0,0.6789,0.731,0.8621,0.8898,0.0,0.0,0.0,1.1925,1.0936,1.2689,1.3832,1.2941,1.3947,1.4856,1.4968,1.5178,1.5298,1.5298,1.5418,1.5906,1.6863,1.6988,1.7506,1.8604,1.895,1.9024,1.8848,2.0494,2.13,2.1057,2.2415,2.3241,2.3505,2.3865,2.4125,2.4321,2.4459,2.47,2.4929,2.4929,2.5062,2.5288,2.5303,2.5345,2.5412,2.548,2.6026,2.6901,2.7788,2.866,2.9512,3.0404,3.0706,3.0694,3.0694,3.0695,3.0703,3.0689,3.0742,3.0799,3.08,3.0792,3.0796,3.0803,3.0801,3.0796,3.081,3.0804,3.08,3.0798,3.0808,3.0801,3.0808,3.0804,3.0801,3.0801,3.0801,3.0769,3.0697,3.1847,3.2775,3.2998,3.4115,3.5004,3.5262,3.5226,3.5179,3.5145,3.5596,3.5636,3.5067,3.4992,3.4936,3.4908,3.542,3.5438,3.4908,3.5912,3.6215,3.5704,3.6215,3.6908,3.7761,3.8064,3.8641,0.2478,0.3163,0.3935,0.3991,0.0,0.0,0.6488,0.7121,0.7852,0.9432,0.9882,0.0,1.0529,0.0,0.0,0.0,1.2585,1.3581,1.3011,1.3867,1.4706,1.5044,1.5223,1.5313,1.5328,1.5433,1.5817,1.659,1.6618,1.6987,1.7843,1.8174,1.8249,1.8011,1.9981,2.0921,2.0604,2.2221,2.3193,2.3505,2.3891,2.4164,2.4374,2.4665,2.49,2.5062,2.5093,2.5215,2.5398,2.5402,2.5408,2.5433,2.5472,2.5863,2.6524,2.769,2.848,2.9154,3.0298,3.0694,3.0694,3.0704,3.071,3.0723,3.0733,3.0762,3.0801,3.0799,3.0799,3.0802,3.0806,3.0808,3.0806,3.0798,3.0795,3.0793,3.0804,3.0801,3.0801,3.0801,3.0801,3.0801,3.0801,3.0767,3.0703,3.0603,3.2038,3.3063,3.2917,3.4325,3.5296,3.5201,3.5198,3.5164,3.512,3.5846,3.6046,3.5457,3.5638,3.5628,3.5325,3.5874,3.6026,3.5704,3.6822,3.7135,3.6585,3.7135,3.7856,3.869,3.869,3.9134,0.2642,0.3334,0.414,0.0,0.0,0.0,0.6447,0.6925,0.7798,0.9871,1.0738,1.1019,1.0663,1.1269,0.0,1.0735,1.1789,1.283,1.3156,1.3727,1.4399,1.521,1.5298,1.5328,1.5389,1.5463,1.5668,1.6067,1.6409,1.6776,1.7179,1.746,1.7732,1.8,1.9503,2.0393,2.0622,2.2124,2.3089,2.3505,2.3846,2.4192,2.4513,2.4858,2.5069,2.5192,2.5276,2.5346,2.5398,2.5402,2.5436,2.5492,2.5511,2.5494,2.5712,2.7452,2.809,2.8356,3.0088,3.0694,3.0701,3.0691,3.0742,3.0808,3.0804,3.0796,3.0798,3.0793,3.0791,3.0798,3.0804,3.0801,3.0801,3.0801,3.0801,3.0801,3.0801,3.0801,3.0801,3.0801,3.0801,3.0801,3.0801,3.0697,3.0593,3.0593,3.1916,3.291,3.291,3.4262,3.5212,3.5208,3.52,3.5164,3.5092,3.5846,3.6312,3.6293,3.7003,3.7059,3.6244,3.6225,3.6585,3.7382,3.742,3.742,3.742,3.742,3.7874,3.8709,3.8709,3.9134,0.2367,0.3298,0.0,0.4504,0.0,0.0,0.0,0.792,0.0,0.0,1.1027,1.1636,1.1531,1.2071,0.0,1.1616,1.2618,1.3417,1.3226,1.4084,1.4872,1.5254,1.5298,1.5328,1.5389,1.5463,1.5754,1.634,1.6567,1.6901,1.7444,1.7595,1.8008,1.8745,1.9776,2.0663,2.144,2.2501,2.3205,2.3505,2.3832,2.4183,2.4513,2.4907,2.5124,2.5192,2.5276,2.5332,2.5402,2.5459,2.548,2.5492,2.5511,2.5494,2.5635,2.6776,2.7569,2.8259,2.9389,3.0183,3.071,3.07,3.0754,3.0799,3.0793,3.08,3.0801,3.0804,3.0806,3.0806,3.0801,3.0801,3.0801,3.0801,3.0801,3.0801,3.0801,3.0801,3.0801,3.0801,3.0801,3.0801,3.0801,3.0697,3.0575,3.0535,3.1882,3.33,3.4389,3.4923,3.5181,3.5138,3.5129,3.5084,3.4983,3.6273,3.6833,3.6264,3.7543,3.7931,3.7078,3.7628,3.778,3.742,3.8565,3.8888,3.8329,3.8888,3.9294,3.9551,3.9551,3.9673,0.3388,0.4144,0.0,0.5388,0.6151,0.7125,0.8519,0.0,0.0,0.0,1.1291,1.1913,1.2013,1.2459,1.2581,1.1886,1.2554,1.3189,1.3277,1.391,1.4602,1.524,1.5298,1.5328,1.5418,1.5565,1.5895,1.6501,1.6735,1.7076,1.7577,1.7653,1.8132,1.9069,1.9879,2.0783,2.1788,2.266,2.3241,2.3505,2.3868,2.4201,2.4513,2.4867,2.5087,2.5217,2.5293,2.5365,2.5415,2.5472,2.5507,2.5492,2.5503,2.5501,2.5615,2.6515,2.7168,2.7735,2.8589,2.947,3.0161,2.9818,2.998,3.0285,3.0273,3.0283,3.0359,3.0704,3.0806,3.0801,3.0801,3.0801,3.0801,3.0801,3.0801,3.0801,3.0801,3.0801,3.0801,3.0801,3.0801,3.0774,3.0734,3.0635,3.0651,3.0897,3.2276,3.3872,3.5479,3.5372,3.5138,3.5066,3.5066,3.5163,3.5391,3.6632,3.7344,3.7211,3.8433,3.8944,3.8414,3.8595,3.8595,3.8395,3.9388,3.9654,3.9172,3.9654,3.99,3.99,3.99,3.99,0.4965,0.0,0.0,0.6343,0.7167,0.0,0.9243,0.9882,1.0401,1.0994,0.0,1.1992,1.2263,1.2599,1.2613,1.1912,1.2086,1.2576,1.3381,1.3481,1.3933,1.5168,1.5298,1.5358,1.5522,1.5767,1.6104,1.6594,1.6926,1.7248,1.7589,1.7681,1.8132,1.9069,1.9879,2.0783,2.1788,2.266,2.3241,2.3522,2.3899,2.4247,2.453,2.4792,2.5025,2.5222,2.5351,2.5391,2.5415,2.5476,2.5492,2.5496,2.5501,2.5495,2.5619,2.6466,2.6828,2.7003,2.7738,2.8595,2.9257,2.8454,2.8731,2.941,2.9479,2.9502,2.9689,3.0557,3.0801,3.0801,3.0801,3.0801,3.0801,3.0801,3.0801,3.0801,3.0801,3.086,3.0918,3.0918,3.0977,3.0998,3.0859,3.0776,3.0993,3.1802,3.3172,3.4677,3.6202,3.57,3.517,3.5011,3.5077,3.5382,3.6036,3.6889,3.7742,3.8538,3.9342,3.9824,3.99,3.9191,3.9153,3.99,3.99,3.99,3.99,3.99,3.99,3.99,3.99,3.99,0.394,0.449,0.0,0.0,0.7957,0.9158,0.9437,0.9594,0.9956,1.097,1.1604,1.2234,1.3074,1.3171,1.3133,1.323,1.3188,1.3369,1.4021,1.4108,1.4413,1.5196,1.5298,1.5433,1.5781,1.588,1.6171,1.685,1.708,1.7301,1.7589,1.7704,1.8183,1.9069,1.9879,2.0783,2.1788,2.266,2.3277,2.3657,2.3847,2.4183,2.4666,2.4886,2.5087,2.5274,2.5364,2.54,2.5417,2.548,2.5499,2.5495,2.5505,2.5522,2.5596,2.5809,2.63,2.6928,2.7104,2.7731,2.8446,2.8254,2.8356,2.8689,2.9316,2.9509,2.968,3.055,3.0801,3.0801,3.0801,3.0801,3.0801,3.0801,3.0801,3.0801,3.0801,3.1349,3.1819,3.1819,3.2365,3.2792,3.266,3.2541,3.29,3.4151,3.5174,3.5901,3.6281,3.6169,3.577,3.5077,3.5609,3.578,3.524,3.6538,3.7476,3.7666,3.8481,3.9248,3.9862,3.973,3.9711,3.99,3.99,3.99,3.99,3.99,3.99,3.99,3.99,3.99,0.4517,0.0,0.0,0.6992,0.0,0.9174,0.945,0.9523,0.9794,1.0692,1.1262,1.191,1.2889,1.3385,1.3657,1.3689,1.377,1.3934,1.4254,1.4297,1.4544,1.5211,1.5433,1.5624,1.588,1.6198,1.6546,1.698,1.724,1.7444,1.7589,1.7732,1.8195,1.9069,1.952,2.0381,2.1739,2.2394,2.3037,2.366,2.3981,2.4362,2.4799,2.5,2.5162,2.5293,2.5364,2.54,2.5401,2.546,2.5499,2.5499,2.5505,2.5544,2.5599,2.5595,2.5892,2.629,2.6277,2.685,2.7501,2.7086,2.7537,2.8325,2.8751,2.8887,2.9145,3.0431,3.0509,3.0275,3.0684,3.0801,3.0796,3.0767,3.0772,3.0801,3.0801,3.1152,3.1602,3.2014,3.245,3.2801,3.305,3.3282,3.382,3.4937,3.5778,3.6293,3.6293,3.6274,3.6074,3.5609,3.598,3.6387,3.6699,3.7514,3.8197,3.8565,3.902,3.9456,3.9881,3.99,3.99,3.99,3.99,3.99,3.99,3.99,3.99,3.99,3.99,3.99,0.5213,0.0,0.572,0.7366,0.8259,0.0,0.9297,0.9517,0.9766,1.0274,1.076,1.1431,1.254,1.3428,1.399,1.3974,1.4156,1.4341,1.4457,1.437,1.4544,1.5211,1.561,1.5853,1.5978,1.6533,1.6952,1.7084,1.7413,1.7601,1.7601,1.7732,1.8144,1.8882,1.903,1.9831,2.1352,2.1815,2.2543,2.3486,2.4164,2.4561,2.472,2.5057,2.5247,2.5302,2.5379,2.5404,2.5429,2.5488,2.5507,2.5506,2.5511,2.5548,2.5602,2.5595,2.561,2.5609,2.5605,2.6082,2.6609,2.6032,2.6818,2.8055,2.8338,2.8424,2.8756,3.0353,3.027,2.9878,3.0599,3.0772,3.0762,3.0719,3.0731,3.0789,3.0774,3.0891,3.1222,3.1948,3.2234,3.2597,3.326,3.3892,3.4545,3.5189,3.597,3.6445,3.6302,3.6226,3.6149,3.5998,3.6225,3.6908,3.8159,3.8538,3.8993,3.9654,3.9692,3.9767,3.99,3.99,3.99,3.99,3.99,3.99,3.99,3.99,3.99,3.99,3.99,3.99,0.4074,0.0,0.64,0.0,0.8095,0.8899,0.0,0.0,0.9735,0.0,1.0308,1.1221,1.2968,1.3403,1.3849,1.4902,1.4645,1.45,1.508,1.466,1.4544,1.5211,1.561,1.5938,1.6311,1.668,1.7055,1.7415,1.7536,1.7601,1.7601,1.7732,1.7907,1.8148,1.8762,1.9383,1.9956,2.0714,2.1739,2.3006,2.4243,2.4527,2.3985,2.4812,2.5238,2.5303,2.5364,2.5432,2.5488,2.5507,2.551,2.5511,2.5567,2.5583,2.5598,2.5598,2.56,2.5609,2.5591,2.5712,2.5976,2.6608,2.6966,2.7429,2.8883,2.9321,2.9535,3.0528,3.0667,3.0573,3.0689,3.0707,3.0704,3.0701,3.0704,3.0714,3.0703,3.1312,3.1876,3.1993,3.3039,3.4115,3.4793,3.5499,3.5998,3.6046,3.6786,3.7081,3.6311,3.6206,3.5912,3.5154,3.6367,3.7059,3.6566,3.7874,3.8746,3.886,3.886,3.9172,3.9862,3.99,3.99,3.99,3.99,3.99,3.99,3.99,3.99,3.99,3.99,3.99,0.4057,0.5032,0.6115,0.0,0.7637,0.8161,0.8764,0.9108,0.9404,0.9727,1.0146,1.095,1.2645,1.3325,1.399,1.5107,1.5051,1.4964,1.5254,1.5081,1.5038,1.5315,1.5711,1.6093,1.6419,1.676,1.7121,1.7462,1.7559,1.7601,1.7601,1.7732,1.7856,1.8011,1.8301,1.8849,1.9629,2.0182,2.1143,2.2518,2.3679,2.4081,2.3837,2.4766,2.5238,2.5308,2.5364,2.5432,2.5492,2.5511,2.5494,2.5518,2.5573,2.5605,2.5604,2.5598,2.5591,2.5602,2.5638,2.5644,2.5718,2.6121,2.6906,2.7817,2.8549,2.9114,2.9664,3.0511,3.0408,3.0133,3.0584,3.0704,3.0687,3.0642,3.0676,3.069,3.0644,3.0973,3.1536,3.2383,3.3384,3.4316,3.5015,3.5375,3.5542,3.5467,3.6197,3.6453,3.5581,3.5903,3.6055,3.5666,3.6689,3.7457,3.759,3.8679,3.938,3.938,3.938,3.9532,3.99,3.99,3.99,3.99,3.99,3.99,3.99,3.99,3.99,3.99,3.99,3.99,0.4026,0.501,0.5925,0.6666,0.708,0.7528,0.0,0.0,0.9142,0.0,1.0045,1.0803,1.2129,1.3039,1.3912,1.4891,1.5182,1.5313,1.5313,1.5374,1.5404,1.5418,1.5812,1.6205,1.6474,1.6802,1.7146,1.7474,1.7559,1.7612,1.7607,1.7749,1.7878,1.8011,1.8016,1.8478,1.9391,1.9984,2.0723,2.1611,2.3018,2.3625,2.3553,2.4681,2.5243,2.5322,2.5369,2.5432,2.5484,2.5495,2.5511,2.5525,2.5582,2.5604,2.5591,2.5607,2.5609,2.5627,2.5664,2.5654,2.5661,2.5925,2.7002,2.8247,2.8462,2.9131,2.9954,3.0545,3.027,2.9943,3.0512,3.0668,3.0653,3.0617,3.0637,3.0657,3.061,3.0622,3.1101,3.2646,3.3333,3.3938,3.488,3.501,3.4955,3.4917,3.5438,3.5628,3.4984,3.5476,3.5874,3.5874,3.6794,3.7666,3.831,3.9304,3.99,3.99,3.99,3.99,3.99,3.99,3.9995,4.0222,4.0014,3.99,3.99,3.99,3.99,3.9919,4.0127,4.0222,0.3535,0.5068,0.6313,0.5732,0.6497,0.0,0.0,0.0,0.9101,0.9126,0.9968,1.0895,1.161,1.2467,1.333,1.4211,1.4892,1.5313,1.5403,1.5404,1.5418,1.5477,1.584,1.6205,1.6474,1.6802,1.713,1.7477,1.7554,1.7635,1.7687,1.7828,1.7922,1.7994,1.8059,1.8335,1.8843,2.0126,2.0481,1.9954,2.2432,2.3309,2.2814,2.4454,2.5278,2.5394,2.5402,2.5404,2.541,2.5471,2.5534,2.5608,2.5609,2.56,2.5606,2.5593,2.5643,2.5681,2.5638,2.5638,2.582,2.6595,2.745,2.8346,2.9182,3.0039,3.0735,3.0709,3.0678,3.0628,3.0603,3.0619,3.0607,3.0602,3.0602,3.0597,3.0597,3.0554,3.0962,3.2505,3.2741,3.3157,3.4661,3.4917,3.4889,3.4908,3.4946,3.4946,3.4908,3.4946,3.4965,3.4965,3.6424,3.742,3.7457,3.8963,3.99,3.99,3.99,3.99,3.99,3.99,4.0298,4.1113,4.0317,3.99,3.99,3.99,3.99,3.9919,4.0753,4.1132,0.3827,0.4324,0.0,0.5301,0.5839,0.6352,0.6794,0.7475,0.8212,0.8938,0.9688,1.0371,1.0959,1.2263,1.3504,1.4295,1.495,1.5388,1.5448,1.5492,1.5551,1.5566,1.5769,1.6081,1.6514,1.6672,1.6955,1.7448,1.7554,1.7635,1.7698,1.7828,1.7933,1.7994,1.807,1.8348,1.8869,1.9637,1.996,1.9819,2.1342,2.2268,2.2689,2.3879,2.4788,2.5398,2.5402,2.5427,2.5464,2.5494,2.5537,2.5593,2.56,2.5609,2.5611,2.5643,2.5683,2.5699,2.5661,2.5678,2.5757,2.605,2.6691,2.7524,2.8346,2.9235,3.0063,3.0509,3.0665,3.068,3.0623,3.0592,3.0598,3.0598,3.0598,3.0724,3.12,3.122,3.1463,3.2586,3.3064,3.3654,3.4728,3.4908,3.4908,3.4908,3.4908,3.4908,3.4908,3.4908,3.4908,3.4908,3.6405,3.7401,3.7401,3.8944,3.99,3.99,3.99,3.99,3.99,3.99,4.0317,4.1169,4.0885,4.0734,4.0734,4.0165,3.99,3.9919,4.079,4.1188,0.3612,0.3811,0.0,0.0,0.0,0.5384,0.6344,0.6856,0.7463,0.8598,0.9408,1.0092,1.0608,1.2028,1.3271,1.375,1.454,1.5125,1.5226,1.5432,1.5624,1.5653,1.5827,1.6108,1.6557,1.6672,1.6955,1.7484,1.7566,1.7647,1.7738,1.7867,1.7977,1.8108,1.8201,1.8479,1.893,1.9335,1.9628,1.9801,2.0743,2.1556,2.2239,2.315,2.3928,2.4559,2.4553,2.476,2.5089,2.5381,2.5365,2.5191,2.5483,2.5606,2.5641,2.5679,2.569,2.5707,2.5701,2.5705,2.5699,2.5699,2.624,2.7045,2.7879,2.8765,2.9627,3.0388,3.0625,3.0657,3.0621,3.0598,3.0598,3.0598,3.081,3.1134,3.1598,3.1597,3.1818,3.2924,3.3445,3.396,3.4756,3.4908,3.4908,3.4908,3.4908,3.4908,3.4908,3.4908,3.4908,3.4908,3.6159,3.7116,3.7382,3.8698,3.973,4.0298,4.0071,4.0033,4.0317,4.0071,4.0317,4.1169,4.0904,4.0904,4.1188,4.062,4.0336,4.0355,4.1207,4.1901,0.0,0.0,0.0,0.0,0.0,0.0,0.6105,0.0,0.6908,0.8047,0.9174,1.0118,1.0593,1.172,1.2552,1.2492,1.3601,1.4534,1.4687,1.5208,1.5624,1.5799,1.6038,1.6313,1.6596,1.6853,1.7167,1.7566,1.7601,1.7658,1.7789,1.7928,1.8098,1.8295,1.8505,1.8734,1.8982,1.9274,1.9541,1.9801,2.0724,2.1246,2.1426,2.2278,2.2756,2.2902,2.2902,2.3369,2.4199,2.5094,2.5002,2.4388,2.5254,2.5643,2.5701,2.5692,2.5692,2.5691,2.5703,2.5699,2.5699,2.5699,2.623,2.7028,2.7937,2.8737,2.9525,3.0366,3.0606,3.0593,3.0592,3.0598,3.0598,3.0598,3.1192,3.1748,3.1707,3.1591,3.1943,3.3503,3.3766,3.3979,3.4775,3.4908,3.4908,3.4908,3.4908,3.4908,3.4908,3.4908,3.4908,3.4908,3.5685,3.6529,3.7344,3.8197,3.9429,4.1094,4.0374,4.0298,4.115,4.0355,4.0317,4.1169,4.0374,4.0374,4.1226,4.1207,4.1188,4.1219,4.2041,4.3322,0.2895,0.0,0.0,0.0,0.0,0.0,0.0,0.0,0.6348,0.7483,0.8588,0.9522,1.0085,1.1152,1.194,1.1929,1.305,1.4111,1.4695,1.4919,1.5301,1.6005,1.6148,1.6378,1.6841,1.7002,1.7211,1.7577,1.763,1.7715,1.78,1.7928,1.8076,1.8221,1.8612,1.8851,1.893,1.9398,1.9641,1.9738,2.0147,2.0687,2.1343,2.168,2.2226,2.2902,2.2898,2.2719,2.2514,2.4008,2.4495,2.4386,2.5311,2.5681,2.5706,2.5697,2.5707,2.5691,2.5703,2.5699,2.5697,2.5643,2.579,2.6223,2.7686,2.8284,2.8754,3.0193,3.06,3.0593,3.0592,3.0598,3.0598,3.0598,3.0708,3.0923,3.1437,3.1484,3.1913,3.3487,3.4222,3.4643,3.4851,3.4908,3.4908,3.4908,3.4908,3.4908,3.4908,3.4908,3.4908,3.4908,3.5685,3.6529,3.7344,3.8197,3.9429,4.1094,4.0374,4.0298,4.115,4.0355,4.0317,4.1169,4.0961,4.1245,4.206,4.1473,4.1188,4.1226,4.2678,4.391,0.3471,0.0,0.0,0.0,0.0,0.0,0.5336,0.552,0.5878,0.7331,0.8243,0.8963,0.9583,1.0596,1.1323,1.1292,1.219,1.3252,1.4244,1.4618,1.5145,1.6099,1.6299,1.6541,1.6968,1.7167,1.7361,1.7589,1.7653,1.7743,1.7878,1.7961,1.8102,1.8325,1.8614,1.886,1.9023,1.9387,1.9628,1.9732,1.9913,2.028,2.0789,2.0904,2.1273,2.1825,2.1833,2.1584,2.1296,2.307,2.3795,2.3881,2.4805,2.5385,2.5668,2.5286,2.5391,2.5707,2.5701,2.5699,2.5695,2.5617,2.56,2.591,2.76,2.7838,2.7873,2.9586,3.0055,3.0053,3.0065,3.0327,3.0598,3.0598,3.0796,3.1089,3.1424,3.1745,3.234,3.3523,3.411,3.451,3.4832,3.4908,3.4908,3.4908,3.4908,3.4908,3.4908,3.4908,3.4908,3.4908,3.5344,3.5988,3.6832,3.7614,3.8977,4.1075,4.067,4.0935,4.2192,4.1075,4.0677,4.1188,4.0828,4.1226,4.2401,4.1927,4.1889,4.228,4.3246,4.4137,0.426,0.4134,0.0,0.4884,0.4775,0.0,0.6137,0.5735,0.5566,0.724,0.785,0.8284,0.8968,0.9899,1.0564,1.0599,1.1214,1.2153,1.351,1.4225,1.4958,1.5895,1.6318,1.6626,1.6917,1.728,1.7547,1.7601,1.7681,1.7794,1.7994,1.8016,1.8173,1.8483,1.8614,1.8834,1.9201,1.9365,1.9555,1.9807,1.9947,2.0039,2.0093,2.0178,2.0242,2.0301,2.0369,2.0393,2.0538,2.2257,2.3001,2.3191,2.4062,2.4937,2.5599,2.4726,2.4959,2.5699,2.5697,2.5697,2.5695,2.561,2.5582,2.5883,2.7469,2.7354,2.7035,2.8683,2.9171,2.9171,2.9171,2.9805,3.0443,3.0434,3.1043,3.1584,3.1379,3.1945,3.2664,3.3304,3.3562,3.3922,3.4643,3.4832,3.4908,3.4908,3.4908,3.4908,3.4889,3.4898,3.4879,3.4879,3.4898,3.5249,3.6092,3.6738,3.8258,4.0995,4.0979,4.1704,4.3601,4.2067,4.1177,4.1188,4.0336,4.0677,4.2268,4.2363,4.2886,4.3834,4.3834,4.4213,0.4344,0.4342,0.451,0.4723,0.4955,0.0,0.5806,0.5788,0.5762,0.6187,0.649,0.6914,0.7631,0.8461,0.9213,0.9797,1.0505,1.1463,1.2819,1.3258,1.3778,1.4722,1.5543,1.616,1.65,1.7163,1.7589,1.7601,1.7704,1.7845,1.7994,1.8142,1.8328,1.8487,1.8878,1.9125,1.9201,1.9492,1.9694,1.9806,1.9939,2.0039,2.0093,2.0178,2.0242,2.0301,2.036,2.0407,2.0492,2.1595,2.246,2.3182,2.4051,2.4936,2.5598,2.4716,2.4959,2.5697,2.5641,2.5645,2.5689,2.5562,2.5567,2.5764,2.668,2.6845,2.6919,2.7972,2.8242,2.8242,2.8242,2.89,2.952,2.9413,3.0017,3.0548,3.0395,3.0426,3.0701,3.1524,3.2785,3.3752,3.3903,3.4472,3.4908,3.4908,3.4908,3.4879,3.4839,3.4879,3.485,3.4678,3.4792,3.522,3.5972,3.6269,3.7726,4.0842,4.0354,4.1033,4.3435,4.1937,4.1097,4.1188,4.0336,4.0412,4.1435,4.2079,4.3189,4.4668,4.4668,4.4743,0.4894,0.4946,0.5239,0.5609,0.5538,0.0,0.0,0.6213,0.6038,0.6716,0.6827,0.701,0.7727,0.8286,0.8764,0.9145,0.9813,1.0539,1.1211,1.2336,1.3465,1.4476,1.5041,1.5505,1.5872,1.6263,1.6685,1.7115,1.7558,1.7911,1.8148,1.8256,1.846,1.8789,1.9051,1.9264,1.9409,1.9606,1.9745,1.9853,1.9958,2.005,2.0153,2.0214,2.0292,2.0353,2.0383,2.0412,2.0519,2.1465,2.2107,2.2537,2.2949,2.3641,2.4342,2.3915,2.4296,2.5112,2.5511,2.5645,2.5637,2.5559,2.5557,2.5683,2.6475,2.6702,2.6706,2.6749,2.7039,2.7348,2.7348,2.8315,2.9264,2.9123,2.9742,3.0305,3.0145,3.0057,3.0109,3.0482,3.1583,3.2728,3.3562,3.4036,3.4434,3.4832,3.4908,3.487,3.4809,3.482,3.479,3.4623,3.4689,3.492,3.5365,3.5769,3.7071,3.9599,4.0056,4.1186,4.3307,4.2674,4.1912,4.1207,4.0336,4.0336,4.1188,4.2003,4.3057,4.4308,4.4706,4.4895,0.5745,0.5753,0.6026,0.6615,0.632,0.6122,0.0,0.0,0.0,0.7227,0.7119,0.708,0.7776,0.8087,0.8299,0.8457,0.9106,0.9597,0.9606,1.1298,1.2851,1.3727,1.4224,1.4596,1.4885,1.5078,1.5543,1.6417,1.6783,1.7287,1.8046,1.8004,1.8296,1.9064,1.92,1.9367,1.9602,1.9685,1.9795,1.9909,2.0,2.0088,2.0193,2.0273,2.0336,2.0399,2.0397,2.0442,2.0562,2.1323,2.1649,2.165,2.1756,2.2334,2.3072,2.2902,2.3519,2.451,2.5182,2.5503,2.5603,2.5579,2.5544,2.5614,2.6273,2.6474,2.6339,2.5681,2.5971,2.645,2.6438,2.7714,2.899,2.8849,2.959,3.0292,3.0097,3.0064,3.0042,2.9913,3.0465,3.1431,3.2956,3.3486,3.3866,3.4358,3.4699,3.4813,3.4533,3.4684,3.4737,3.4539,3.4561,3.4634,3.4727,3.5367,3.6483,3.8098,3.9646,4.119,4.2723,4.3049,4.2555,4.1192,4.0431,4.0367,4.0942,4.1734,4.2673,4.372,4.4535,4.4895,0.6866,0.6703,0.6651,0.6898,0.7122,0.7167,0.6788,0.0,0.6424,0.609,0.0,0.5521,0.6379,0.0,0.0,0.7604,0.8346,0.8846,0.8896,0.9857,1.0561,1.0707,1.2295,1.3326,1.319,1.3944,1.4797,1.5663,1.4654,1.4951,1.7213,1.6939,1.7403,1.896,1.9303,1.9505,1.9609,1.9725,1.9862,1.9988,2.0054,2.0135,2.0193,2.0273,2.0336,2.0399,2.0397,2.0443,2.0505,2.068,2.075,2.0827,2.152,2.2334,2.3014,2.2239,2.2992,2.4407,2.444,2.4965,2.5595,2.552,2.5499,2.5515,2.5608,2.5642,2.5623,2.5526,2.5565,2.5611,2.5498,2.6752,2.8016,2.7816,2.8973,3.0109,2.9945,2.9913,2.9913,2.9897,2.9991,3.0351,3.1318,3.2728,3.3468,3.2785,3.396,3.4557,3.3592,3.4256,3.4655,3.4281,3.4461,3.455,3.4461,3.5278,3.6171,3.7031,3.8582,3.989,4.0865,4.1715,4.1807,4.1026,4.0804,4.0476,4.0052,4.0802,4.2042,4.372,4.4535,4.4895,0.6984,0.6822,0.6841,0.7202,0.7164,0.7044,0.7062,0.6815,0.6624,0.6712,0.0,0.0,0.0,0.0,0.0,0.0,0.7944,0.8056,0.7679,0.8415,0.9328,1.0255,1.1181,1.1934,1.2389,1.32,1.4069,1.4892,1.4495,1.4916,1.6589,1.7021,1.7612,1.8506,1.9166,1.9533,1.9599,1.9725,1.9868,1.9993,2.0063,2.0145,2.0197,2.0273,2.0331,2.0405,2.0446,2.05,2.0566,2.0599,2.0594,2.0632,2.0933,2.1279,2.1608,2.1752,2.2252,2.3026,2.3964,2.4532,2.4927,2.5367,2.5507,2.5507,2.5507,2.5444,2.538,2.538,2.5369,2.5303,2.5254,2.6153,2.7171,2.7516,2.8519,2.9482,2.9826,2.9897,2.9897,2.9897,2.9874,2.9954,3.0313,3.1424,3.2238,3.2232,3.2883,3.3355,3.3262,3.362,3.396,3.4177,3.4293,3.4393,3.4404,3.4749,3.5322,3.6104,3.805,3.9815,4.1249,4.1664,4.1796,4.1582,4.1067,4.0453,3.9792,4.0525,4.1543,4.2843,4.3779,4.4459,0.7365,0.7295,0.7343,0.7531,0.7289,0.7036,0.7158,0.6991,0.6928,0.7319,0.7473,0.0,0.0,0.0,0.0,0.0,0.0,0.782,0.7163,0.7664,0.8461,0.9454,1.0082,1.0792,1.1713,1.2136,1.2789,1.3819,1.363,1.4208,1.5912,1.6502,1.7202,1.8139,1.8829,1.9307,1.9594,1.9738,1.988,1.9993,2.0072,2.0136,2.0197,2.0264,2.0347,2.0393,2.0461,2.0544,2.0601,2.0597,2.0594,2.059,2.0522,2.0497,2.0571,2.1204,2.1589,2.1976,2.3195,2.3766,2.4076,2.4857,2.5132,2.5178,2.5375,2.5376,2.5293,2.5274,2.5239,2.5206,2.5179,2.5811,2.6643,2.7393,2.8229,2.9045,2.9742,2.9897,2.9897,2.9897,2.9866,2.9825,2.9773,3.0524,3.126,3.1712,3.224,3.2747,3.3149,3.3388,3.3698,3.4153,3.4197,3.4245,3.4328,3.4563,3.5048,3.5838,3.7296,3.91,4.133,4.1185,4.1348,4.1927,4.1119,4.034,3.9647,4.0146,4.0879,4.1839,4.3082,4.4089,0.8473,0.8532,0.8412,0.7923,0.7778,0.7569,0.6799,0.7016,0.7381,0.7393,0.8072,0.8694,0.8853,0.0,0.0,0.0,0.0,0.0,0.0,0.7962,0.7885,0.7286,0.8711,1.0072,1.0958,1.04,1.0666,1.2243,1.1109,1.1781,1.5065,1.4702,1.5532,1.8016,1.8264,1.8746,1.959,1.9732,1.986,1.9993,2.0072,2.0136,2.0197,2.0264,2.0347,2.0393,2.0475,2.0543,2.0601,2.06,2.0595,2.0586,2.052,2.0493,2.0506,2.0521,2.1083,2.1801,2.1852,2.2391,2.3166,2.3898,2.4196,2.4378,2.5089,2.5302,2.5283,2.5219,2.5192,2.519,2.5118,2.5698,2.651,2.7307,2.8112,2.893,2.9726,2.9897,2.9897,2.9897,2.9888,2.9857,2.9719,3.0377,3.0922,3.0931,3.2321,3.3323,3.322,3.3881,3.4321,3.4209,3.4197,3.4209,3.4209,3.4971,3.5807,3.6606,3.5993,3.7071,4.0304,3.9635,4.0021,4.1764,4.0891,4.0122,3.9514,3.9395,3.9857,4.0892,4.2674,4.3932,0.853,0.86,0.856,0.8428,0.8097,0.7677,0.7236,0.7269,0.7442,0.762,0.829,0.8904,0.9127,0.0,0.0,0.0,0.0,0.0,0.0,0.0,0.7781,0.7993,0.9091,0.0,1.0242,0.9597,1.0085,1.2277,1.1199,1.1658,1.4381,1.5029,1.5905,1.7257,1.7945,1.8722,1.959,1.9732,1.9866,1.9993,2.0019,2.0121,2.0261,2.0283,2.0352,2.0467,2.0535,2.0586,2.0601,2.06,2.0595,2.0605,2.0584,2.0537,2.0506,2.0501,2.0693,2.1018,2.1495,2.2217,2.3067,2.3847,2.4098,2.423,2.5042,2.5244,2.5162,2.5147,2.5094,2.5197,2.5709,2.6037,2.6581,2.7979,2.8495,2.893,2.9726,2.9897,2.9897,2.9897,2.9866,2.9808,2.9729,3.0282,3.0756,3.0702,3.1231,3.1979,3.294,3.332,3.3662,3.4153,3.4197,3.4197,3.4197,3.4457,3.4767,3.5027,3.5343,3.6476,3.8655,3.8971,3.9668,4.0859,4.056,4.0053,3.9376,3.9232,3.9679,4.0667,4.1295,4.2055,0.8642,0.8742,0.8768,0.8826,0.8547,0.8167,0.7841,0.7905,0.8095,0.83,0.9017,0.9624,0.9715,0.9869,0.0,0.0,0.0,0.0,0.0,0.7717,0.8041,0.852,0.0,0.0,0.0,0.885,0.9428,1.1993,1.1124,1.1597,1.4099,1.4885,1.5649,1.6482,1.7411,1.8316,1.9153,1.9607,1.9896,1.9993,2.0025,2.0133,2.0301,2.0324,2.04,2.0496,2.0579,2.0605,2.0603,2.0601,2.0594,2.0563,2.0585,2.0558,2.0503,2.0501,2.0474,2.0529,2.0942,2.1677,2.2528,2.3317,2.3751,2.4129,2.4974,2.5168,2.5101,2.507,2.524,2.5553,2.6065,2.6425,2.7013,2.8381,2.8703,2.893,2.9726,2.9897,2.9897,2.9897,2.9866,2.9902,3.0096,3.0488,3.0818,3.0998,3.1309,3.1983,3.3262,3.3429,3.3621,3.4141,3.4197,3.4197,3.4197,3.4197,3.4197,3.4197,3.4729,3.59,3.7819,3.8395,3.9212,4.0378,4.0416,4.0012,3.9232,3.9137,3.9435,4.0071,4.0383,4.0699]}]]